     2.11           OBSERVATION DATA    G (GPS)             RINEX VERSION / TYPE
teqc 2010Oct21 OPUS Account 20111026 16:19:06UTC            PGM / RUN BY / DATE
G 1523                                                      MARKER NAME
1187                                                        MARKER NUMBER
CSMIDDLETON NGS                                             OBSERVER / AGENCY
4613K00970 TRIMBLE NETR5 4.17                               REC # / TYPE / VERS
60125046 TRM41249.00 NONE                                   ANT # / TYPE
  -749227.3504 -5509838.3699  3113961.9366                  APPROX POSITION XYZ
        2.0040        0.0000        0.0000                  ANTENNA: DELTA H/E/N
     1     1                                                WAVELENGTH FACT L1/2
     5    L1    L2    C1    P1    P2                        # / TYPES OF OBSERV
    15                                                      LEAP SECONDS
  2011     8     1    16    46    0.0000000     GPS         TIME OF FIRST OBS
                                                            END OF HEADER
 11  8  1 16 46  0.0000000  0  8G16G06G03G19G07G20G13G23
 115353289.42717  89885709.04455  21951001.391                    21951008.113
 116018103.46917  90403750.27455  22077511.641                    22077519.902
 109412269.26517  85256346.43255  20820462.805                    20820471.129
 115507476.57817  90005853.19355  21980342.297                    21980349.301
 120914659.88117  94219248.69916  23009294.359                    23009303.051
 124520137.14016  97028723.62753  23695395.352                    23695406.121
 107497310.22618  83764168.45356  20456058.359                    20456065.469
 104959957.17418  81787003.29856  19973216.063                    19973221.789
 11  8  1 16 46 30.0000000  0  9G16G06G03G19G07G10G20G13G23
 115435925.817 7  89950101.00045  21966726.406                    21966733.863
 116039521.684 7  90420439.77245  22081586.914                    22081595.758
 109401804.210 7  85248191.84045  20818471.172                    20818479.551
 115434844.330 7  89949256.67545  21966520.289                    21966527.535
 120856558.001 7  94173974.549 6  22998238.273                    22998246.797
 125755754.28716  97991534.76153  23930525.195                    23930534.004
 124608960.188 6  97097936.27643  23712298.453                    23712308.887
 107450287.210 8  83727527.15146  20447110.344                    20447117.324
 104969967.707 8  81794803.69546  19975121.211                    19975126.531
 11  8  1 16 47  0.0000000  0  9G16G06G03G19G07G10G20G13G23
 115518758.354 7  90014645.81545  21982489.367                    21982496.355
 116061492.436 7  90437559.82345  22085768.031                    22085776.863
 109391962.190 7  85240522.72745  20816598.297                    20816606.500
 115362577.408 7  89892944.83645  21952768.688                    21952775.547
 120798474.163 7  94128714.448 6  22987185.484                    22987193.824
 125732691.815 6  97973564.01043  23926136.906                    23926146.172
 124697794.261 6  97167157.43843  23729202.758                    23729213.688
 107403702.767 8  83691227.59346  20438245.727                    20438252.742
 104980535.298 8  81803038.16146  19977132.141                    19977137.313
 11  8  1 16 47 30.0000000  0  9G16G06G03G19G07G10G20G13G23
 115601781.748 7  90079339.33445  21998288.664                    21998295.559
 116084012.177 7  90455107.65945  22090053.656                    22090062.168
 109382741.181 7  85233337.52745  20814843.914                    20814852.348
 115290676.062 7  89836917.84445  21939086.484                    21939093.211
 120740405.377 7  94083466.068 6  22976135.242                    22976143.375
 125710138.267 6  97955989.80543  23921844.039                    23921853.652
 124786633.937 6  97236383.03843  23746109.070                    23746119.500
 107357556.283 8  83655269.29746  20429464.250                    20429471.445
 104991657.926 8  81811705.12146  19979248.695                    19979254.395
 11  8  1 16 48  0.0000000  0  9G16G06G03G19G07G10G20G13G23
 115684994.031 7  90144180.05045  22014123.047                    22014129.949
 116107080.909 7  90473083.29845  22094443.516                    22094451.969
 109374142.006 7  85226636.87445  20813207.773                    20813216.074
 115219143.880 7  89781178.52945  21925474.000                    21925480.719
 120682351.986 7  94038229.711 6  22965087.828                    22965096.215
 125688093.918 6  97938812.38243  23917649.563                    23917659.148
 124875476.653 6  97305610.96843  23763015.453                    23763026.020
 107311850.128 8  83619654.10746  20420766.609                    20420773.777
 105003336.111 8  81820804.98846  19981470.938                    19981476.566
 11  8  1 16 48 30.0000000  0  9G16G06G03G19G07G10G20G13G23
 115768392.980 7  90209166.22245  22029993.266                    22030000.313
 116130698.527 7  90491486.63145  22098937.641                    22098946.152
 109366166.305 7  85220422.03945  20811689.836                    20811698.215
 115147984.204 7  89725729.47145  21911933.469                    21911939.902
 120624314.433 7  93993005.678 6  22954043.648                    22954051.785
 125666559.288 6  97922032.12043  23913552.320                    23913561.285
 124964320.066 6  97374839.46543  23779920.828                    23779932.059
 107266587.288 7  83584384.37546  20412152.969                    20412160.219
 105015570.939 8  81830338.59846  19983799.086                    19983804.672
 11  8  1 16 49  0.0000000  0  9G16G06G03G19G07G10G20G13G23
 115851975.089 7  90274295.11545  22045898.555                    22045905.613
 116154863.774 7  90510316.68545  22103536.039                    22103544.473
 109358813.874 7  85214692.87845  20810290.984                    20810298.906
 115077199.042 7  89670572.24245  21898462.766                    21898469.828
 120566292.003 7  93947793.438 6  22943002.297                    22943010.945
 125645533.847 6  97905648.65543  23909550.750                    23909559.969
 125053160.421 6  97444065.58343  23796827.383                    23796837.480
 107221769.153 8  83549461.14546  20403624.516                    20403631.969
 105028362.120 8  81840305.73646  19986233.227                    19986238.773
 11  8  1 16 49 30.0000000  0 10G16G06G03G19G07G11G10G20G13G23
 115935739.031 7  90339565.68845  22061838.023                    22061845.355
 116179576.912 7  90529573.68445  22108238.758                    22108247.148
 109352086.205 8  85209450.53345  20809010.711                    20809018.484
 115006792.485 7  89615710.02445  21885064.797                    21885071.789
 120508285.349 7  93902593.484 6  22931964.508                    22931972.105
 135847371.26515                  25850898.703
 125625018.414 6  97889662.60543  23905646.594                    23905656.234
 125141995.729 6  97513287.76843  23813732.508                    23813742.008
 107177398.861 7  83514886.89746  20395181.359                    20395188.332
 105041710.960 8  81850707.41046  19988773.484                    19988778.852
 11  8  1 16 50  0.0000000  0 10G16G06G03G19G07G11G10G20G13G23
 116019681.704 7  90404975.52945  22077812.063                    22077819.055
 116204836.999 7  90549256.86145  22113045.875                    22113054.004
 109345983.248 7  85204694.98145  20807849.117                    20807857.262
 114936767.049 7  89561144.78845  21871739.438                    21871745.977
 120450294.020 7  93857405.455 6  22920928.914                    22920936.930
 135792188.92715                  25840397.352
 125605012.566 6  97874073.64343  23901839.359                    23901849.398
 125230822.813 6  97582503.52443  23830636.742                    23830646.082
 107133478.211 7  83480663.01146  20386823.328                    20386830.773
 105055617.346 8  81861543.53546  19991419.680                    19991425.141
 11  8  1 16 50 30.0000000  0  9G16G06G03G19G07G10G20G13G23
 116103801.272 7  90470523.21745  22093819.422                    22093825.992
 116230644.105 7  90569366.29945  22117956.602                    22117965.309
 109340506.705 7  85200427.53345  20806806.727                    20806815.074
 114867126.539 7  89506879.48445  21858487.188                    21858494.457
 120392318.732 7  93812229.947 6  22909896.555                    22909904.820
 125585516.789 6  97858882.10943  23898130.273                    23898139.469
 125319639.289 6  97651711.03643  23847536.805                    23847548.199
 107090010.319 8  83446791.93046  20378551.875                    20378559.164
 105070082.686 8  81872815.20846  19994172.500                    19994178.031
 11  8  1 16 51  0.0000000  0  9G16G06G03G19G07G10G20G13G23
 116188094.770 7  90536206.42245  22109859.805                    22109866.629
 116256997.159 7  90589901.15145  22122971.773                    22122979.930
 109335656.320 8  85196648.01645  20805884.211                    20805892.227
 114797873.611 7  89452916.20045  21845308.977                    21845315.633
 120334359.070 7  93767066.626 6  22898867.023                    22898875.406
 125566530.589 6  97844087.66743  23894517.680                    23894526.781
 125408442.268 6  97720907.99243  23864435.703                    23864446.477
 107046996.632 7  83413274.77846  20370366.586                    20370373.801
 105085106.756 8  81884522.25246  19997031.734                    19997037.332
 11  8  1 16 51 30.0000000  0  9G16G06G03G19G07G10G20G13G23
 116272559.741 7  90602023.25045  22125933.234                    22125940.324
 116283895.585 7  90610860.95645  22128089.734                    22128098.598
 109331432.784 8  85193356.94245  20805080.367                    20805088.457
 114729011.134 7  89399257.15545  21832204.984                    21832211.574
 120276415.153 7  93721915.551 6  22887840.320                    22887848.762
 125548054.563 6  97829690.78743  23891001.461                    23891010.648
 125497229.199 6  97790092.48243  23881331.648                    23881341.766
 107004439.587 7  83380113.45046  20362268.836                    20362275.516
 105100689.968 8  81896664.99146  19999996.906                    20000002.590
 11  8  1 16 52  0.0000000  0  9G16G06G03G19G07G10G20G13G23
 116357194.108 7  90667972.06845  22142038.141                    22142045.555
 116311339.276 7  90632245.66745  22133312.523                    22133321.133
 109327836.937 7  85190554.98145  20804396.336                    20804404.477
 114660542.375 7  89345904.90845  21819175.367                    21819182.500
 120218487.562 7  93676777.202 6  22876817.930                    22876825.457
 125530088.804 6  97815691.48243  23887582.367                    23887591.543
 125585997.492 6  97859262.43743  23898224.117                    23898234.105
 106962341.857 8  83347310.01746  20354257.445                    20354264.531
 105116833.409 8  81909244.26946  20003068.641                    20003074.512
 11  8  1 16 52 30.0000000  0  9G16G06G03G19G07G10G20G13G23
 116441995.638 7  90734051.15745  22158176.352                    22158182.582
 116339327.284 7  90654054.48945  22138638.617                    22138647.004
 109324869.802 7  85188242.92845  20803831.688                    20803839.469
 114592470.453 7  89292861.89445  21806221.500                    21806228.855
 120160576.005 7  93631651.344 7  22865797.680                    22865805.766
 125512632.940 6  97802089.52243  23884260.563                    23884269.789
 125674744.271 6  97928415.61243  23915112.523                    23915122.234
 106920705.957 8  83314866.45846  20346334.242                    20346341.172
 105133537.285 8  81922260.25946  20006247.516                    20006252.949
 11  8  1 16 53  0.0000000  0  9G16G06G03G19G07G10G20G13G23
 116526961.537 7  90800258.32145  22174344.883                    22174351.871
 116367859.127 7  90676287.10345  22144067.930                    22144076.625
 109322531.606 7  85186420.96645  20803386.641                    20803394.723
 114524798.570 7  89240130.59245  21793344.594                    21793351.520
 120102680.900 7  93586538.332 7  22854780.609                    22854788.910
 125495686.958 6  97788884.86343  23881035.625                    23881045.523
 125763467.151 6  97997550.14343  23931995.672                    23932005.652
 106879533.843 8  83282784.28746  20338499.633                    20338506.730
 105150802.289 8  81935713.48146  20009533.211                    20009538.609
 11  8  1 16 53 30.0000000  0  9G16G06G03G19G07G10G20G13G23
 116612089.442 7  90866591.71145  22190544.000                    22190551.047
 116396933.843 7  90698942.71245  22149600.523                    22149609.059
 109320822.497 7  85185089.18545  20803061.047                    20803069.371
 114457529.130 7  89187712.88745  21780543.656                    21780550.195
 120044801.900 7  93541437.851 7  22843766.289                    22843774.398
 125479250.611 6  97776077.29543  23877908.555                    23877917.820
 125852162.672 6  98066663.38743  23948873.695                    23948884.438
 106838827.424 8  83251065.00446  20330753.461                    20330760.578
 105168627.922 8  81949603.55946  20012924.766                    20012930.840
 11  8  1 16 54  0.0000000  0  9G16G06G03G19G07G10G20G13G23
 116697376.960 7  90933049.48445  22206772.875                    22206780.477
 116426550.712 7  90722020.77645  22155236.219                    22155245.129
 109319743.092 7  85184248.09345  20802856.109                    20802864.078
 114390665.333 7  89135611.27445  21767819.258                    21767826.758
 119986939.034 7  93496349.932 6  22832754.836                    22832763.531
 125463324.044 6  97763666.96243  23874877.789                    23874887.320
 125940828.256 6  98135753.27043  23965746.195                    23965756.891
 106798588.815 8  83219710.25046  20323096.180                    20323103.305
 105187014.757 8  81963930.94146  20016423.664                    20016429.430
 11  8  1 16 54 30.0000000  0 10G16G06G03G19G08G07G10G20G13G23
 116782822.130 7  90999630.10345  22223033.039                    22223040.000
 116456709.395 7  90745521.03445  22160975.297                    22160983.703
 109319294.096 7  85183898.23545  20802770.195                    20802778.645
 114324210.569 7  89083828.38345  21755173.875                    21755180.395
 131011301.88716                  24930629.844
 119929092.984 6  93451275.112 6  22821747.492                    22821755.746
 125447907.022 6  97751653.67243  23871943.883                    23871953.223
 126029461.487 6  98204817.95143  23982613.750                    23982623.914
 106758820.869 8  83188722.24146  20315528.531                    20315535.676
 105205963.436 8  81978696.12546  20020029.805                    20020035.508
 11  8  1 16 55  0.0000000  0 10G16G06G03G19G08G07G10G20G13G23
 116868422.031 7  91066331.28545  22239321.852                    22239329.078
 116487408.724 7  90769442.56045  22166817.219                    22166825.707
 109319475.766 8  85184039.79345  20802804.531                    20802813.301
 114258167.291 7  89032366.13945  21742606.273                    21742612.906
 130946631.780 6 102036405.36552  24918323.852                    24918333.109
 119871263.648 7  93406213.332 7  22810742.664                    22810751.094
 125432999.286 6  97740037.26543  23869106.891                    23869116.488
 126118059.937 6  98273855.50843  23999472.953                    23999484.258
 106719525.174 7  83158102.21146  20308050.758                    20308058.078
 105225474.316 8  81993899.38446  20023742.781                    20023747.941
 11  8  1 16 55 30.0000000  0 10G16G06G03G19G08G07G10G20G13G23
 116954173.956 7  91133150.91945  22255640.227                    22255647.293
 116518647.351 7  90793784.32545  22172761.703                    22172770.348
 109320287.599 7  85184672.39545  20802958.992                    20802967.621
 114192537.662 7  88981226.20945  21730117.234                    21730124.445
 130881914.561 5 101985976.45442  24906007.305                    24906019.031
 119813450.335 7  93361164.034 7  22799741.141                    22799749.699
 125418600.216 6  97728817.21143  23866367.453                    23866376.988
 126206619.814 6  98342863.03043  24016325.531                    24016336.211
 106680703.308 8  83127851.40946  20300663.305                    20300670.379
 105245546.069 8  82009539.68646  20027562.250                    20027567.754
 11  8  1 16 56  0.0000000  0 10G16G06G03G19G08G07G10G20G13G23
 117040075.654 7  91200087.27945  22271986.844                    22271993.949
 116550425.298 7  90818546.32945  22178808.734                    22178817.676
 109321730.698 8  85185796.90645  20803234.109                    20803242.336
 114127325.812 7  88930411.83045  21717707.906                    21717714.859
 130817151.023 6 101935511.46242  24893683.805                    24893695.984
 119755654.062 7  93316128.022 7  22788742.320                    22788751.191
 125404710.170 6  97717993.77943  23863723.938                    23863733.672
 126295139.371 6  98411839.10443  24033170.133                    24033180.859
 106642358.538 8  83097972.36146  20293366.641                    20293373.672
 105266180.302 8  82025618.28746  20031488.953                    20031494.477
 11  8  1 16 56 30.0000000  0 11G30G16G06G03G19G08G07G10G20G13G23
 128376877.45816 100034015.86753  24429319.234                    24429329.398
 117126125.149 7  91267138.80345  22288361.547                    22288368.727
 116582741.580 7  90843727.82545  22184958.734                    22184967.031
 109323805.134 8  85187413.36145  20803628.656                    20803636.617
 114062534.404 7  88879925.07445  21705378.406                    21705385.555
 130752340.508 5 101885009.79542  24881350.125                    24881362.168
 119697874.815 7  93271105.297 7  22777747.844                    22777756.332
 125391328.995 6  97707566.87943  23861178.094                    23861187.320
 126383615.751 6  98480781.55943  24050006.219                    24050017.922
 106604492.779 8  83068466.57646  20286161.031                    20286168.336
 105287377.066 8  82042135.23346  20035522.555                    20035527.980
 11  8  1 16 57  0.0000000  0 11G30G16G06G03G19G08G07G10G20G13G23
 128478954.967 6 100113556.74743  24448744.430                    24448753.871
 117212319.873 7  91334303.49245  22304763.398                    22304771.234
 116615595.431 7  90869328.19745  22191210.195                    22191218.805
 109326511.400 7  85189522.15145  20804143.781                    20804152.031
 113998166.194 7  88829768.07545  21693129.422                    21693136.090
 130687482.421 5 101834471.06242  24869009.539                    24869020.102
 119640112.500 7  93226095.744 7  22766756.227                    22766764.387
 125378456.174 6  97697536.09743  23858727.086                    23858737.219
 126472046.243 6  98549688.22643  24066834.758                    24066844.879
 106567107.835 8  83039335.45246  20279046.734                    20279053.816
 105309136.532 8  82059090.63946  20039663.117                    20039668.633
 11  8  1 16 57 30.0000000  0 10G16G06G03G19G08G07G10G20G13G23
 117298657.614 7  91401579.62145  22321193.430                    22321201.109
 116648985.912 7  90895346.72245  22197564.359                    22197572.996
 109329849.730 7  85192123.45245  20804779.211                    20804787.133
 113934224.182 7  88779943.17045  21680961.891                    21680968.188
 130622576.779 5 101783895.33042  24856656.781                    24856668.035
 119582367.636 7  93181099.773 7  22755767.055                    22755775.555
 125366091.451 6  97687901.23643  23856374.797                    23856384.797
 126560428.256 6  98618557.18043  24083653.352                    24083663.922
 106530205.969 8  83010580.74046  20272024.484                    20272031.703
 105331458.955 8  82076484.72146  20043911.063                    20043916.379
 11  8  1 16 58  0.0000000  0 10G16G06G03G19G08G07G10G20G13G23
 117385135.768 7  91468965.15745  22337649.883                    22337657.023
 116682911.959 7  90921782.60644  22204020.305                    22204029.199
 109333820.611 7  85195217.65445  20805535.008                    20805542.508
 113870711.123 7  88730452.52345  21668875.109                    21668881.828
 130557622.724 5 101733281.82542  24844297.586                    24844308.527
 119524639.997 7  93136117.225 7  22744782.422                    22744790.020
 125354234.427 6  97678661.97343  23854119.141                    23854128.836
 126648759.066 6  98687386.21543  24100462.680                    24100473.230
 106493789.389 8  82982204.18746  20265094.797                    20265102.324
 105354344.263 8  82094317.41046  20048265.914                    20048271.449
 11  8  1 16 58 30.0000000  0 10G16G06G03G19G08G07G10G20G13G23
 117471751.862 6  91536458.19245  22354131.789                    22354139.797
 116717372.477 7  90948634.94244  22210578.039                    22210586.699
 109338423.205 8  85198804.10245  20806410.641                    20806418.707
 113807629.516 7  88681298.06645  21656871.375                    21656878.301
 130492619.76615 101682630.26652  24831927.578                    24831938.660
 119466929.565 7  93091148.086 6  22733800.469                    22733808.129
 125342884.808 6  97669818.07343  23851958.977                    23851968.570
 126737035.610 6  98756172.94643  24117260.211                    24117272.383
 106457859.707 8  82954207.02646  20258257.508                    20258264.512
 105377792.267 8  82112588.56346  20052727.961                    20052733.641
 11  8  1 16 59  0.0000000  0 10G16G06G03G19G08G07G10G20G13G23
 117558504.352 7  91604057.49344  22370640.758                    22370647.586
 116752367.007 7  90975903.41044  22217237.383                    22217246.004
 109343658.371 8  85202883.44845  20807406.656                    20807414.742
 113744982.772 7  88632482.46545  21644950.070                    21644956.719
 130427568.116 6 101631940.72742  24819548.352                    24819559.785
 119409237.221 7  93046193.060 6  22722821.813                    22722829.930
 125332042.527 6  97661369.54643  23849895.336                    23849906.094
 126825255.960 6  98824915.90443  24134048.922                    24134060.148
 106422419.940 8  82926591.61646  20251513.750                    20251520.980
 105401803.509 8  82131298.60746  20057297.219                    20057302.672
 11  8  1 16 59 30.0000000  0 10G16G06G03G19G08G07G10G20G13G23
 117645390.338 7  91671760.80444  22387174.844                    22387181.777
 116787894.618 7  91003587.27145  22223997.719                    22224006.547
 109349526.325 7  85207455.87545  20808523.367                    20808531.555
 113682773.721 7  88584007.92045  21633112.125                    21633119.043
 130362467.229 6 101581212.81942  24807159.750                    24807170.813
 119351563.210 7  93001252.300 7  22711846.523                    22711854.305
 125321707.106 6  97653315.96043  23847929.063                    23847938.652
 126913417.207 6  98893612.81043  24150825.359                    24150836.723
 106387471.389 7  82899358.97546  20244863.070                    20244870.156
 105426378.102 8  82150447.62646  20061973.414                    20061979.000
 11  8  1 17  0  0.0000000  0 10G16G06G03G19G08G07G10G20G13G23
 117732406.875 7  91739565.87944  22403733.156                    22403740.387
 116823953.503 7  91031685.11544  22230859.664                    22230868.121
 109356026.540 8  85212520.97145  20809760.008                    20809768.031
 113621004.570 7  88535876.15245  21621357.359                    21621364.027
 130297316.195 6 101530445.84142  24794761.984                    24794772.684
 119293906.701 7  92956325.190 6  22700875.469                    22700883.074
 125311877.641 6  97645656.64843  23846058.180                    23846069.023
 127001516.293 6  98962261.27643  24167590.266                    24167601.363
 106353015.848 8  82872510.48946  20238306.484                    20238313.867
 105451515.425 8  82170035.13446  20066756.898                    20066762.602
 11  8  1 17  0 30.0000000  0 10G16G06G03G19G08G07G10G20G13G23
 117819552.732 7  91807471.69944  22420316.516                    22420323.445
 116860543.607 7  91060196.89345  22237822.570                    22237831.219
 109363159.527 8  85218079.12745  20811117.648                    20811125.559
 113559678.733 7  88488089.83145  21609687.750                    21609694.504
 130232115.656 5 101479640.26543  24782353.938                    24782365.965
 119236269.025 7  92911412.749 6  22689907.242                    22689915.023
 125302554.419 6  97638391.75243  23844284.406                    23844294.434
 127089551.343 6  99030859.78443  24184343.156                    24184353.641
 106319056.194 8  82846048.41346  20231844.055                    20231851.469
 105477215.974 8  82190061.52146  20071647.477                    20071653.242
 11  8  1 17  1  0.0000000  0 10G16G06G03G19G08G07G10G20G13G23
 117906825.364 7  91875476.31744  22436923.891                    22436931.309
 116897663.523 7  91089121.53245  22244886.430                    22244894.461
 109370925.499 7  85224130.50845  20812595.531                    20812603.527
 113498799.001 7  88440651.11145  21598102.680                    21598109.809
 130166864.717 5 101428795.44343  24769938.078                    24769949.242
 119178649.736 7  92866514.618 6  22678942.297                    22678950.414
 125293736.820 6  97631520.88643  23842606.625                    23842616.371
 127177519.522 5  99099406.22243  24201082.555                    24201093.563
 106285594.165 8  82819974.10046  20225476.500                    20225483.609
 105503479.840 8  82210526.85546  20076645.570                    20076650.754
 11  8  1 17  1 30.0000000  0 10G16G06G03G19G08G07G10G20G13G23
 117994222.108 7  91943577.64344  22453555.227                    22453562.309
 116935312.060 7  91118458.05345  22252050.570                    22252059.379
 109379324.220 8  85230674.95545  20814193.664                    20814202.332
 113438367.828 7  88393561.92445  21586603.203                    21586609.695
 130101563.031 6 101377911.12443  24757511.641                    24757522.762
 119121048.911 7  92821630.892 6  22667981.156                    22667989.168
 125285424.095 6  97625043.45343  23841024.469                    23841033.727
 127265417.862 6  99167898.24243  24217809.523                    24217820.637
 106252631.398 7  82794288.82346  20219204.281                    20219211.477
 105530306.721 8  82231430.90646  20081750.719                    20081756.332
 11  8  1 17  2  0.0000000  0 10G16G06G03G19G08G07G10G20G13G23
 118081740.901 7  92011774.07044  22470209.086                    22470216.285
 116973488.274 7  91148205.76644  22259315.391                    22259323.875
 109388355.528 8  85237712.31045  20815912.531                    20815920.602
 113378387.886 7  88346824.34245  21575189.336                    21575195.906
 130036210.346 6 101326987.01243  24745074.898                    24745086.102
 119063466.972 7  92776761.895 7  22657023.672                    22657031.809
 125277616.045 6  97618959.20243  23839538.734                    23839548.797
 127353244.226 5  99236334.16743  24234523.563                    24234534.234
 106220170.047 7  82768994.25246  20213026.836                    20213033.918
 105557696.477 8  82252773.54746  20086962.570                    20086968.305
 11  8  1 17  2 30.0000000  0 10G16G06G03G19G08G07G10G20G13G23
 118169379.381 7  92080063.75544  22486886.250                    22486893.910
 117012190.836 7  91178363.62445  22266679.844                    22266688.410
 109398019.428 8  85245242.59145  20817751.531                    20817759.742
 113318862.107 7  88300440.64745  21563861.906                    21563868.445
 129970806.369 6 101276022.93943  24732629.148                    24732639.926
 119005904.310 7  92731907.891 7  22646069.820                    22646078.133
 125270311.891 6  97613267.64643  23838148.820                    23838158.512
 127440995.614 5  99304711.66643  24251221.438                    24251232.684
 106188212.098 7  82744091.94646  20206945.258                    20206952.313
 105585648.830 8  82274554.58746  20092281.953                    20092287.496
 11  8  1 17  3  0.0000000  0 10G16G06G03G19G08G07G10G20G13G23
 118257135.529 7  92148445.13544  22503586.344                    22503593.453
 117051418.909 7  91208930.94545  22274145.242                    22274153.430
 109408315.993 8  85253265.87245  20819710.703                    20819719.258
 113259793.277 7  88254413.02545  21552621.094                    21552627.898
 129905350.863 6 101225018.74143  24720173.734                    24720184.012
 118948361.138 7  92687069.084 7  22635119.648                    22635127.906
 125263511.484 6  97607968.59743  23836855.094                    23836864.535
 127528669.574 5  99373028.81843  24267905.516                    24267916.059
 106156759.740 7  82719583.59546  20200960.422                    20200967.188
 105614164.195 8  82296774.33046  20097707.906                    20097713.828
 11  8  1 17  3 30.0000000  0 10G16G06G03G19G08G07G10G20G13G23
 118345006.693 7  92216916.13944  22520307.539                    22520314.590
 117091171.177 7  91239906.72444  22281709.617                    22281718.121
 109419244.640 8  85261781.68145  20821790.250                    20821798.582
 113201184.030 7  88208743.51145  21541468.523                    21541475.172
 129839843.329 6 101173973.95943  24707707.195                    24707717.859
 118890837.438 6  92642245.461 7  22624173.445                    22624181.359
 125257213.998 6  97603061.43143  23835656.031                    23835666.465
 127616263.563 6  99441283.62543  24284573.109                    24284584.645
 106125814.578 7  82695470.47446  20195071.719                    20195078.426
 105643241.636 8  82319432.06146  20103241.586                    20103247.527
 11  8  1 17  4  0.0000000  0 10G16G06G03G19G08G07G10G20G13G23
 118432990.724 7  92285475.08244  22537050.508                    22537057.477
 117131446.406 7  91271290.01344  22289374.125                    22289382.617
 109430805.520 7  85270790.13645  20823990.211                    20823998.473
 113143036.935 7  88163434.11845  21530403.125                    21530409.727
 129774283.249 6 101122888.30043  24695231.758                    24695242.563
 118833333.631 7  92597437.329 7  22613230.805                    22613239.754
 125251418.448 6  97598545.38443  23834553.969                    23834563.031
 127703775.027 6  99509474.13243  24301227.328                    24301238.359
 106095378.378 7  82671753.93946  20189279.539                    20189286.586
 105672881.481 8  82342528.01846  20108881.313                    20108887.258
 11  8  1 17  4 30.0000000  0 10G16G06G03G19G08G07G10G20G13G23
 118521085.525 7  92354120.35344  22553814.297                    22553821.715
 117172243.522 7  91303079.95344  22297137.148                    22297145.820
 109442998.543 8  85280291.18245  20826310.391                    20826318.813
 113085354.712 7  88118486.95945  21519426.875                    21519433.477
 129708670.774 6 101071761.76243  24682746.695                    24682756.590
 118775849.784 6  92552644.750 7  22602291.477                    22602300.344
 125246124.645 6  97594420.30743  23833545.828                    23833555.934
 127791201.365 6  99577598.31543  24317864.320                    24317874.977
 106065453.199 7  82648435.61446  20183585.484                    20183592.352
 105703083.479 8  82366062.02146  20114629.016                    20114634.457
 11  8  1 17  5  0.0000000  0 10G16G06G03G19G08G07G10G20G13G23
 118609289.165 6  92422850.42144  22570598.719                    22570605.820
 117213561.372 7  91335275.65644  22304999.266                    22305008.195
 109455823.461 8  85290284.61045  20828751.063                    20828759.234
 113028140.151 7  88073904.23045  21508539.117                    21508545.641
 129643005.422 6 101020594.04443  24670250.930                    24670261.289
 118718386.488 7  92507868.160 7  22591356.734                    22591364.961
 125241332.235 6  97590685.92443  23832634.352                    23832643.945
 127878540.198 6  99645654.32343  24334484.281                    24334495.895
 106036041.273 7  82625517.21546  20177988.094                    20177995.348
 105733847.785 8  82390034.18246  20120483.305                    20120488.801
 11  8  1 17  5 30.0000000  0 10G16G06G03G19G08G07G10G20G13G23
 118697598.795 7  92491663.07644  22587403.305                    22587410.809
 117255398.831 7  91367876.24644  22312961.148                    22312969.594
 109469280.176 8  85300770.35645  20831312.266                    20831319.848
 112971395.941 7  88029687.99545  21497741.258                    21497747.539
 129577286.890 6 100969384.87343  24657744.711                    24657754.988
 118660943.999 7  92463107.802 7  22580426.648                    22580434.559
 125237040.558 6  97587341.73043  23831817.070                    23831827.473
 127965788.949 6  99713640.12143  24351086.836                    24351098.574
 106007144.467 7  82603000.22146  20172489.313                    20172496.449
 105765173.732 8  82414443.99246  20126444.578                    20126450.023
 11  8  1 17  6  0.0000000  0 10G16G06G03G19G08G07G10G20G13G23
 118786012.511 7  92560556.84844  22604228.016                    22604235.746
 117297754.375 7  91400880.54144  22321021.227                    22321029.391
 109483367.825 8  85311747.74645  20833992.750                    20834000.785
 112915124.653 7  87985840.27045  21487032.680                    21487039.680
 129511515.102 6 100918134.23642  24645228.461                    24645238.172
 118603522.566 7  92418363.884 7  22569498.914                    22569507.461
 125233248.569 6  97584386.90343  23831095.266                    23831105.680
 128052944.937 6  99781553.67043  24367672.094                    24367684.000
 105978764.319 7  82580885.81046  20167089.141                    20167096.152
 105797061.031 8  82439291.21146  20132512.508                    20132518.207
 11  8  1 17  6 30.0000000  0 10G16G06G03G19G08G07G10G20G13G23
 118874527.690 7  92629529.67844  22621071.352                    22621079.426
 117340626.549 7  91434287.41044  22329179.492                    22329188.328
 109498086.334 8  85323216.71645  20836793.578                    20836801.594
 112859328.427 7  87942362.71845  21476415.297                    21476421.859
 129445689.258 6 100866841.43742  24632701.742                    24632712.086
 118546121.981 7  92373636.189 7  22558575.898                    22558584.379
 125229955.702 6  97581821.01243  23830468.781                    23830478.902
 128140005.389 6  99849392.76743  24384239.969                    24384250.906
 105950902.175 7  82559175.04446  20161786.734                    20161794.223
 105829509.085 8  82464575.38346  20138687.023                    20138692.145
 11  8  1 17  7  0.0000000  0 10G16G06G03G19G08G07G10G20G13G23
 118963142.517 7  92698580.13744  22637934.586                    22637942.512
 117384014.389 7  91468096.08644  22337435.984                    22337445.016
 109513435.774 8  85335177.32245  20839714.211                    20839722.496
 112804010.243 7  87899257.67645  21465888.242                    21465895.035
 129379809.496 6 100815506.67042  24620165.914                    24620175.605
 118488743.106 7  92328925.412 7  22547657.383                    22547665.188
 125227161.341 6  97579643.61643  23829937.992                    23829947.277
 128226967.925 6  99917155.54243  24400788.641                    24400799.621
 105923560.360 8  82537869.73446  20156583.906                    20156591.316
 105862517.783 8  82490296.42346  20144968.273                    20144974.016
 11  8  1 17  7 30.0000000  0 10G16G06G03G19G08G07G10G20G13G23
 119051855.169 7  92767706.84844  22654815.906                    22654823.824
 117427916.791 7  91502305.72045  22345790.766                    22345798.859
 109529415.644 7  85347629.16845  20842755.508                    20842763.641
 112749172.827 7  87856527.24346  21455453.203                    21455459.770
 129313875.392 6 100764129.51342  24607618.828                    24607628.641
 118431386.207 7  92284231.755 7  22536742.609                    22536750.496
 125224864.603 6  97577853.91943  23829501.141                    23829510.391
 128313830.281 6  99984840.27042  24417317.922                    24417329.508
 105896740.933 8  82516971.46746  20151480.789                    20151487.379
 105896087.097 8  82516454.31546  20151356.305                    20151361.762
 11  8  1 17  8  0.0000000  0 10G16G06G03G19G08G07G10G20G13G23
 119140662.892 7  92836907.62244  22671716.398                    22671722.711
 117472332.140 7  91536915.06845  22354241.898                    22354251.320
 109546025.495 8  85360571.91645  20845916.398                    20845923.945
 112694818.599 7  87814173.33545  21445110.031                    21445116.398
 129247886.619 6 100712709.75942  24595061.727                    24595071.426
 118374051.535 7  92239555.411 7  22525832.297                    22525840.426
 125223064.700 6  97576451.35943  23829158.258                    23829167.652
 128400590.000 6 100052445.08342  24433827.578                    24433840.418
 105870445.387 7  82496481.42346  20146476.578                    20146483.836
 105930216.396 8  82543048.54046  20157850.977                    20157856.859
 11  8  1 17  8 30.0000000  0 10G16G06G03G19G08G07G10G20G13G23
 119229563.659 7  92906180.91644  22688633.617                    22688640.746
 117517259.228 7  91571923.14844  22362791.797                    22362799.930
 109563264.856 8  85374005.19345  20849196.281                    20849204.238
 112640950.199 7  87772197.98545  21434859.109                    21434865.504
 129181843.198 6 100661247.37142  24582494.313                    24582503.621
 118316739.419 7  92194896.666 7  22514925.922                    22514934.234
 125221761.144 6  97575435.55343  23828910.180                    23828919.898
 128487244.777 5 100119968.01042  24450318.664                    24450330.773
 105844675.733 7  82476401.17346  20141572.617                    20141579.910
 105964905.643 8  82570079.09846  20164452.367                    20164457.555
 11  8  1 17  9  0.0000000  0 10G16G06G03G19G08G07G10G20G13G23
 119318556.086 7  92975525.62644  22705567.977                    22705574.969
 117562696.780 7  91607329.00144  22371438.180                    22371446.406
 109581133.246 8  85387928.61145  20852596.594                    20852605.043
 112587569.964 7  87730603.02745  21424701.086                    21424707.676
 129115744.685 6 100609742.11542  24569915.789                    24569925.051
 118259450.319 7  92150255.829 7  22504024.281                    22504032.617
 125220953.101 6  97574805.93143  23828755.938                    23828766.102
 128573791.961 5 100187407.13243  24466787.953                    24466799.922
 105819433.739 7  82456732.08246  20136769.180                    20136776.348
 106000154.209 8  82597545.48546  20171159.953                    20171165.320
 11  8  1 17  9 30.0000000  0 10G16G06G03G19G08G07G10G20G13G23
 119407636.946 7  93044939.25244  22722519.797                    22722527.043
 117608643.302 7  91643131.45344  22380181.359                    22380190.141
 109599630.389 8  85402341.97645  20856116.547                    20856124.949
 112534680.594 7  87689390.55345  21414636.391                    21414643.449
 129049590.999 6 100558193.83842  24557327.070                    24557336.379
 118202184.355 7  92105633.023 7  22493126.953                    22493134.762
 125220639.571 6  97574561.57343  23828696.164                    23828706.320
 128660228.901 6 100254760.31742  24483236.203                    24483248.828
 105794720.915 8  82437475.33346  20132066.344                    20132074.023
 106035961.244 8  82625447.04146  20177973.578                    20177979.590
 11  8  1 17 10  0.0000000  0 10G16G06G03G19G08G07G10G20G13G23
 119496804.326 7  93114420.28144  22739487.500                    22739495.258
 117655097.130 7  91679329.22744  22389021.297                    22389030.004
 109618755.667 8  85417244.78445  20859756.383                    20859763.902
 112482284.442 7  87648562.40845  21404666.023                    21404672.566
 128983381.749 6 100506602.29942  24544727.461                    24544737.500
 118144941.941 7  92061028.590 6  22482233.828                    22482241.352
 125220819.682 6  97574701.89043  23828731.727                    23828740.887
 128746552.762 5 100322025.41042  24499663.453                    24499675.676
 105770538.875 8  82418632.17446  20127465.180                    20127472.055
 106072326.637 8  82653783.67946  20184893.984                    20184899.430
 11  8  1 17 10 30.0000000  0 10G16G06G03G19G08G07G10G20G13G23
 119586056.404 7  93183967.32344  22756472.063                    22756479.223
 117702056.941 7  91715921.25844  22397957.906                    22397966.578
 109638508.363 8  85432636.49445  20863515.031                    20863523.242
 112430384.012 7  87608120.54745  21394789.344                    21394795.871
 128917116.714 6 100454967.23442  24532117.539                    24532127.566
 118087723.480 7  92016442.797 6  22471345.414                    22471353.035
 125221492.399 6  97575226.05443  23828858.469                    23828869.070
 128832761.638 6 100389200.94442  24516068.039                    24516080.766
 105746889.479 8  82400204.06946  20122964.367                    20122971.629
 106109249.836 8  82682554.97646  20191920.250                    20191925.570
 11  8  1 17 11  0.0000000  0 10G16G06G03G19G08G07G10G20G13G23
 119675390.921 7  93253578.58044  22773471.766                    22773478.590
 117749521.434 7  91752906.56244  22406989.555                    22406998.398
 109658888.034 7  85448516.74445  20867392.805                    20867401.348
 112378981.967 7  87568067.03345  21385008.156                    21385014.641
 128850795.594 6 100403288.48642  24519497.344                    24519507.488
 118030529.434 7  91971876.023 7  22460461.750                    22460469.801
 125222657.060 6  97576133.55743  23829080.125                    23829090.988
 128918852.834 6 100456284.70642  24532451.547                    24532463.773
 105723774.425 8  82382192.33346  20118565.945                    20118573.156
 106146730.257 8  82711760.46946  20199052.398                    20199058.223
 11  8  1 17 11 30.0000000  0 10G16G06G03G19G08G07G10G20G13G23
 119764805.927 7  93323252.57444  22790486.539                    22790494.082
 117797489.170 7  91790283.99344  22416117.531                    22416126.594
 109679894.391 7  85464885.32245  20871390.508                    20871398.301
 112328080.632 7  87528403.67645  21375321.828                    21375328.094
 128784418.242 6 100351565.96942  24506865.484                    24506876.418
 117973360.163 7  91927328.565 7  22449583.000                    22449590.770
 125224312.942 6  97577423.84643  23829395.539                    23829405.855
 129004824.336 6 100523275.24943  24548810.758                    24548823.574
 105701195.468 8  82364598.34146  20114269.570                    20114276.734
 106184767.769 8  82741400.06146  20206290.422                    20206296.242
 11  8  1 17 12  0.0000000  0 10G16G06G03G19G08G07G10G20G13G23
 119854299.345 7  93392987.64944  22807516.727                    22807523.875
 117845958.890 7  91828052.58144  22425341.359                    22425350.012
 109701526.480 7  85481741.49045  20875506.383                    20875515.293
 112277682.281 7  87489132.26045  21365731.094                    21365738.020
 128717984.841 6 100299799.73242  24494224.273                    24494234.082
 117916215.916 7  91882800.610 7  22438708.320                    22438716.879
 125226459.107 6  97579096.13943  23829804.555                    23829814.188
 129090673.477 6 100590170.44543  24565148.016                    24565160.520
 105679154.210 8  82347423.33546  20110074.461                    20110082.434
 106223361.575 8  82771473.12046  20213634.844                    20213640.145
 11  8  1 17 12 30.0000000  0 10G16G06G03G19G08G07G10G20G13G23
 119943868.845 7  93462782.02044  22824560.750                    22824568.648
 117894928.679 7  91866210.82844  22434660.188                    22434668.820
 109723783.673 8  85499084.73645  20879742.227                    20879750.016
 112227789.371 7  87450254.69845  21356236.797                    21356243.605
 128651494.818 6 100247989.40043  24481571.648                    24481580.652
 117859097.283 7  91838292.612 7  22427839.563                    22427847.203
 125229094.233 6  97581149.46343  23830305.031                    23830316.145
 129176397.774 6 100656968.37143  24581461.102                    24581473.887
 105657652.018 7  82330668.38146  20105983.031                    20105990.527
 106262510.965 8  82801979.11446  20221084.766                    20221090.504
 11  8  1 17 13  0.0000000  0 10G16G06G03G19G08G07G10G20G13G23
 120033512.422 7  93532634.11444  22841619.844                    22841627.398
 117944396.871 7  91904757.45344  22444073.336                    22444081.934
 109746664.945 7  85516914.29345  20884096.555                    20884104.926
 112178404.196 7  87411772.76345  21346839.367                    21346845.762
 128584947.822 6 100196134.68543  24468908.367                    24468917.848
 117802004.404 7  91793804.677 6  22416974.984                    22416982.691
 125232217.387 6  97583583.09543  23830900.492                    23830909.934
 129261994.421 6 100723666.84543  24597748.844                    24597762.520
 105636690.617 7  82314334.82946  20101994.383                    20102001.875
 106302214.930 8  82832917.23546  20228640.648                    20228646.063
 11  8  1 17 13 30.0000000  0 10G16G06G03G19G08G07G10G20G13G23
 120123228.170 7  93602542.43544  22858692.516                    22858699.754
 117994362.408 7  91943691.63444  22453581.141                    22453590.273
 109770170.142 7  85535230.02045  20888569.258                    20888577.285
 112129529.268 7  87373688.44345  21337539.031                    21337545.086
 128518343.980 6 100144235.64343  24456234.422                    24456243.645
 117744938.202 7  91749337.525 7  22406116.117                    22406122.992
 125235828.046 6  97586396.55243  23831586.813                    23831597.363
 129347461.699 6 100790264.50643  24614013.227                    24614026.438
 105616271.767 7  82298424.03646  20098109.172                    20098116.430
 106342473.639 8  82864287.62546  20236301.133                    20236307.066
 11  8  1 17 14  0.0000000  0 10G16G06G03G19G08G07G10G20G13G23
 120213013.895 7  93672505.29944  22875778.070                    22875785.398
 118044823.609 7  91983012.00144  22463184.195                    22463192.789
 109794298.393 7  85554031.24545  20893160.625                    20893168.922
 112081166.861 7  87336003.48245  21328335.781                    21328342.082
 128451682.762 6 100092291.87943  24443548.797                    24443558.250
 117687898.503 7  91704891.034 7  22395261.320                    22395268.898
 125239924.690 6  97589588.72143  23832366.477                    23832377.145
 129432796.998 6 100856759.26643  24630252.539                    24630265.398
 105596396.928 8  82282937.15746  20094326.641                    20094334.121
 106383285.949 8  82896089.39446  20244067.594                    20244073.109
 11  8  1 17 14 30.0000000  0 10G16G06G03G19G08G07G10G20G13G23
 120302867.747 7  93742521.22544  22892876.258                    22892884.441
 118095778.785 7  92022717.30544  22472880.602                    22472889.063
 109819049.101 7  85573317.49645  20897870.883                    20897878.969
 112033319.329 7  87298719.71245  21319230.500                    21319236.996
 128384964.178 6 100040303.43943  24430852.547                    24430861.816
 117630886.109 7  91660465.826 7  22384412.563                    22384419.809
 125244506.435 6  97593158.84843  23833238.617                    23833249.117
 129517997.821 6 100923149.25643  24646466.172                    24646478.813
 105577067.632 8  82267875.37346  20090648.703                    20090655.832
 106424651.198 8  82928322.02146  20251939.195                    20251944.891
 11  8  1 17 15  0.0000000  0 10G16G06G03G19G08G07G10G20G13G23
 120392787.204 7  93812588.27944  22909987.039                    22909995.379
 118147226.038 7  92062806.04444  22482670.578                    22482679.137
 109844420.923 7  85593087.74045  20902698.797                    20902707.094
 111985988.651 7  87261838.69545  21310223.789                    21310230.324
 128318187.732 6  99988269.88443  24418145.523                    24418155.293
 117573901.101 7  91616061.922 7  22373568.328                    22373575.820
 125249572.012 6  97597106.01543  23834202.430                    23834212.379
 129603061.709 6 100989432.49643  24662653.406                    24662666.418
 105558284.946 8  82253239.51946  20087074.508                    20087081.496
 106466568.415 8  82960984.74646  20259915.789                    20259921.418
 11  8  1 17 15 30.0000000  0 10G16G06G03G19G08G07G10G20G13G23
 120482770.737 7  93882705.28344  22927111.664                    22927118.598
 118199164.301 7  92103277.40044  22492554.109                    22492562.875
 109870413.557 7  85613341.74045  20907645.359                    20907653.059
 111939177.463 7  87225362.47245  21301315.883                    21301322.445
 128251353.738 6  99936191.51643  24405426.656                    24405436.996
 117516944.431 7  91571680.118 7  22362729.977                    22362737.438
 125255120.724 6  97601429.63043  23835258.531                    23835268.602
 129687986.575 6 101055607.48543  24678813.820                    24678826.848
 105540051.047 8  82239031.29446  20083604.969                    20083611.949
 106509037.359 8  82994077.39946  20267997.523                    20268002.754
 11  8  1 17 16  0.0000000  0 10G16G06G03G19G08G07G10G20G13G23
 120572816.005 7  93952870.35844  22944246.117                    22944253.965
 118251591.777 7  92144129.95444  22502530.594                    22502539.609
 109897026.171 7  85634078.84945  20912708.930                    20912717.063
 111892887.783 7  87189292.62645  21292507.000                    21292513.664
 128184461.969 6  99884068.12843  24392697.961                    24392707.988
 117460016.406 7  91527320.616 7  22351897.047                    22351905.020
 125261151.332 6  97606128.75443  23836406.422                    23836416.648
 129772769.837 6 101121672.07342  24694947.758                    24694960.906
 105522367.054 8  82225251.56146  20080239.367                    20080246.664
 106552057.096 8  83027599.24246  20276183.836                    20276189.625
 11  8  1 17 16 30.0000000  0 10G16G06G03G19G08G07G10G20G13G23
 120662920.983 7  94023081.97544  22961392.766                    22961399.988
 118304506.458 7  92185362.16144  22512599.789                    22512608.551
 109924257.614 7  85655298.15645  20917891.539                    20917899.438
 111847121.931 7  87153630.95745  21283798.070                    21283804.875
 128117511.749 6  99831899.21143  24379957.773                    24379967.793
 117403117.067 7  91482983.484 7  22341069.406                    22341077.340
 125267662.299 6  97611202.22843  23837645.180                    23837655.414
 129857409.076 6 101187624.51142  24711053.734                    24711067.758
 105505234.168 8  82211901.26146  20076979.188                    20076986.305
 106595626.540 8  83061549.42646  20284474.992                    20284480.613
 11  8  1 17 17  0.0000000  0 10G16G06G03G19G08G07G10G20G13G23
 120753084.070 7  94093338.87344  22978549.500                    22978557.398
 118357907.139 7  92226973.07144  22522761.617                    22522770.965
 109952107.111 7  85676999.06745  20923190.625                    20923199.270
 111801882.344 7  87118379.36745  21275189.531                    21275195.738
 128050503.517 6  99779685.10543  24367207.063                    24367216.395
 117346247.412 7  91438669.509 7  22330246.898                    22330255.398
 125274652.878 6  97616649.35943  23838975.000                    23838985.863
 129941902.487 5 101253463.23042  24727132.031                    24727146.273
 105488654.431 7  82198981.99446  20073824.070                    20073831.324
 106639745.494 8  83095927.80246  20292870.219                    20292876.027
 11  8  1 17 17 30.0000000  0 10G16G06G03G19G08G07G10G20G13G23
 120843303.068 7  94163639.33444  22995718.547                    22995725.895
 118411791.979 7  92268961.22544  22533015.906                    22533024.582
 109980573.684 7  85699180.81045  20928607.758                    20928615.887
 111757171.005 7  87083539.39446  21266681.125                    21266687.383
 127983436.736 6  99727425.34543  24354442.805                    24354453.965
 117289407.695 7  91394378.826 7  22319431.633                    22319438.605
 125282121.958 6  97622469.42243  23840396.359                    23840406.766
 130026247.363 5 101319186.22442  24743183.672                    24743197.723
 105472629.090 8  82186494.71946  20070774.938                    20070781.965
 106684412.847 8  83130733.49846  20301370.203                    20301375.723
 11  8  1 17 18  0.0000000  0 10G16G06G03G19G08G07G10G20G13G23
 120933576.250 7  94233982.02144  23012896.813                    23012904.566
 118466159.478 7  92311325.49544  22543361.328                    22543370.469
 110009656.617 7  85721842.84545  20934142.289                    20934150.430
 111712990.230 7  87049112.85446  21258273.742                    21258280.125
 127916311.858 6  99675120.34143  24341670.797                    24341681.203
 117232598.743 7  91350112.124 7  22308620.438                    22308628.488
 125290068.609 6  97628661.56443  23841909.055                    23841919.129
 130110441.46915                  24759205.828
 105457159.494 8  82174440.48446  20067830.852                    20067838.148
 106729627.718 8  83165965.83346  20309974.438                    20309980.328
 11  8  1 17 18 30.0000000  0 10G16G06G03G19G08G07G10G20G13G23
 121023901.094 7  94304364.96644  23030085.469                    23030092.094
 118521007.280 7  92354064.04144  22553798.695                    22553807.262
 110039354.406 7  85744983.97245  20939793.414                    20939801.324
 111669341.609 7  87015100.97445  21249967.430                    21249973.746
 127849128.195 6  99622769.47943  24328885.563                    24328896.113
 117175820.484 7  91305869.361 7  22297815.758                    22297824.484
 125298490.918 6  97635224.36143  23843511.273                    23843522.109
 130194482.245 5                  24775197.961
 105442246.453 8  82162819.93846  20064992.906                    20065000.336
 106775388.662 8  83201623.68446  20318682.375                    20318688.000
 11  8  1 17 19  0.0000000  0  9G16G06G03G19G08G07G10G13G23
 121114276.443 7  94374787.29244  23047283.039                    23047290.359
 118576334.570 7  92397176.19644  22564327.242                    22564335.941
 110069666.666 7  85768603.90845  20945561.961                    20945569.371
 111626228.150 7  86981506.11845  21241763.352                    21241769.855
 127781886.150 6  99570373.16743  24316089.680                    24316100.281
 117119074.250 7  91261651.541 7  22287017.367                    22287025.375
 125307388.387 6  97642157.42243  23845204.688                    23845214.914
 105427892.271 8  82151634.85746  20062261.508                    20062268.793
 106821695.899 8  83237707.21046  20327494.406                    20327500.234
 11  8  1 17 19 30.0000000  0  9G16G06G03G19G08G07G10G13G23
 121204700.104 7  94445247.24244  23064490.109                    23064497.824
 118632139.470 7  92440660.51344  22574946.805                    22574955.129
 110100592.476 7  85792701.93445  20951446.641                    20951454.457
 111583651.883 7  86948329.83145  21233661.438                    21233668.070
 127714585.585 6  99517931.26943  24303282.883                    24303293.504
 117062360.330 7  91217458.892 7  22276225.422                    22276233.371
 125316759.834 6  97649459.76843  23846987.922                    23846998.805
 105414098.350 7  82140886.34446  20059636.617                    20059643.816
 106868548.384 8  83274215.61046  20336409.805                    20336415.918
 11  8  1 17 20  0.0000000  0  9G16G06G03G19G08G07G10G13G23
 121295169.686 6  94515742.97944  23081705.570                    23081713.105
 118688419.712 7  92484515.22644  22585656.484                    22585665.148
 110132130.314 7  85817276.86545  20957448.188                    20957455.859
 111541614.144 7  86915573.18745  21225661.664                    21225668.422
 127647225.874 6  99465443.26343  24290464.492                    24290474.801
 117005678.728 7  91173291.436 7  22265439.016                    22265446.922
 125326603.398 6  97657130.04543  23848861.297                    23848872.141
 105400865.221 8  82130574.81246  20057118.711                    20057125.465
 106915944.548 8  83311147.65646  20345429.211                    20345434.996
 11  8  1 17 20 30.0000000  0  9G16G06G03G19G08G07G10G13G23
 121385683.681 7  94586273.31644  23098930.039                    23098937.695
 118745173.625 7  92528739.05044  22596456.625                    22596464.996
 110164279.350 7  85842328.05445  20963566.102                    20963574.180
 111500117.595 7  86883238.24746  21217765.266                    21217771.672
 127579807.135 6  99412909.24943  24277635.344                    24277645.781
 116949030.413 7  91129149.914 7  22254659.195                    22254666.820
 125336917.994 6  97665167.34843  23850824.102                    23850834.480
 105388194.603 7  82120701.59946  20054707.617                    20054714.355
 106963883.576 8  83348502.71746  20354551.695                    20354557.680
 11  8  1 17 21  0.0000000  0  9G16G06G03G19G08G07G10G13G23
 121476240.090 6  94656836.70343  23116162.047                    23116169.566
 118802399.447 7  92573330.57044  22607346.250                    22607354.867
 110197038.352 7  85867854.52645  20969799.891                    20969807.820
 111459163.886 7  86851326.28846  21209972.391                    21209979.219
 127512329.120 6  99360329.04143  24264794.516                    24264805.043
 116892416.173 7  91085034.945 7  22243886.055                    22243893.816
 125347702.321 6  97673570.68143  23852876.875                    23852887.230
 105376087.668 8  82111267.62746  20052403.422                    20052410.930
 107012364.388 8  83386279.93446  20363778.016                    20363783.695
 11  8  1 17 21 30.0000000  0  9G16G06G03G19G08G07G10G13G23
 121566837.523 7  94727432.06743  23133402.492                    23133410.047
 118860095.817 7  92618288.76344  22618324.984                    22618334.059
 110230406.421 7  85893855.60645  20976149.313                    20976157.547
 111418755.729 7  86819839.45145  21202282.828                    21202289.070
 127444792.573 6  99307703.21843  24251942.680                    24251952.711
 116835836.139 7  91040946.635 7  22233118.953                    22233126.492
 125358955.428 6  97682339.29143  23855018.055                    23855028.461
 105364546.140 8  82102274.22346  20050207.281                    20050214.316
 107061386.471 8  83424478.92946  20373106.328                    20373112.168
 11  8  1 17 22  0.0000000  0  9G16G06G03G19G08G07G10G13G23
 121657472.953 6  94798057.05344  23150650.086                    23150657.180
 118918260.075 7  92663611.53844  22629393.398                    22629402.438
 110264381.345 7  85920329.55445  20982614.602                    20982622.680
 111378894.280 7  86788778.60146  21194696.930                    21194703.371
 127377196.075 6  99255030.70343  24239079.117                    24239089.426
 116779290.546 7  90996885.152 7  22222358.180                    22222365.906
 125370675.029 6  97691471.39543  23857247.547                    23857258.301
 105353569.906 8  82093721.31646  20048118.500                    20048125.832
 107110947.975 8  83463098.25046  20382537.320                    20382543.094
 11  8  1 17 22 30.0000000  0  9G16G06G03G19G08G07G10G13G23
 121748144.749 6  94868710.37244  23167904.055                    23167911.559
 118976890.372 7  92709297.45944  22640550.930                    22640559.730
 110298962.315 7  85947275.74545  20989195.484                    20989203.457
 111339581.179 7  86758145.03846  21187216.344                    21187222.918
 127309539.790 6  99202311.58143  24226204.953                    24226214.980
 116722780.056 7  90952851.015 7  22211605.203                    22211612.695
 125382859.738 6  97700965.91343  23859566.586                    23859577.246
 105343160.288 8  82085609.90946  20046137.938                    20046144.852
 107161047.719 8  83502136.98046  20392071.336                    20392077.273
 11  8  1 17 23  0.0000000  0  9G16G06G03G19G08G07G10G13G23
 121838851.156 6  94939390.63844  23185165.969                    23185172.984
 119035985.130 7  92755345.31344  22651795.969                    22651804.777
 110334148.083 7  85974693.21045  20995891.031                    20995899.340
 111300819.042 7  86727940.79745  21179840.117                    21179846.484
 127241823.922 6  99149545.96843  24213319.109                    24213328.469
 116666305.591 7  90908844.971 7  22200858.367                    22200866.277
 125395509.036 6  97710822.45843  23861973.781                    23861984.785
 105333319.303 8  82077941.60546  20044265.094                    20044271.816
 107211685.133 8  83541594.67246  20401707.180                    20401713.074
 11  8  1 17 23 30.0000000  0  9G16G06G03G19G08G07G10G13G23
 121929591.091 6  95010097.05744  23202432.391                    23202439.824
 119095543.207 7  92801754.18444  22663129.766                    22663138.715
 110369938.594 7  86002581.90045  21002701.477                    21002709.848
 111262610.356 7  86698167.80946  21172568.820                    21172575.707
 127174049.423 6  99096734.74843  24200421.219                    24200431.652
 116609868.449 7  90864868.003 7  22190118.906                    22190126.383
 125408621.573 6  97721040.00043  23864468.461                    23864479.922
 105324048.739 8  82070717.78046  20042500.648                    20042507.777
 107262859.700 8  83581470.93046  20411445.617                    20411451.398
 11  8  1 17 24  0.0000000  0  9G16G06G03G19G08G07G10G13G23
 122020362.054 6  95080827.64244  23219705.750                    23219713.012
 119155561.784 7  92848521.87844  22674550.523                    22674559.250
 110406331.403 7  86030939.93145  21009626.852                    21009635.098
 111224956.040 8  86668826.79845  21165403.734                    21165409.941
 127106215.226 6  99043876.96843  24187513.523                    24187523.020
 116553468.137 7  90820919.725 7  22179385.953                    22179393.570
 125422195.142 6  97731616.77343  23867051.922                    23867062.750
 105315348.521 8  82063938.37946  20040845.195                    20040852.246
 107314569.395 8  83621764.16546  20421285.336                    20421290.965
 11  8  1 17 24 30.0000000  0  9G16G06G03G19G08G07G10G13G23
 122111162.386 6  95151581.11844  23236984.367                    23236991.680
 119216039.434 7  92895647.29844  22686059.586                    22686068.008
 110443326.005 7  86059766.88245  21016666.672                    21016675.152
 111187858.426 7  86639919.57845  21158343.883                    21158350.559
 127038321.656 6  98990972.91143  24174593.359                    24174603.496
 116497105.784 7  90777001.036 7  22168660.695                    22168668.391
 125436228.871 6  97742552.08843  23869722.656                    23869733.543
 105307220.279 8  82057604.67346  20039298.664                    20039305.520
 107366813.374 8  83662473.72846  20431226.930                    20431233.027
 11  8  1 17 25  0.0000000  0  9G16G06G03G19G08G07G10G13G23
 122201990.072 7  95222355.90044  23254267.852                    23254275.848
 119276973.995 7  92943128.76144  22697654.820                    22697663.738
 110480920.510 7  86089061.29745  21023820.727                    21023828.922
 111151319.299 7  86611447.53845  21151390.828                    21151397.336
 126970368.162 6  98938022.21343  24161662.195                    24161672.270
 116440781.881 7  90733112.295 7  22157942.750                    22157950.141
 125450720.938 6  97753844.55743  23872480.977                    23872490.992
 105299664.788 8  82051717.25746  20037860.859                    20037868.270
 107419590.397 8  83703598.64646  20441270.492                    20441276.441
 11  8  1 17 25 30.0000000  0  9G16G06G03G19G08G07G10G13G23
 122292843.438 7  95293150.67444  23271556.609                    23271564.762
 119338363.496 7  92990964.70044  22709336.758                    22709345.375
 110519113.278 8  86118821.90245  21031088.727                    21031096.672
 111115340.266 7  86583411.94145  21144544.531                    21144551.078
 126902354.649 6  98885024.74443  24148719.250                    24148729.086
 116384497.181 7  90689254.109 7  22147231.891                    22147239.805
 125465669.943 6  97765493.08443  23875325.328                    23875335.910
 105292683.183 8  82046277.04046  20036532.094                    20036539.625
 107472899.223 8  83745137.96046  20451414.617                    20451420.445
 11  8  1 17 26  0.0000000  0  9G16G06G03G19G08G07G10G13G23
 122383720.723 6  95363964.10644  23288850.688                    23288857.863
 119400206.131 7  93039153.75444  22721105.164                    22721114.039
 110557903.200 7  86149047.81145  21038470.070                    21038478.121
 111079923.362 7  86555814.36246  21137804.930                    21137811.543
 126834281.763 6  98831980.98243  24135765.953                    24135775.836
 116328251.945 7  90645426.687 7  22136528.477                    22136536.383
 125481074.619 6  97777496.68343  23878257.086                    23878267.289
 105286276.576 8  82041284.86546  20035312.938                    20035320.164
 107526738.760 8  83787090.81746  20461660.266                    20461666.094
 11  8  1 17 26 30.0000000  0  9G16G06G03G19G08G07G10G13G23
 122474619.535 6  95434794.28644  23306147.680                    23306156.125
 119462499.386 7  93087693.92144  22732959.617                    22732967.578
 110597288.711 7  86179737.82545  21045964.797                    21045973.168
 111045070.303 7  86528656.13746  21131172.641                    21131179.320
 126766148.946 6  98778890.52743  24122800.227                    24122809.758
 116272046.884 7  90601630.547 7  22125833.688                    22125840.746
 125496932.821 6  97789853.67543  23881274.164                    23881284.914
 105280445.723 8  82036741.33346  20034203.633                    20034211.070
 107581107.330 8  83829455.90146  20472005.641                    20472011.809
 11  8  1 17 27  0.0000000  0  9G16G06G03G19G08G07G10G13G23
 122565539.268 6  95505640.79044  23323448.953                    23323457.289
 119525242.472 7  93136584.61444  22744898.961                    22744907.094
 110637269.139 7  86210891.40245  21053573.008                    21053580.813
 111010783.147 7  86501938.90346  21124647.742                    21124653.957
 126697957.251 6  98725754.21343  24109823.781                    24109833.516
 116215883.717 7  90557867.060 7  22115146.031                    22115153.277
 125513243.790 6  97802563.48743  23884378.633                    23884389.152
 105275192.573 8  82032647.95946  20033203.836                    20033210.563
 107636004.620 8  83872232.98046  20482452.594                    20482458.672
 11  8  1 17 27 30.0000000  0  9G16G06G03G19G08G07G10G13G23
 122656477.986 6  95576502.05843  23340754.383                    23340762.324
 119588432.944 7  93185823.93044  22756924.086                    22756931.918
 110677843.000 7  86242507.38945  21061293.977                    21061302.168
 110977063.379 7  86475663.77546  21118231.148                    21118237.602
 126629705.895 6  98672571.39943  24096836.844                    24096846.133
 116159762.339 7  90514136.145 7  22104466.219                    22104473.867
 125530006.074 6  97815624.95543  23887567.969                    23887578.707
 105270517.497 7  82029005.03046  20032314.461                    20032321.410
 107691428.878 8  83915420.68446  20492999.539                    20493004.969
 11  8  1 17 28  0.0000000  0  9G16G06G03G19G08G07G10G13G23
 122747433.604 6  95647376.52144  23358062.992                    23358070.781
 119652068.601 7  93235410.13044  22769032.828                    22769041.641
 110719008.236 7  86274584.19645  21069127.508                    21069135.746
 110943912.856 7  86449832.22845  21111922.750                    21111928.875
 126561394.875 6  98619342.07343  24083836.750                    24083846.934
 116103683.498 7  90470438.371 7  22093795.219                    22093802.168
 125547217.462 6  97829036.36443  23890842.555                    23890853.602
 105266421.495 8  82025813.34146  20031534.547                    20031542.000
 107747378.699 8  83959017.91346  20503646.914                    20503652.289
 11  8  1 17 28 30.0000000  0  9G16G06G03G19G08G07G10G13G23
 122838403.961 6  95718262.46243  23375374.383                    23375381.781
 119716147.073 7  93285341.37344  22781226.852                    22781235.582
 110760763.423 7  86307120.69245  21077073.250                    21077081.809
 110911332.924 7  86424445.28946  21105722.969                    21105729.188
 126493024.063 6  98566066.16043  24070826.813                    24070836.250
 116047647.695 7  90426774.118 7  22083131.422                    22083138.809
 125564876.493 6  97842796.58743  23894204.328                    23894214.000
 105262904.976 8  82023073.18946  20030865.375                    20030872.754
 107803852.504 8  84003023.44346  20514393.648                    20514398.938
 11  8  1 17 29  0.0000000  0 10G28G16G06G03G19G08G07G10G13G23
 129643787.43416                  24670420.969
 122929387.315 6  95789158.50743  23392687.414                    23392695.191
 119780666.497 7  93335616.23344  22793504.125                    22793513.215
 110803106.625 7  86340115.38745  21085130.563                    21085139.152
 110879325.084 7  86399504.13946  21099631.758                    21099638.523
 126424593.687 6  98512743.86143  24057804.414                    24057814.039
 115991655.700 7  90383144.011 7  22072476.648                    22072484.918
 125582981.429 6  97856904.29343  23897648.688                    23897659.813
 105259968.893 8  82020785.32046  20030306.883                    20030313.887
 107860848.884 8  84047436.17346  20525239.188                    20525244.547
 11  8  1 17 29 30.0000000  0 10G28G16G06G03G19G08G07G10G13G23
 129569214.910 5                  24656229.258
 123020382.255 6  95860063.58943  23410003.250                    23410011.000
 119845625.026 7  93386233.25044  22805865.734                    22805874.113
 110846036.927 7  86373567.55945  21093300.156                    21093308.184
 110847891.075 7  86375010.13145  21093650.438                    21093656.703
 126356103.549 6  98459374.99543  24044770.742                    24044781.613
 115935707.993 7  90339548.430 7  22061830.344                    22061837.629
 125601530.620 6  97871358.15243  23901178.148                    23901189.039
 105257614.663 8  82018950.85046  20029859.203                    20029866.238
 107918366.704 8  84092255.22546  20536184.430                    20536190.297
 11  8  1 17 30  0.0000000  0 10G28G16G06G03G19G08G07G10G13G23
 129494849.776 5                  24642078.734
 123111386.932 6  95930976.28744  23427321.313                    23427328.941
 119911019.965 7  93437190.33344  22818309.375                    22818318.691
 110889552.447 7  86407475.73145  21101580.555                    21101588.852
 110817032.420 7  86350964.45746  21087778.266                    21087784.141
 126287553.727 6  98405959.63043  24031726.328                    24031736.578
 115879805.261 7  90295987.879 7  22051192.297                    22051199.313
 125620522.205 6  97886156.73843  23904792.625                    23904803.766
 105255842.542 8  82017569.96446  20029522.031                    20029528.648
 107976404.332 8  84137479.31346  20547228.727                    20547234.531
 11  8  1 17 30 30.0000000  0 10G28G16G06G03G19G08G07G10G13G23
 129420692.924 5                  24627967.406
 123202399.636 6  96001895.21543  23444640.539                    23444648.277
 119976849.728 7  93488486.21244  22830836.906                    22830845.582
 110933651.754 7  86441838.81245  21109972.492                    21109980.824
 110786751.087 7  86327368.64246  21082015.984                    21082022.117
 126218944.276 6  98352497.77443  24018669.523                    24018680.688
 115823948.441 7  90252463.085 7  22040562.398                    22040570.871
 125639954.705 6  97901298.90743  23908490.859                    23908501.613
 105254653.455 7  82016643.40446  20029295.805                    20029302.668
 108034960.515 8  84183107.47645  20558372.031                    20558377.578
 11  8  1 17 31  0.0000000  0 10G28G16G06G03G19G08G07G10G13G23
 129346745.466 5                  24613895.641
 123293419.142 6  96072819.46443  23461960.727                    23461968.316
 120043112.826 7  93540119.77644  22843446.914                    22843455.152
 110978333.779 7  86476655.95845  21118475.438                    21118483.840
 110757048.897 7  86304224.10746  21076363.727                    21076370.391
 126150275.915 6  98298990.03843  24005603.172                    24005613.012
 115768138.791 7  90208975.077 7  22029943.016                    22029950.418
 125659827.151 6  97916783.87043  23912272.281                    23912283.672
 105254049.283 8  82016172.60946  20029180.281                    20029187.480
 108094034.202 8  84229138.87546  20569612.867                    20569618.789
 11  8  1 17 31 30.0000000  0 10G28G16G06G03G19G08G07G10G13G23
 129273007.672 5                  24599862.867
 123384443.783 6  96143747.69643  23479282.336                    23479289.504
 120109807.049 7  93592089.28044  22856137.563                    22856146.879
 111023596.479 7  86511925.58245  21127088.555                    21127097.039
 110727927.321 7  86281532.00446  21070821.703                    21070827.922
 126081548.631 6  98245436.39243  23992524.617                    23992534.516
 115712377.070 7  90165524.402 7  22019331.617                    22019339.668
 125680137.708 6  97932610.22643  23916136.797                    23916148.707
 105254029.957 8  82016157.53346  20029176.875                    20029183.730
 108153623.953 8  84275572.41746  20580952.609                    20580958.500
 11  8  1 17 32  0.0000000  0 10G28G16G06G03G19G08G07G10G13G23
 129199479.739 5                  24585870.016
 123475471.660 6  96214678.45643  23496604.508                    23496611.605
 120176930.010 7  93644392.85744  22868911.180                    22868920.203
 111069438.280 7  86547646.44845  21135812.188                    21135819.781
 110699387.343 7  86259293.09746  21065390.875                    21065397.090
 126012762.212 6  98191836.65543  23979434.836                    23979444.660
 115656663.805 7  90122111.489 7  22008729.289                    22008736.883
 125700884.075 6  97948776.13943  23920084.953                    23920096.613
 105254596.494 7  82016598.98146  20029284.781                    20029291.906
 108213728.358 8  84322406.98546  20592390.289                    20592396.109
 11  8  1 17 32 30.0000000  0 10G28G16G06G03G19G08G07G10G13G23
 129126162.22315                  24571918.164
 123566501.575 6  96285610.79344  23513927.133                    23513933.848
 120244479.742 7  93697029.00444  22881765.156                    22881773.965
 111115857.060 7  86583816.90445  21144644.867                    21144653.516
 110671430.946 7  86237508.92746  21060071.000                    21060077.285
 125943916.875 7  98138190.98243  23966335.180                    23966343.316
 115600999.795 7  90078736.941 7  21998136.656                    21998144.813
 125722064.742 6  97965280.52843  23924116.688                    23924126.898
 105255749.595 7  82017497.49046  20029503.836                    20029510.785
 108274345.364 8  84369640.97346  20603925.305                    20603930.871
 11  8  1 17 33  0.0000000  0 11G28G16G06G11G03G19G08G07G10G13G23
 129053055.316 5                  24558006.508
 123657530.892 6  96356542.66343  23531249.016                    23531257.031
 120312453.650 7  93749995.66744  22894700.828                    22894709.438
 130083087.35216 101363511.77752  24753995.172                    24754006.871
 111162851.365 7  86620435.83145  21153587.977                    21153596.086
 110644059.157 7  86216180.29446  21054862.414                    21054868.453
 125875012.501 6  98084499.26643  23953223.086                    23953231.387
 115545385.261 7  90035400.975 7  21987553.750                    21987561.477
 125743678.110 6  97982122.07343  23928229.070                    23928239.730
 105257489.352 8  82018853.13546  20029835.391                    20029842.414
 108335473.362 8  84417273.14446  20615557.336                    20615563.570
 11  8  1 17 33 30.0000000  0 11G28G16G06G11G03G19G08G07G10G13G23
 128980159.870 5                  24544136.000
 123748558.451 6  96427473.18343  23548571.438                    23548578.891
 120380849.823 7  93803291.37344  22907715.313                    22907724.605
 130007842.701 6 101304879.76642  24739675.773                    24739689.629
 111210419.652 7  86657502.01445  21162639.984                    21162648.621
 110617273.504 7  86195308.38546  21049765.453                    21049771.141
 125806049.370 6  98030761.79943  23940099.016                    23940107.781
 115489821.473 7  89992104.531 7  21976980.695                    21976988.121
 125765722.194 6  97999299.21843  23932424.719                    23932434.598
 105259816.766 7  82020666.68546  20030278.266                    20030285.336
 108397111.242 8  84465302.62046  20627286.820                    20627292.734
 11  8  1 17 34  0.0000000  0 11G28G16G06G11G03G19G08G07G10G13G23
 128907476.007 5                  24530304.414
 123839582.752 6  96498401.13443  23565892.789                    23565900.375
 120449665.985 7  93856914.34644  22920811.109                    22920819.703
 129932455.203 6 101246136.47042  24725330.461                    24725343.359
 111258560.166 7  86695014.07945  21171800.883                    21171808.973
 110591075.083 7  86174894.04845  21044779.898                    21044786.113
 125737027.172 6  97976978.33743  23926964.828                    23926973.289
 115434309.048 7  89948848.111 7  21966417.094                    21966424.980
 125788195.168 6  98016810.55043  23936700.242                    23936710.910
 105262732.469 7  82022938.65546  20030832.898                    20030839.961
 108459256.991 7  84513727.84946  20639112.781                    20639118.676
 11  8  1 17 34 30.0000000  0 11G28G16G06G11G03G19G08G07G10G13G23
 128835004.571 5                  24516512.297
 123930602.716 6  96569325.73443  23583213.273                    23583220.797
 120518900.476 7  93910863.28044  22933985.727                    22933994.500
 129856927.605 6 101187283.98752  24710956.875                    24710971.246
 111307271.149 7  86732970.68245  21181070.281                    21181078.375
 110565466.236 7  86154939.12446  21039906.375                    21039912.410
 125667946.751 6  97923149.46943  23913819.430                    23913827.926
 115378849.398 7  89905632.825 7  21955863.086                    21955871.184
 125811095.535 6  98034654.90243  23941058.242                    23941069.621
 105266237.706 7  82025669.99846  20031500.172                    20031506.930
 108521909.910 7  84562548.25946  20651035.180                    20651040.977
 11  8  1 17 35  0.0000000  0 11G28G16G06G11G03G19G08G07G10G13G23
 128762745.541 5                  24502762.547
 124021615.806 6  96640244.94943  23600532.547                    23600540.699
 120588550.593 7  93965136.07644  22947239.641                    22947248.652
 129781261.428 6 101128323.50842  24696558.078                    24696572.766
 111356550.317 7  86771370.02645  21190448.313                    21190456.422
 110540447.509 7  86135444.02546  21035145.789                    21035152.047
 125598807.578 6  97869274.88843  23900661.805                    23900671.379
 115323442.873 7  89862458.918 7  21945319.680                    21945327.520
 125834420.880 6  98052830.45443  23945496.813                    23945507.906
 105270332.335 7  82028860.60246  20032279.445                    20032286.332
 108585067.571 8  84611761.98945  20663053.742                    20663059.887
 11  8  1 17 35 30.0000000  0 11G28G16G06G11G03G19G08G07G10G13G23
 128690699.478 6                  24489052.930
 124112620.956 6  96711158.01243  23617850.844                    23617858.316
 120658614.396 7  94019731.22444  22960572.398                    22960581.207
 129705459.370 6 101069257.23942  24682133.148                    24682147.617
 111406396.461 7  86810211.16545  21199932.969                    21199941.309
 110516020.395 7  86116409.92946  21030496.953                    21030503.414
 125529610.006 6  97815354.74943  23887494.117                    23887503.340
 115268090.482 7  89819327.208 7  21934786.531                    21934793.742
 125858169.820 6  98071336.07743  23950016.109                    23950026.938
 105275017.132 7  82032511.07546  20033170.609                    20033177.539
 108648728.800 7  84661368.10146  20675168.031                    20675173.945
 11  8  1 17 36  0.0000000  0 11G28G16G06G11G03G19G08G07G10G13G23
 128618866.576 5                  24475383.203
 124203616.223 6  96782063.36043  23635166.492                    23635173.719
 120729089.411 7  94074646.77944  22973983.727                    22973992.238
 129629523.598 6 101010086.73942  24667683.688                    24667697.438
 111456807.304 7  86849492.33145  21209525.977                    21209534.332
 110492186.066 7  86097837.74346  21025961.570                    21025968.191
 125460354.093 7  97761389.14143  23874315.797                    23874324.676
 115212792.642 7  89776238.000 7  21924264.000                    21924271.160
 125882340.288 6  98090170.12643  23954615.883                    23954627.195
 105280292.339 8  82036621.61446  20034174.477                    20034181.895
 108712891.402 8  84711364.88846  20687377.742                    20687384.074
 11  8  1 17 36 30.0000000  0 11G28G16G06G11G03G19G08G07G10G13G23
 128547247.859 6 100166852.50752  24461754.836                    24461768.449
 124294600.292 6  96852959.96843  23652479.680                    23652487.895
 120799973.757 7  94129881.29744  22987472.688                    22987480.957
 129553456.841 6 100950814.16842  24653208.516                    24653221.859
 111507781.269 7  86889212.29545  21219226.055                    21219234.281
 110468945.913 7  86079728.54846  21021539.406                    21021545.160
 125391040.383 6  97707378.50943  23861125.742                    23861134.375
 115157550.461 7  89733192.182 7  21913751.508                    21913758.961
 125906930.337 6  98109331.16243  23959294.641                    23959305.664
 105286159.033 7  82041193.05046  20035291.000                    20035297.867
 108777554.092 8  84761751.36546  20699682.570                    20699689.184
 11  8  1 17 37  0.0000000  0 11G28G16G06G11G03G19G08G07G10G13G23
 128475842.989 5 100111212.44342  24448166.461                    24448180.375
 124385571.816 6  96923846.82443  23669791.141                    23669798.859
 120871264.979 7  94185432.86744  23001038.352                    23001047.207
 129477261.198 6 100891441.18042  24638707.719                    24638722.250
 111559316.405 7  86929369.55945  21229033.539                    21229041.027
 110446301.055 7  86062083.22046  21017230.016                    21017236.461
 125321668.671 6  97653322.67343  23847925.133                    23847932.883
 115102364.845 7  89690190.431 7  21903249.969                    21903257.211
 125931937.996 6  98128817.57843  23964054.164                    23964064.895
 105292617.344 7  82046225.48346  20036519.938                    20036526.895
 108842715.421 8  84812526.37846  20712082.773                    20712088.668
 11  8  1 17 37 30.0000000  0 11G28G16G06G11G03G19G08G07G10G13G23
 128404652.764 5 100055739.72342  24434618.859                    24434632.457
 124476528.877 6  96994722.36843  23687099.969                    23687107.797
 120942961.193 6  94241300.00344  23014681.938                    23014691.172
 129400939.330 6 100831969.87942  24624184.016                    24624198.949
 111611410.913 7  86969962.67545  21238946.563                    21238954.648
 110424253.000 7  86044902.93046  21013034.391                    21013040.645
 125252239.617 6  97599222.15643  23834712.656                    23834721.246
 115047236.769 7  89647233.489 7  21892759.039                    21892766.785
 125957361.637 6  98148628.15643  23968891.984                    23968903.164
 105299668.258 7  82051719.68246  20037861.672                    20037868.809
 108908373.587 8  84863688.55246  20724577.000                    20724583.137
 11  8  1 17 38  0.0000000  0 11G28G16G06G11G03G19G08G07G10G13G23
 128333677.342 6 100000434.36042  24421112.938                    24421125.563
 124567470.233 6  97065585.72643  23704404.859                    23704413.168
 121015060.095 7  94297480.90444  23028401.836                    23028410.500
 129324493.321 6 100772401.75742  24609636.930                    24609651.961
 111664063.144 7  87010990.39345  21248965.461                    21248973.855
 110402803.008 7  86028188.66346  21008952.617                    21008958.473
 125182753.105 6  97545076.88343  23821489.422                    23821498.156
 114992167.073 7  89604322.084 7  21882279.977                    21882287.418
 125983199.514 6  98168761.51243  23973809.375                    23973819.715
 105307311.985 7  82057675.81646  20039315.859                    20039323.254
 108974526.394 8  84915236.14146  20737165.273                    20737171.852
 11  8  1 17 38 30.0000000  0 11G28G16G06G11G03G19G08G07G10G13G23
 128262916.782 5  99945296.40042  24407648.320                    24407660.004
 124658393.981 6  97136435.34143  23721707.586                    23721715.672
 121087558.846 7  94353973.42144  23042198.508                    23042207.145
 129247925.217 6 100712738.54042  24595066.617                    24595081.016
 111717270.382 7  87052450.58145  21259090.813                    21259098.582
 110381951.661 7  86011940.87646  21004985.000                    21004990.797
 125113209.098 6  97490886.82143  23808254.961                    23808264.992
 114937156.380 7  89561456.613 7  21871811.922                    21871818.996
 126009449.153 6  98189215.69543  23978804.547                    23978815.270
 105315548.458 7  82064093.82946  20040883.367                    20040890.848
 109041172.433 8  84967168.08045  20749847.734                    20749853.887
 11  8  1 17 39  0.0000000  0 11G28G16G06G11G03G19G08G07G10G13G23
 128192372.245 5  99890326.79142  24394223.172                    24394236.094
 124749299.195 6  97207270.49043  23739006.344                    23739013.922
 121160456.088 7  94410776.43844  23056069.781                    23056078.480
 129171238.357 6 100652982.78942  24580473.422                    24580487.313
 111771031.451 7  87094342.32745  21269320.688                    21269329.008
 110361700.817 7  85996161.02446  21001131.344                    21001137.359
 125043608.573 7  97436652.73143  23795010.680                    23795020.695
 114882206.197 7  89518638.310 7  21861355.047                    21861362.629
 126036109.182 6  98209989.69043  23983877.984                    23983888.273
 105324378.835 7  82070974.62346  20042564.141                    20042571.203
 109108310.464 8  85019483.37646  20762623.969                    20762629.875
 11  8  1 17 39 30.0000000  0 11G28G16G06G11G03G19G08G07G10G13G23
 128122042.933 6  99835524.94642  24380839.281                    24380852.289
 124840183.830 6  97278089.65643  23756301.242                    23756308.508
 121233748.753 6  94467887.57044  23070017.633                    23070026.188
 129094433.966 6 100593135.43642  24565857.938                    24565872.063
 111825343.314 7  87136663.25945  21279656.516                    21279664.344
 110342050.798 7  85980849.34546  20997392.031                    20997397.680
 124973950.791 6  97382373.98243  23781755.594                    23781765.293
 114827316.494 7  89475867.141 7  21850909.711                    21850917.406
 126063177.055 6  98231081.51943  23989028.172                    23989038.762
 105333802.537 7  82078317.75346  20044357.211                    20044364.320
 109175937.537 8  85072179.75446  20775492.945                    20775498.730
 11  8  1 17 40  0.0000000  0 11G28G16G06G11G03G19G08G07G10G13G23
 128051930.063 6  99780891.62042  24367497.367                    24367509.910
 124931046.628 6  97348891.75643  23773591.563                    23773599.859
 121307434.799 6  94525305.22744  23084038.648                    23084047.754
 129017515.087 6 100533198.83543  24551218.938                    24551234.547
 111880204.783 7  87179412.45045  21290095.805                    21290103.773
 110323003.195 7  85966007.07046  20993767.336                    20993773.098
 124904236.572 6  97328051.29244  23768489.398                    23768499.035
 114772488.934 7  89433144.381 7  21840476.359                    21840483.691
 126090651.166 6  98252489.82243  23994256.188                    23994266.941
 105343820.502 8  82086123.95146  20046263.164                    20046270.441
 109244052.697 7  85125256.45645  20788455.266                    20788460.879
 11  8  1 17 40 30.0000000  0 11G28G16G06G11G03G19G08G07G10G13G23
 127982033.835 6  99726427.24742  24354196.281                    24354208.715
 125021886.487 6  97419676.00243  23790878.125                    23790885.773
 121381512.285 6  94583027.92044  23098135.406                    23098144.605
 128940484.554 6 100473175.29942  24536561.867                    24536575.820
 111935614.200 7  87222588.61445  21300640.117                    21300648.184
 110304559.153 7  85951635.11346  20990257.484                    20990263.168
 124834466.032 7  97273684.69844  23755212.227                    23755222.500
 114717724.479 7  89390470.795 7  21830054.984                    21830062.828
 126118529.197 6  98274212.93143  23999561.711                    23999572.301
 105354433.158 7  82094393.54246  20048283.109                    20048289.895
 109312654.107 8  85178712.05645  20801509.039                    20801514.941
 11  8  1 17 41  0.0000000  0 11G28G16G06G11G03G19G08G07G10G13G23
 127912354.122 6  99672131.46242  24340937.195                    24340948.926
 125112701.545 6  97490440.93243  23808160.398                    23808167.832
 121455978.777 6  94641053.73744  23112306.250                    23112315.070
 128863344.172 6 100413066.08342  24521882.109                    24521896.273
 111991568.906 7  87266189.67445  21311287.766                    21311295.988
 110286719.313 7  85937733.95346  20986862.805                    20986868.520
 124764639.225 6  97219274.24943  23741924.727                    23741934.352
 114663023.841 7  89347846.944 7  21819645.953                    21819653.680
 126146809.485 6  98296249.46543  24004943.164                    24004953.672
 105365640.746 7  82103126.71546  20050415.797                    20050422.879
 109381739.698 8  85232544.93545  20814655.844                    20814661.863
 11  8  1 17 41 30.0000000  0 11G28G16G06G11G03G19G08G07G10G13G23
 127842891.263 6  99618004.63842  24327719.234                    24327730.074
 125203490.303 6  97561185.37043  23825436.430                    23825444.070
 121530831.432 6  94699380.44344  23126549.992                    23126559.238
 128786096.448 6 100352873.29842  24507182.570                    24507195.805
 112048066.522 7  87310213.78645  21322039.297                    21322047.285
 110269484.608 7  85924304.33646  20983583.063                    20983589.152
 124694756.503 6  97164820.24043  23728625.969                    23728636.246
 114608387.761 7  89305273.386 7  21809248.914                    21809256.246
 126175489.847 6  98318597.70243  24010400.875                    24010411.434
 105377443.360 8  82112323.54546  20052661.852                    20052669.020
 109451307.465 7  85286753.54045  20827894.109                    20827900.242
 11  8  1 17 42  0.0000000  0 11G28G16G06G11G03G19G08G07G10G13G23
 127773645.608 6  99564047.01042  24314541.516                    24314553.211
 125294251.466 6  97631908.32543  23842707.586                    23842715.305
 121606068.472 6  94758006.67544  23140867.602                    23140876.422
 128708744.029 6 100292598.85642  24492462.266                    24492476.191
 112105105.473 7  87354659.68845  21332893.422                    21332901.191
 110252856.205 7  85911347.15746  20980418.414                    20980424.762
 124624817.966 6  97110322.72543  23715317.164                    23715327.473
 114553817.410 7  89262751.058 7  21798864.656                    21798872.473
 126204568.101 6  98341256.05243  24015933.641                    24015944.320
 105389841.145 7  82121984.14546  20055020.703                    20055028.133
 109521355.738 8  85341336.56145  20841224.148                    20841229.953
 11  8  1 17 42 30.0000000  0 11G28G16G06G11G03G19G08G07G10G13G23
 127704617.233 6  99510258.80342  24301405.945                    24301417.660
 125384983.141 6  97702608.30643  23859973.469                    23859980.941
 121681687.324 6  94816930.41844  23155257.281                    23155265.840
 128631288.788 5 100232244.37442  24477723.523                    24477737.129
 112162683.387 7  87399525.57645  21343849.680                    21343857.949
 110236834.666 7  85898862.86046  20977370.016                    20977375.930
 124554823.850 7  97055781.90043  23701998.375                    23702007.945
 114499313.225 7  89220280.290 7  21788492.805                    21788500.676
 126234041.853 6  98364222.56743  24021543.148                    24021553.891
 105402833.985 8  82132108.42846  20057493.508                    20057500.605
 109591882.349 8  85396292.31445  20854644.883                    20854651.055
 11  8  1 17 43  0.0000000  0 11G28G16G06G11G03G19G08G07G10G13G23
 127635806.928 6  99456640.45543  24288311.602                    24288323.691
 125475684.640 6  97773284.74243  23877233.164                    23877240.824
 121757685.858 6  94876150.00844  23169719.688                    23169728.473
 128553734.529 5 100171812.70852  24462964.523                    24462978.785
 112220798.807 7  87444810.28445  21354909.070                    21354916.676
 110221421.633 7  85886852.71946  20974437.078                    20974443.008
 124484774.926 7  97001198.37243  23688668.133                    23688678.063
 114444877.139 7  89177862.576 7  21778133.867                    21778141.582
 126263909.786 6  98387496.18943  24027226.906                    24027237.293
 105416423.054 7  82142697.30046  20060079.594                    20060086.418
 109662885.957 8  85451619.75545  20868156.203                    20868162.070
 11  8  1 17 43 30.0000000  0 11G28G16G06G11G03G19G08G07G10G13G23
 127567214.641 6  99403192.02943  24275259.117                    24275269.945
 125566354.235 6  97843936.34643  23894487.094                    23894494.781
 121834061.647 6  94935663.57844  23184253.727                    23184262.465
 128476082.368 6 100111304.68842  24448187.609                    24448201.836
 112279449.025 7  87490511.72645  21366069.453                    21366077.465
 110206617.867 8  85875317.33946  20971619.359                    20971625.836
 124414671.049 6  96946572.00844  23675328.469                    23675337.703
 114390509.616 7  89135498.287 7  21767788.023                    21767795.988
 126294169.238 6  98411074.93743  24032984.789                    24032995.688
 105430607.673 7  82153750.23646  20062778.719                    20062786.090
 109734364.237 8  85507317.05945  20881758.461                    20881764.418
 11  8  1 17 44  0.0000000  0 11G28G16G06G11G03G19G08G07G10G13G23
 127498840.795 6  99349913.83043  24262248.563                    24262259.125
 125656990.741 6  97914562.12543  23911734.664                    23911742.398
 121910812.381 6  94995469.29944  23198858.641                    23198867.090
 128398335.098 6 100050722.70542  24433393.492                    24433407.375
 112338631.932 7  87536628.25045  21377332.047                    21377340.004
 110192423.949 7  85864257.15246  20968918.680                    20968924.809
 124344512.839 6  96891903.32143  23661977.719                    23661987.508
 114336211.682 7  89093188.229 7  21757455.539                    21757463.402
 126324818.607 6  98434957.46343  24038817.688                    24038828.430
 105445388.602 7  82165267.83546  20065591.320                    20065598.582
 109806315.502 8  85563382.92845  20895450.172                    20895456.313
 11  8  1 17 44 30.0000000  0 11G28G16G06G11G03G19G08G07G10G13G23
 127430685.447 6  99296805.84543  24249278.055                    24249289.613
 125747592.777 6  97985161.07143  23928976.063                    23928983.348
 121987935.800 6  95055565.42044  23213534.063                    23213543.012
 128320495.594 6  99990068.76743  24418580.375                    24418594.074
 112398345.521 7  87583158.29145  21388695.430                    21388703.227
 110178840.479 7  85853672.65146  20966333.688                    20966339.727
 124274300.461 6  96837192.44943  23648616.039                    23648625.426
 114281984.635 7  89050933.399 7  21747136.594                    21747144.152
 126355855.162 6  98459141.75443  24044723.563                    24044734.039
 105460765.910 8  82177250.14346  20068517.922                    20068524.738
 109878737.792 8  85619815.83345  20909231.633                    20909237.953
 11  8  1 17 45  0.0000000  0 11G28G16G06G11G03G19G08G07G10G13G23
 127362748.726 6  99243868.22843  24236351.117                    24236361.598
 125838158.643 6  98055731.79743  23946209.430                    23946217.504
 122065429.094 6  95115949.76344  23228281.602                    23228289.953
 128242566.045 6  99929344.61442  24403751.172                    24403764.934
 112458587.591 7  87630100.14045  21400158.367                    21400166.484
 110165868.290 7  85843564.47346  20963865.367                    20963871.586
 124204033.978 6  96782439.37243  23635244.492                    23635254.449
 114227829.151 7  89008734.336 7  21736830.859                    21736838.719
 126387277.062 6  98483626.24043  24050703.930                    24050713.973
 105476739.106 8  82189696.79046  20071557.328                    20071564.504
 109951628.788 8  85676613.96345  20923102.477                    20923108.762
 11  8  1 17 45 30.0000000  0 11G28G16G06G11G03G19G08G07G10G13G23
 127295030.684 6  99191101.00943  24223464.297                    24223474.992
 125928687.116 6  98126273.41843  23963436.680                    23963444.809
 122143290.135 6  95176620.65544  23243097.477                    23243106.586
 128164548.888 6  99868552.23642  24388904.438                    24388919.145
 112519355.769 7  87677451.94445  21411722.773                    21411730.684
 110153508.315 8  85833933.33446  20961513.031                    20961519.059
 124133713.929 6  96727644.57943  23621863.898                    23621872.574
 114173745.993 7  88966591.631 7  21726539.305                    21726546.910
 126419082.198 6  98508409.40343  24056755.203                    24056766.008
 105493308.185 7  82202607.74046  20074710.242                    20074717.559
 110024986.435 8  85733775.71245  20937062.047                    20937068.324
 11  8  1 17 46  0.0000000  0 11G28G16G06G11G03G19G08G07G10G13G23
 127227531.395 6  99138504.33843  24210618.477                    24210630.234
 126019176.534 6  98196784.61643  23980656.523                    23980664.637
 122221516.407 6  95237576.15344  23257982.828                    23257992.457
 128086446.978 6  99807693.82643  24374042.258                    24374056.250
 112580647.841 7  87725211.97345  21423386.344                    21423394.199
 110141761.009 7  85824779.61746  20959277.781                    20959283.578
 124063340.384 6  96672808.07743  23608471.953                    23608480.891
 114119736.332 7  88924506.208 7  21716261.422                    21716269.168
 126451268.108 6  98533489.26443  24062880.078                    24062890.617
 105510473.146 8  82215983.02946  20077976.672                    20077983.668
 110098808.640 8  85791299.45745  20951109.852                    20951115.938
 11  8  1 17 46 30.0000000  0 11G28G16G06G11G03G19G08G07G10G13G23
 127160251.742 6  99086078.76743  24197816.289                    24197827.359
 126109626.070 6  98267264.71543  23997867.797                    23997876.477
 122300106.154 6  95298814.88944  23272938.430                    23272947.582
 128008262.938 6  99746771.42542  24359163.906                    24359177.664
 112642461.759 7  87773378.65145  21435148.414                    21435156.750
 110130627.433 7  85816104.12046  20957158.789                    20957164.887
 123992914.480 6  96617930.76243  23595070.219                    23595079.094
 114065801.902 7  88882479.393 7  21705998.281                    21706005.480
 126483832.925 6  98558864.38843  24069077.742                    24069087.574
 105528234.887 8  82229823.34146  20081356.773                    20081363.875
 110173094.086 8  85849184.16445  20965245.664                    20965252.492
 11  8  1 17 47  0.0000000  0 11G28G16G06G11G03G19G08G07G10G13G23
 127093191.668 6  99033824.34043  24185054.563                    24185066.566
 126200034.345 6  98337712.66043  24015072.875                    24015080.688
 122379056.538 6  95360334.65044  23287962.781                    23287971.426
 127929999.201 6  99685786.86643  24344270.859                    24344284.094
 112704795.213 7  87821950.15545  21447010.156                    21447018.328
 110120108.517 7  85807907.58946  20955157.430                    20955163.480
 123922435.707 6  96563012.27943  23581658.047                    23581667.258
 114011943.433 7  88840511.770 7  21695749.094                    21695756.820
 126516774.411 6  98584532.99143  24075345.680                    24075355.910
 105546592.723 8  82244128.13046  20084849.781                    20084857.207
 110247840.182 8  85907427.81445  20979469.664                    20979476.285
 11  8  1 17 47 30.0000000  0 11G28G16G06G11G03G19G08G07G10G13G23
 127026351.040 6  98981740.89043  24172335.836                    24172346.371
 126290399.667 6  98408127.14643  24032268.992                    24032276.820
 122458364.910 7  95422133.36844  23303053.875                    23303063.043
 127851657.794 6  99624741.79143  24329362.805                    24329375.969
 112767645.609 7  87870924.46745  21458970.313                    21458979.180
 110110204.314 7  85800190.04646  20953272.836                    20953278.344
 123851904.704 6  96508053.12243  23568236.891                    23568246.441
 113958161.713 7  88798603.953 7  21685514.867                    21685522.645
 126550089.977 6  98610493.12143  24081685.570                    24081696.094
 105565546.453 8  82258897.26446  20088456.766                    20088463.941
 110323044.906 8  85966028.84545  20993780.727                    20993786.977
 11  8  1 17 48  0.0000000  0 11G28G16G06G11G03G19G08G07G10G13G23
 126959730.493 6  98929828.94043  24159657.719                    24159669.078
 126380721.450 6  98478507.68143  24049456.094                    24049464.910
 122538029.527 6  95484209.68043  23318213.797                    23318223.098
 127773242.166 6  99563638.89443  24314440.664                    24314453.461
 112831011.451 7  87920300.42645  21471028.102                    21471036.496
 110100916.105 7  85792952.49946  20951504.828                    20951511.109
 123781322.392 6  96453053.98343  23554805.695                    23554814.762
 113904457.957 7  88756756.877 7  21675295.477                    21675302.938
 126583778.289 6  98636743.63443  24088096.383                    24088107.094
 105585096.879 8  82274131.34846  20092176.844                    20092184.195
 110398706.688 8  86024986.02045  21008178.539                    21008185.023
 11  8  1 17 48 30.0000000  0 11G28G16G06G11G03G19G08G07G10G13G23
 126893329.373 6  98878088.02243  24147022.219                    24147032.961
 126470997.604 6  98548852.69443  24066635.055                    24066643.668
 122618047.129 6  95546561.01543  23333441.273                    23333450.102
 127694754.060 6  99502479.59943  24299504.531                    24299518.313
 112894889.368 7  87970075.40744  21483184.055                    21483192.410
 110092243.583 7  85786194.69846  20949854.953                    20949861.199
 123710688.383 6  96398014.54643  23541364.281                    23541373.238
 113850832.969 7  88714971.189 7  21665091.234                    21665098.676
 126617836.084 6  98663282.07643  24094577.414                    24094588.324
 105605242.914 8  82289829.54146  20096010.836                    20096017.836
 110474822.657 8  86084297.10645  21022663.438                    21022669.504
 11  8  1 17 49  0.0000000  0 11G28G16G06G11G03G19G08G07G10G13G23
 126827148.487 6  98826518.62843  24134427.992                    24134438.859
 126561227.319 6  98619161.51843  24083805.484                    24083813.570
 122698415.995 6  95609186.07643  23348734.000                    23348743.719
 127616196.673 6  99441266.23443  24284554.961                    24284568.320
 112959277.722 7  88020248.13345  21495436.844                    21495445.270
 110084187.889 7  85779917.54646  20948321.727                    20948327.766
 123640003.514 6  96342935.47443  23527913.148                    23527921.668
 113797288.271 7  88673248.077 7  21654901.750                    21654909.227
 126652261.693 6  98690107.14443  24101127.797                    24101139.180
 105625984.815 7  82305992.04746  20099957.609                    20099964.852
 110551391.116 8  86143960.79545  21037233.602                    21037240.324
 11  8  1 17 49 30.0000000  0 11G28G16G06G11G03G19G08G07G10G13G23
 126761187.374 6  98775120.49543  24121875.461                    24121886.625
 126651409.042 6  98689432.93443  24100967.117                    24100974.602
 122779133.097 6  95672082.50143  23364094.602                    23364103.477
 127537571.893 6  99380000.37743  24269593.602                    24269605.672
 113024174.188 7  88070816.78445  21507786.297                    21507794.859
 110076749.267 7  85774121.23246  20946906.070                    20946912.004
 123569267.849 6  96287816.80743  23514452.719                    23514461.547
 113743824.515 7  88631588.010 7  21644727.594                    21644735.043
 126687052.621 6  98717216.83743  24107749.336                    24107759.480
 105647322.125 8  82322618.50546  20104017.867                    20104025.230
 110628409.598 8  86203975.13845  21051889.742                    21051896.074
 11  8  1 17 50  0.0000000  0 11G28G16G06G11G03G19G08G07G10G13G23
 126695446.735 6  98723894.16843  24109365.219                    24109376.496
 126741541.963 6  98759666.32743  24118118.367                    24118126.535
 122860196.682 6  95735248.88843  23379520.453                    23379529.168
 127458882.883 6  99318684.44843  24254619.719                    24254631.746
 113089576.797 7  88121779.83045  21520232.094                    21520240.215
 110069928.814 7  85768806.59946  20945608.273                    20945614.102
 123498482.158 6  96232659.16843  23500982.766                    23500991.301
 113690443.302 7  88589992.278 7  21634569.758                    21634577.164
 126722207.041 6  98744609.83343  24114438.328                    24114449.559
 105669255.612 8  82339709.51746  20108191.734                    20108199.203
 110705876.603 8  86264338.98045  21066631.000                    21066637.703
 11  8  1 17 50 30.0000000  0 11G28G16G06G11G03G19G08G07G10G13G23
 126629926.197 6  98672839.33743  24096896.852                    24096907.828
 126831624.423 6  98829860.39743  24135260.844                    24135268.734
 122941603.795 6  95798683.00043  23395012.016                    23395020.496
 127380132.066 6  99257320.36043  24239634.102                    24239645.695
 113155482.431 7  88173134.85045  21532772.977                    21532781.848
 110063726.309 7  85763973.48946  20944428.094                    20944434.020
 123427646.465 6  96177462.57844  23487502.969                    23487511.480
 113637145.592 7  88548461.610 7  21624427.852                    21624435.000
 126757722.074 6  98772283.81243  24121196.961                    24121207.531
 105691784.055 8  82357264.13346  20112479.352                    20112486.672
 110783789.553 8  86325050.31545  21081457.734                    21081464.555
 11  8  1 17 51  0.0000000  0 11G28G16G06G11G03G19G08G07G10G13G23
 126564626.110 6  98621956.32143  24084471.711                    24084482.066
 126921655.240 6  98900014.27243  24152392.602                    24152400.840
 123023352.059 6  95862382.89443  23410567.656                    23410576.813
 127301322.064 6  99195910.16143  24224636.164                    24224648.582
 113221888.763 7  88224880.00645  21545410.320                    21545418.363
 110058142.429 8  85759622.42546  20943365.383                    20943371.070
 123356761.402 7  96122227.51344  23474013.922                    23474022.922
 113583932.476 8  88506996.854 7  21614301.172                    21614308.902
 126793595.392 6  98800236.94643  24128023.516                    24128033.625
 105714907.163 8  82375282.12046  20116879.102                    20116886.438
 110862146.343 8  86386107.50045  21096368.648                    21096375.121
 11  8  1 17 51 30.0000000  0 11G28G16G06G11G03G19G08G07G10G13G23
 126499546.549 6  98571245.11143  24072086.672                    24072097.535
 127011633.256 6  98970126.96843  24169515.531                    24169523.246
 123105439.193 6  95926346.86543  23426188.672                    23426197.176
 127222455.738 6  99134456.06143  24209628.367                    24209641.828
 113288793.527 7  88277013.56445  21558142.078                    21558150.453
 110053177.743 8  85755753.84446  20942420.984                    20942427.055
 123285827.664 7  96066954.53044  23460515.547                    23460524.965
 113530805.050 7  88465598.879 7  21604191.141                    21604199.316
 126829825.049 6  98828467.79743  24134917.570                    24134928.246
 105738624.906 8  82393763.45946  20121392.258                    20121399.531
 110940944.653 8  86447508.72645  21111363.500                    21111370.066
 11  8  1 17 52  0.0000000  0 11G28G16G06G11G03G19G08G07G10G13G23
 126434687.586 6  98520705.81043  24059744.242                    24059755.230
 127101557.147 6  99040197.47543  24186626.742                    24186635.152
 123187862.474 6  95990572.74143  23441873.117                    23441882.035
 127143535.312 6  99072959.85542  24194610.023                    24194622.773
 113356194.316 7  88329533.63445  21570967.836                    21570976.102
 110048832.451 7  85752367.91546  20941593.867                    20941599.914
 123214845.451 7  96011643.79044  23447007.883                    23447017.340
 113477764.387 8  88424268.496 7  21594098.000                    21594105.895
 126866408.399 6  98856974.21243  24141879.852                    24141890.121
 105762937.065 8  82412707.97746  20126018.773                    20126026.395
 111020182.316 8  86509252.30845  21126441.953                    21126448.730
 11  8  1 17 52 30.0000000  0 11G28G16G06G11G03G19G08G07G10G13G23
 126370049.152 6  98470338.35343  24047443.625                    24047454.859
 127191425.810 6  99110224.95043  24203728.141                    24203736.715
 123270619.749 6  96055058.91843  23457621.867                    23457630.766
 127064563.546 6  99011423.63543  24179582.047                    24179594.891
 113424088.981 7  88382438.53844  21583887.664                    21583895.816
 110045107.170 7  85749465.11746  20940885.344                    20940890.742
 123143815.197 7  95956295.57744  23433491.883                    23433500.516
 113424811.754 7  88383006.724 7  21584021.750                    21584029.438
 126903343.510 6  98885754.76243  24148907.852                    24148918.980
 105787843.508 8  82432115.57146  20130758.414                    20130765.785
 111099857.373 8  86571336.70445  21141603.961                    21141609.840
 11  8  1 17 53  0.0000000  0 11G28G16G06G11G03G19G08G07G10G13G23
 126305631.649 6  98420143.04843  24035186.219                    24035196.340
 127281238.366 6  99180208.71043  24220818.703                    24220827.332
 123353708.617 6  96119803.46543  23473432.891                    23473442.035
 126985543.597 6  98949849.89043  24164544.695                    24164557.801
 113492475.016 7  88435726.33444  21596901.609                    21596909.387
 110042002.196 7  85747045.67846  20940294.313                    20940300.043
 123072737.575 7  95900910.45344  23419965.922                    23419974.387
 113371948.526 7  88341814.597 7  21573962.070                    21573969.680
 126940628.101 6  98914807.59143  24156003.914                    24156014.488
 105813344.064 8  82451986.11946  20135611.547                    20135618.246
 111179967.408 8  86633760.06345  21156848.063                    21156854.613
 11  8  1 17 53 30.0000000  0 11G28G16G06G11G03G19G08G07G10G13G23
 126241435.091 6  98370119.88043  24022969.508                    24022980.008
 127370993.847 6  99250147.96043  24237899.008                    24237907.410
 123437126.880 6  96184804.68243  23489306.508                    23489315.922
 126906478.109 6  98888240.61443  24149499.453                    24149512.418
 113561350.332 7  88489395.38745  21610007.750                    21610016.355
 110039518.157 8  85745110.08346  20939821.539                    20939827.500
 123001613.188 6  95845488.89643  23406431.758                    23406439.699
 113319175.972 7  88300693.154 7  21563919.766                    21563927.535
 126978259.810 6  98944130.93543  24163163.836                    24163174.996
 105839438.966 8  82472319.78446  20140576.930                    20140584.270
 111260510.422 8  86696520.79545  21172174.695                    21172181.414
 11  8  1 17 54  0.0000000  0 11G28G16G06G11G03G19G08G07G10G13G23
 126177458.832 6  98320268.41843  24010795.602                    24010805.570
 127460689.829 6  99320040.90143  24254967.984                    24254976.371
 123520870.676 6  96250059.52443  23505242.727                    23505251.961
 126827368.371 6  98826596.93043  24134444.148                    24134457.855
 113630711.361 7  88543442.93044  21623206.508                    21623215.125
 110037654.035 7  85743657.53346  20939466.578                    20939472.727
 122930441.649 6  95790030.60144  23392887.992                    23392896.398
 113266494.405 7  88259642.592 7  21553895.422                    21553902.820
 127016235.199 6  98973722.03043  24170390.750                    24170401.734
 105866125.511 8  82493114.46946  20145655.156                    20145662.707
 111341483.287 8  86759616.46245  21187583.867                    21187590.344
 11  8  1 17 54 30.0000000  0 11G28G16G06G11G03G19G08G07G10G13G23
 126113703.560 6  98270589.10943  23998662.375                    23998672.992
 127550326.245 6  99389887.37342  24272024.352                    24272033.719
 123604938.918 6  96315567.21643  23521240.555                    23521249.793
 126748218.383 6  98764921.83043  24119383.250                    24119395.941
 113700556.404 7  88597867.61145  21636497.570                    21636505.879
 110036411.248 7  85742689.15746  20939230.063                    20939236.133
 122859224.642 6  95734536.87144  23379335.500                    23379345.133
 113213905.941 7  88218664.588 7  21543887.789                    21543895.246
 127054552.914 6  99003579.92543  24177682.422                    24177693.941
 105893404.820 7  82514371.05846  20150846.352                    20150853.543
 111422884.733 8  86823046.10545  21203073.969                    21203080.051
 11  8  1 17 55  0.0000000  0 11G28G16G06G11G03G19G08G07G10G13G23
 126050168.672 6  98221081.53943  23986572.156                    23986582.777
 127639901.565 6  99459686.24243  24289070.703                    24289079.367
 123689328.452 6  96381325.27443  23537299.180                    23537308.250
 126669030.290 6  98703217.08042  24104313.555                    24104325.973
 113770882.796 7  88652667.38944  21649880.547                    21649889.078
 110035789.400 7  85742204.61846  20939112.094                    20939118.141
 122787961.739 6  95679007.39644  23365774.500                    23365783.621
 113161411.316 7  88177759.693 7  21533898.406                    21533906.078
 127093210.143 6  99033702.34343  24185038.734                    24185049.379
 105921276.092 7  82536088.90046  20156150.000                    20156157.645
 111504711.696 8  86886807.31645  21218645.008                    21218651.320
 11  8  1 17 55 30.0000000  0 11G28G16G06G11G03G19G08G07G10G13G23
 125986854.341 6  98171745.86043  23974523.320                    23974534.254
 127729414.667 6  99529436.63643  24306104.445                    24306113.047
 123774036.905 6  96447331.83644  23553418.609                    23553428.113
 126589806.711 6  98641484.63243  24089237.641                    24089249.617
 113841687.944 7  88707840.21544  21663354.164                    21663362.273
 110035789.075 7  85742204.38546  20939111.375                    20939117.574
 122716653.562 7  95623442.63544  23352205.469                    23352214.094
 113109011.654 7  88136928.801 7  21523926.820                    21523934.336
 127132204.586 6  99064087.53243  24192458.703                    24192470.133
 105949738.768 7  82558267.58446  20161566.172                    20161573.527
 111586962.101 7  86950898.47345  21234296.914                    21234303.395
 11  8  1 17 56  0.0000000  0 11G28G16G06G11G03G19G08G07G10G13G23
 125923761.263 6  98122582.54743  23962517.414                    23962527.574
 127818864.691 6  99599137.88843  24323126.383                    24323135.414
 123859062.144 6  96513585.23343  23569599.078                    23569607.160
 126510550.822 6  98579727.01443  24074155.875                    24074167.781
 113912969.734 7  88763384.46444  21676918.563                    21676927.094
 110036410.421 7  85742688.56746  20939229.844                    20939235.859
 122645301.456 6  95567843.65844  23338626.758                    23338637.184
 113056708.516 7  88096173.124 7  21513973.891                    21513981.371
 127171534.268 6  99094733.95843  24199943.797                    24199954.781
 105978793.215 8  82580907.38946  20167094.828                    20167102.262
 111669634.102 8  87015318.16045  21250028.680                    21250035.328
 11  8  1 17 56 30.0000000  0 11G28G16G06G11G03G19G08G07G10G13G23
 125860888.884 6  98073591.21043  23950552.969                    23950563.336
 127908250.207 6  99668788.88143  24340136.016                    24340145.270
 123944401.318 6  96580083.25143  23585838.930                    23585847.191
 126431265.065 6  98517946.08243  24059068.055                    24059080.219
 113984725.306 7  88819297.89544  21690573.047                    21690581.211
 110037653.248 8  85743657.01846  20939466.594                    20939472.676
 122573905.414 7  95512210.43943  23325040.742                    23325050.660
 113004503.110 7  88055493.602 7  21504039.586                    21504047.098
 127211196.363 6  99125639.38643  24207490.609                    24207502.305
 106008438.560 8  82604007.64146  20172736.453                    20172743.680
 111752725.057 8  87080064.29445  21265840.836                    21265847.277
 11  8  1 17 57  0.0000000  0 11G28G16G06G11G03G19G08G07G10G13G23
 125798236.884 6  98024771.65343  23938630.539                    23938641.156
 127997570.091 6  99738388.70043  24357132.820                    24357142.285
 124030051.724 6  96646823.76043  23602137.125                    23602145.910
 126351951.924 6  98456143.86443  24043975.844                    24043986.898
 114056951.366 7  88875577.93444  21704317.477                    21704325.859
 110039517.525 7  85745109.71246  20939821.313                    20939827.098
 122502465.657 7  95456543.11443  23311446.227                    23311455.605
 112952396.281 7  88014890.893 7  21494123.680                    21494131.559
 127251188.453 6  99156801.96343  24215101.586                    24215112.348
 106038673.474 8  82627567.28746  20178490.094                    20178497.469
 111836232.288 8  87145134.80245  21281731.461                    21281738.141
 11  8  1 17 57 30.0000000  0 11G28G16G06G11G03G19G08G07G10G13G23
 125735805.394 6  97976123.85643  23926750.078                    23926760.871
 128086823.503 6  99807936.75843  24374117.742                    24374126.090
 124116010.938 6  96713804.92243  23618494.492                    23618503.570
 126272614.214 6  98394322.44243  24028877.195                    24028889.203
 114129646.124 7  88932223.19344  21718151.313                    21718158.992
 110042003.469 7  85747046.83146  20940293.805                    20940300.188
 122430982.969 7  95400842.34344  23297843.438                    23297852.516
 112900389.450 7  87974366.093 7  21484227.625                    21484234.977
 127291507.889 6  99188219.60943  24222773.945                    24222785.016
 106069497.457 8  82651585.95146  20184355.555                    20184362.676
 111920153.605 8  87210527.97445  21297700.945                    21297708.020
 11  8  1 17 58  0.0000000  0 11G28G16G06G11G03G19G08G07G10G13G23
 125673594.538 6  97927648.00943  23914911.422                    23914922.160
 128176009.353 6  99877432.14643  24391090.297                    24391097.867
 124202276.856 6  96781025.06243  23634910.234                    23634919.414
 126193254.795 6  98332484.14343  24013775.609                    24013787.961
 114202807.240 7  88989231.85544  21732073.094                    21732081.531
 110045111.595 7  85749468.74746  20940885.414                    20940891.504
 122359458.219 7  95345108.81844  23284233.047                    23284242.133
 112848484.328 7  87933920.564 7  21474349.852                    21474357.602
 127332152.514 6  99219890.65743  24230508.125                    24230519.109
 106100910.630 7  82676063.72846  20190333.477                    20190340.723
 112004486.948 8  87276242.21645  21313749.703                    21313755.578
 11  8  1 17 58 30.0000000  0 11G28G16G06G11G03G19G08G07G10G13G23
 125611604.403 6  97879344.13343  23903115.711                    23903125.836
 128265126.556 6  99946874.07343  24408047.406                    24408055.566
 124288846.771 6  96848482.10443  23651384.492                    23651393.188
 126113876.385 6  98270631.00843  23998670.992                    23998682.391
 114276432.044 7  89046601.81744  21746083.109                    21746091.527
 110048841.656 7  85752375.30346  20941595.547                    20941601.461
 122287892.352 7  95289343.26844  23270614.313                    23270623.570
 112796681.833 7  87893554.992 7  21464492.508                    21464499.723
 127373119.775 6  99251813.09643  24238304.523                    24238314.777
 106132912.038 8  82700999.87546  20196423.141                    20196430.547
 112089229.469 8  87342275.27845  21329875.719                    21329881.996
 11  8  1 17 59  0.0000000  0 11G28G16G06G11G03G19G08G07G10G13G23
 125549834.983 6  97831212.28143  23891360.445                    23891371.340
 128354173.716 6 100016261.39143  24424992.586                    24425001.223
 124375718.389 6  96916174.22543  23667914.992                    23667924.121
 126034481.895 6  98208765.38343  23983561.586                    23983573.484
 114350517.694 7  89104330.86944  21760181.227                    21760189.395
 110053193.650 7  85755766.47446  20942423.359                    20942429.629
 122216285.570 7  95233545.80444  23256987.414                    23256997.094
 112744983.504 7  87853270.598 7  21454654.422                    21454662.129
 127414407.357 6  99283985.15243  24246161.680                    24246171.852
 106165501.313 7  82726394.08546  20202624.539                    20202631.898
 112174379.472 8  87408625.86645  21346079.094                    21346085.633
 11  8  1 17 59 30.0000000  0 11G28G16G06G11G03G19G08G07G10G13G23
 125488285.686 6  97783251.90043  23879648.109                    23879658.898
 128443150.060 6 100085593.53243  24441924.664                    24441933.133
 124462888.743 6  96984099.12644  23684503.406                    23684512.402
 125955073.671 6  98146889.04843  23968451.086                    23968463.043
 114425061.773 7  89162417.13644  21774366.828                    21774374.941
 110058167.275 7  85759642.04046  20943370.445                    20943376.035
 122144638.097 7  95177716.66244  23243354.125                    23243363.520
 112693390.161 7  87813068.008 7  21444836.734                    21444843.934
 127456012.413 6  99316404.59243  24254078.117                    24254089.645
 106198677.204 8  82752245.41246  20208937.594                    20208945.191
 112259933.935 8  87475291.61845  21362359.367                    21362366.324
 11  8  1 18  0  0.0000000  0 11G28G16G06G11G03G19G08G07G10G13G23
 125426956.812 6  97735463.30043  23867977.594                    23867988.363
 128532054.890 6 100154869.99443  24458842.719                    24458850.820
 124550355.433 6  97052254.95543  23701148.094                    23701156.309
 125875654.830 6  98085004.41543  23953337.555                    23953350.012
 114500061.600 7  89220858.52144  21788639.063                    21788646.609
 110063762.488 7  85764001.96446  20944434.969                    20944441.012
 122072950.849 7  95121856.48544  23229712.391                    23229721.215
 112641903.239 7  87772948.329 7  21435039.219                    21435046.664
 127497932.750 6  99349069.70943  24262055.797                    24262066.680
 106232439.363 8  82778553.57046  20215362.508                    20215370.273
 112345890.371 8  87542270.59245  21378716.688                    21378723.316
 11  8  1 18  0 30.0000000  0 11G28G16G06G11G03G19G08G07G10G13G23
 125365848.034 6  97687846.19143  23856349.328                    23856359.535
 128620886.951 6 100224089.71343  24475747.102                    24475755.082
 124638116.039 6  97120639.81144  23717848.102                    23717857.215
 125796227.889 6  98023113.43443  23938223.195                    23938234.938
 114575514.546 7  89279652.98444  21802997.078                    21803005.680
 110069979.350 7  85768846.29046  20945617.867                    20945623.656
 122001224.569 7  95065965.91744  23216063.383                    23216072.457
 112590524.088 7  87732912.644 7  21425261.688                    21425269.613
 127540165.544 6  99381978.29343  24270093.266                    24270103.758
 106266786.971 7  82805317.91746  20221898.773                    20221906.223
 112432246.571 7  87609561.07045  21395149.820                    21395156.293
 11  8  1 18  1  0.0000000  0 11G28G16G06G11G03G19G08G07G10G13G23
 125304959.463 6  97640400.67743  23844761.922                    23844772.664
 128709644.786 6 100293251.60843  24492637.508                    24492644.742
 124726168.015 6  97189251.70543  23734603.688                    23734612.625
 125716795.796 6  97961218.47843  23923107.766                    23923119.309
 114651418.215 7  89338798.65344  21817440.492                    21817449.211
 110076817.741 7  85774174.91146  20946918.695                    20946924.887
 121929459.981 7  95010045.48944  23202406.703                    23202416.246
 112539254.257 7  87692962.138 7  21415505.578                    21415512.797
 127582708.769 6  99415128.77843  24278187.313                    24278199.551
 106301718.964 8  82832537.63146  20228545.820                    20228553.133
 112519000.147 7  87677161.18745  21411658.375                    21411664.992
 11  8  1 18  1 30.0000000  0 11G28G16G06G11G03G19G08G07G10G13G23
 125244290.743 6  97593126.42743  23833216.992                    23833227.574
 128798327.623 6 100362355.06843  24509512.539                    24509520.176
 124814508.596 6  97258088.47743  23751414.430                    23751423.914
 125637361.076 6  97899321.47443  23907991.680                    23908002.992
 114727769.244 7  89398292.91544  21831970.063                    21831978.223
 110084277.202 7  85779987.48746  20948338.391                    20948344.441
 121857657.146 6  94954095.29744  23188743.492                    23188752.910
 112488094.626 7  87653097.484 7  21405770.391                    21405777.625
 127625559.241 6  99448518.66943  24286342.250                    24286353.766
 106337234.536 8  82860212.09046  20235304.461                    20235312.090
 112606148.438 7  87745068.88145  21428242.250                    21428248.707
 11  8  1 18  2  0.0000000  0 11G28G16G06G11G03G19G08G07G10G13G23
 125183841.833 6  97546023.48743  23821715.008                    23821724.352
 128886934.756 6 100431399.53042  24526373.922                    24526382.859
 124903135.580 6  97327148.43743  23768279.258                    23768288.941
 125557926.510 6  97837424.59643  23892875.320                    23892887.688
 114804565.428 7  89458134.07144  21846583.680                    21846592.332
 110092357.824 7  85786284.07446  20949876.555                    20949882.367
 121785817.035 7  94898116.02444  23175071.977                    23175081.891
 112437046.967 7  87613320.108 7  21396056.375                    21396063.539
 127668714.818 6  99482146.23343  24294554.828                    24294565.602
 106373333.149 8  82888340.85746  20242173.953                    20242181.348
 112693688.962 7  87813282.18945  21444901.055                    21444907.156
 11  8  1 18  2 30.0000000  0 11G28G16G06G11G03G19G08G07G10G13G23
 125123612.945 6  97499091.99043  23810252.633                    23810263.043
 128975465.169 6 100500384.19443  24543221.016                    24543229.266
 124992046.656 6  97396429.76243  23785198.906                    23785207.742
 125478495.438 6  97775530.40043  23877760.234                    23877771.719
 114881804.517 7  89518320.37544  21861281.734                    21861290.227
 110101059.757 7  85793064.81246  20951532.406                    20951538.188
 121713940.848 7  94842108.63944  23161394.672                    23161404.160
 112386112.684 7  87573631.059 7  21386363.555                    21386371.527
 127712173.422 6  99516010.01143  24302824.617                    24302836.266
 106410014.394 8  82916923.62946  20249154.297                    20249161.375
 112781619.777 7  87881799.64145  21461633.094                    21461640.059
 11  8  1 18  3  0.0000000  0 11G28G16G06G11G03G19G08G07G10G13G23
 125063603.278 6  97452331.28443  23798833.172                    23798842.891
 129063917.652 6 100569308.13542  24560051.273                    24560061.961
 125081238.723 6  97465930.06043  23802171.742                    23802180.332
 125399070.199 6  97713640.76843  23862646.484                    23862658.355
 114959483.459 7  89578849.37944  21876063.648                    21876071.777
 110110382.130 7  85800328.99346  20953306.305                    20953312.047
 121642028.569 7  94786073.15944  23147710.305                    23147718.711
 112335292.632 7  87534031.046 7  21376693.016                    21376700.559
 127755931.812 6  99550107.39643  24311151.438                    24311163.262
 106447276.729 8  82945959.20246  20256245.031                    20256252.453
 112869937.766 7  87950618.77145  21478439.531                    21478446.137
 11  8  1 18  3 30.0000000  0 11G28G16G06G11G03G19G08G07G10G13G23
 125003813.136 6  97405741.66143  23787455.695                    23787465.566
 129152291.323 6 100638170.72043  24576870.383                    24576878.773
 125170709.267 6  97535647.34043  23819197.047                    23819206.539
 125319653.599 6  97651757.85243  23847533.500                    23847545.266
 115037599.242 7  89639718.75644  21890929.055                    21890937.477
 110120324.619 7  85808076.38846  20955198.133                    20955203.973
 121570081.193 7  94730010.31943  23134019.211                    23134028.133
 112284588.299 7  87494521.194 7  21367044.516                    21367051.816
 127799987.538 6  99584436.43343  24319535.828                    24319547.051
 106485119.546 7  82975447.08846  20263445.680                    20263453.309
 112958640.463 7  88019737.68045  21495319.406                    21495326.145
 11  8  1 18  4  0.0000000  0 11G28G16G06G11G03G19G08G07G10G13G23
 124944242.149 6  97359322.82943  23776119.133                    23776129.926
 129240585.299 6 100706971.10443  24593671.328                    24593680.867
 125260455.938 6  97605579.77843  23836275.508                    23836284.543
 125240248.326 6  97589883.75443  23832423.414                    23832435.000
 115116149.784 7  89700926.97344  21905876.492                    21905884.758
 110130886.883 7  85816306.73646  20957208.359                    20957214.391
 121498099.376 7  94673920.66544  23120321.164                    23120330.324
 112234000.936 7  87455102.494 7  21357417.891                    21357425.684
 127844338.056 6  99618995.18543  24327975.578                    24327987.262
 106523541.563 8  83005386.30746  20270757.375                    20270764.789
 113047725.194 7  88089154.27545  21512271.422                    21512278.145
 11  8  1 18  4 30.0000000  0 11G28G16G06G11G03G19G08G07G10G13G23
 124884890.203 6  97313074.69143  23764824.805                    23764834.953
 129328798.564 6 100775708.65942  24610458.820                    24610467.164
 125350475.868 6  97675725.16743  23853405.461                    23853414.980
 125160857.078 6  97528020.58443  23817314.984                    23817326.254
 115195131.626 7  89762471.25044  21920906.438                    21920914.867
 110142068.666 7  85825019.80946  20959335.789                    20959342.383
 121426083.827 7  94617804.67444  23106617.328                    23106625.621
 112183532.148 7  87415776.172 7  21347813.852                    21347821.289
 127888980.465 6  99653781.39043  24336470.531                    24336481.676
 106562542.003 8  83035776.23846  20278179.148                    20278186.727
 113137189.569 7  88158866.68745  21529296.531                    21529302.891
 11  8  1 18  5  0.0000000  0 11G28G16G06G11G03G19G08G07G10G13G23
 124825757.447 6  97266997.34043  23753572.555                    23753582.352
 129416930.481 6 100844382.84543  24627229.477                    24627238.293
 125440767.197 6  97746081.96743  23870587.336                    23870596.453
 125081483.680 6  97466171.35443  23802210.680                    23802222.461
 115274542.578 7  89824349.89344  21936017.273                    21936026.012
 110153870.038 7  85834215.68746  20961582.000                    20961587.836
 121354035.591 7  94561663.23544  23092906.492                    23092915.141
 112133183.572 7  87376543.532 7  21338233.109                    21338240.617
 127933912.843 6  99688793.55543  24345020.742                    24345032.477
 106602120.235 7  83066616.39946  20285710.492                    20285718.086
 113227031.397 7  88228873.22745  21546392.367                    21546399.289
 11  8  1 18  5 30.0000000  0 11G28G16G06G11G03G19G08G07G10G13G23
 124766843.414 6  97221090.43943  23742361.047                    23742372.160
 129504979.720 6 100912992.55343  24643984.695                    24643993.352
 125531326.958 6  97816648.02443  23887820.906                    23887829.609
 125002130.245 6  97404337.67143  23787109.961                    23787122.027
 115354380.013 7  89886560.83644  21951210.508                    21951218.676
 110166290.478 7  85843893.96346  20963945.391                    20963950.699
 121281955.063 7  94505496.64844  23079190.219                    23079198.629
 112082956.363 7  87337405.463 7  21328674.711                    21328682.379
 127979132.305 6  99724029.40643  24353626.367                    24353637.660
 106642275.077 7  83097905.87646  20293351.383                    20293359.082
 113317248.154 7  88299171.91545  21563560.203                    21563567.055
 11  8  1 18  6  0.0000000  0 11G28G16G06G11G03G19G08G07G10G13G23
 124708148.221 6  97175354.04443  23731192.266                    23731202.117
 129592945.762 6 100981537.48843  24660724.602                    24660732.719
 125622152.887 6  97887421.46343  23905103.000                    23905113.094
 124922799.897 6  97342521.95443  23772014.398                    23772024.965
 115434641.195 7  89949101.99444  21966483.320                    21966491.719
 110179329.448 7  85854054.21646  20966426.305                    20966432.480
 121209843.088 7  94449305.54243  23065467.836                    23065476.113
 112032852.054 7  87298363.154 7  21319140.523                    21319147.777
 128024636.383 6  99759486.99543  24362285.289                    24362297.148
 106683005.740 8  83129644.02846  20301102.563                    20301110.180
 113407837.143 7  88369760.65145  21580799.133                    21580805.727
 11  8  1 18  6 30.0000000  0 11G28G16G06G11G03G19G08G07G10G13G23
 124649670.753 6  97129787.29243  23720064.234                    23720074.000
 129680827.222 6 101050016.51243  24677447.508                    24677456.000
 125713241.755 6  97958399.73843  23922437.109                    23922447.453
 124843494.657 6  97280725.81343  23756922.695                    23756933.797
 115515322.866 7  90011970.80044  21981836.352                    21981845.504
 110192985.957 7  85864695.66346  20969024.781                    20969031.012
 121137699.773 7  94393090.01644  23051739.625                    23051747.223
 111982871.387 7  87259417.204 7  21309629.414                    21309637.219
 128070421.620 6  99795163.73043  24370997.492                    24371009.871
 106724310.342 7  83161829.41046  20308962.719                    20308970.488
 113498795.336 7  88440637.07445  21598107.844                    21598114.301
 11  8  1 18  7  0.0000000  0 11G28G16G06G11G03G19G08G07G10G13G23
 124591411.749 6  97084390.78743  23708977.945                    23708987.355
 129768623.863 6 101118429.39942  24694154.016                    24694162.707
 125804591.868 6  98029581.59843  23939821.617                    23939830.672
 124764218.072 6  97218951.99843  23741836.422                    23741848.348
 115596423.029 7  90075165.69744  21997269.305                    21997277.988
 110207260.549 7  85875818.73146  20971741.531                    20971747.719
 121065526.977 7  94336851.52044  23038005.102                    23038013.258
 111933016.990 7  87220569.629 7  21300142.359                    21300149.516
 128116486.666 6  99831058.46043  24379763.766                    24379775.770
 106766188.565 7  83194461.77046  20316931.570                    20316939.367
 113590120.812 7  88511799.69845  21615486.563                    21615493.305
 11  8  1 18  7 30.0000000  0 11G28G16G06G11G03G19G08G07G10G13G23
 124533370.205 6  97039163.74443  23697932.664                    23697942.625
 129856333.884 6 101186774.80442  24710844.828                    24710853.258
 125896199.789 6  98100964.33043  23957252.891                    23957262.594
 124684972.545 6  97157202.39843  23726756.852                    23726768.266
 115677938.479 7  90138684.20044  22012781.695                    22012790.160
 110222151.847 7  85887422.35446  20974575.141                    20974580.988
 120993324.958 7  94280590.23544  23024266.156                    23024274.129
 111883288.820 7  87181820.419 7  21290679.438                    21290687.063
 128162827.827 6  99867168.37843  24388582.211                    24388594.688
 106808638.734 8  83227539.79746  20325009.711                    20325017.527
 113681810.187 7  88583245.86945  21632935.078                    21632941.375
 11  8  1 18  8  0.0000000  0 11G28G16G06G11G03G19G08G07G10G13G23
 124475546.393 6  96994106.34243  23686928.414                    23686938.938
 129943957.199 6 101255052.64242  24727519.297                    24727527.422
 125988063.601 6  98172546.48243  23974735.141                    23974743.719
 124605761.422 6  97095479.58643  23711683.266                    23711695.016
 115759866.340 7  90202524.06444  22028372.078                    22028380.367
 110237659.704 7  85899506.41246  20977526.234                    20977532.273
 120921094.696 7  94224306.96544  23010520.578                    23010528.777
 111833689.300 7  87143171.455 7  21281240.680                    21281248.223
 128209443.211 6  99903491.97543  24397452.719                    24397464.750
 106851660.193 7  83261062.98446  20333196.297                    20333203.793
 113773861.507 7  88654974.08845  21650451.508                    21650458.098
 11  8  1 18  8 30.0000000  0 11G28G16G06G11G03G19G08G07G10G13G23
 124417940.241 6  96949218.56543  23675966.297                    23675976.770
 130031492.845 6 101323262.23142  24744176.688                    24744185.242
 126080180.810 6  98244326.08343  23992263.617                    23992273.336
 124526587.694 6  97033785.93643  23696617.383                    23696628.672
 115842204.326 7  90266683.49444  22044040.953                    22044048.992
 110253783.612 7  85912070.50446  20980594.844                    20980600.703
 120848836.738 7  94168002.12244  22996770.438                    22996779.383
 111784219.602 8  87104623.666 7  21271827.141                    21271834.582
 128256329.891 6  99940026.94343  24406375.148                    24406387.480
 106895252.130 8  83295030.70946  20341491.492                    20341499.180
 113866272.101 7  88726982.25745  21668037.141                    21668043.355
 11  8  1 18  9  0.0000000  0 11G28G16G06G11G03G19G08G07G10G13G23
 124360550.669 6  96904499.54043  23665045.977                    23665056.051
 130118939.752 6 101391402.62342  24760816.758                    24760826.387
 126172548.093 6  98316300.53543  24009841.516                    24009850.301
 124447453.904 6  96972123.39843  23681557.945                    23681569.695
 115924948.965 7  90331159.80944  22059786.000                    22059794.508
 110270522.429 7  85925113.73546  20983779.703                    20983785.820
 120776551.900 7  94111676.30444  22983014.945                    22983023.746
 111734880.894 8  87066177.932 7  21262438.508                    21262445.395
 128303484.726 6  99976770.87943  24415348.195                    24415360.223
 106939412.243 8  83329441.15346  20349895.172                    20349902.395
 113959038.714 7  88799267.83645  21685689.828                    21685696.465
 11  8  1 18  9 30.0000000  0 11G28G16G06G11G03G19G08G07G10G13G23
 124303377.948 6  96859949.46043  23654166.891                    23654175.906
 130206297.503 6 101459473.50542  24777441.930                    24777450.031
 126265163.890 6  98388468.64043  24027465.203                    24027474.523
 124368362.981 6  96910494.27243  23666507.109                    23666518.754
 116008098.143 7  90395951.35244  22075608.875                    22075617.258
 110287876.287 7  85938636.21946  20987082.273                    20987088.141
 120704241.149 7  94055330.28844  22969255.031                    22969263.422
 111685675.320 8  87027835.946 7  21253074.938                    21253081.926
 128350905.988 6 100013722.40143  24424371.953                    24424384.168
 106984140.311 7  83364294.16546  20358406.711                    20358414.375
 114052159.485 7  88871829.38745  21703409.875                    21703416.625
 11  8  1 18 10  0.0000000  0 11G28G16G06G11G03G19G08G07G10G13G23
 124246422.423 6  96815568.65843  23643327.805                    23643337.859
 130293565.195 6 101527474.27142  24794047.969                    24794056.258
 126358025.438 6  98460828.24343  24045136.328                    24045145.535
 124289318.040 6  96848900.99943  23651465.727                    23651477.055
 116091648.860 7  90461055.80344  22091507.703                    22091516.438
 110305844.667 7  85952637.55546  20990501.617                    20990507.199
 120631905.365 6  93998964.79644  22955489.086                    22955498.258
 111636604.221 8  86989598.749 7  21243737.328                    21243744.027
 128398590.744 6 100050879.26743  24433446.805                    24433458.824
 107029435.044 8  83399588.73746  20367026.102                    20367033.277
 114145631.825 7  88944664.88345  21721197.086                    21721203.973
 11  8  1 18 10 30.0000000  0 11G28G16G06G11G03G19G08G07G10G13G23
 124189682.820 6  96771356.09343  23632530.188                    23632540.328
 130380741.577 6 101595403.88642  24810637.172                    24810645.453
 126451129.317 6  98533376.69443  24062853.266                    24062862.391
 124210321.337 6  96787345.33643  23636433.023                    23636444.027
 116175597.848 7  90526470.56544  22107483.258                    22107491.484
 110324425.798 8  85967116.34546  20994037.320                    20994043.160
 120559544.548 7  93942579.77744  22941720.453                    22941728.953
 111587668.111 8  86951466.737 7  21234424.492                    21234431.824
 128446535.676 6 100088238.83543  24442570.664                    24442582.234
 107075294.181 8  83435323.10246  20375752.813                    20375760.227
 114239452.106 7  89017771.50345  21739050.719                    21739057.961
 11  8  1 18 11  0.0000000  0 11G28G16G06G11G03G19G08G07G10G13G23
 124133159.379 6  96727311.93743  23621774.734                    23621783.469
 130467826.085 6 101663261.87042  24827208.398                    24827216.973
 126544473.886 6  98606112.67243  24080615.867                    24080625.445
 124131376.308 7  96725829.91543  23621409.906                    23621420.945
 116259943.229 7  90592194.20844  22123533.508                    22123541.773
 110343619.686 7  85982072.62046  20997689.930                    20997695.336
 120487160.905 7  93886176.99044  22927945.969                    22927954.805
 111538869.598 8  86913441.938 7  21225138.539                    21225146.270
 128494738.699 6 100125799.55643  24451743.258                    24451754.590
 107121717.834 8  83471497.34846  20384587.031                    20384594.176
 114333618.618 7  89091147.91745  21756970.008                    21756977.043
 11  8  1 18 11 30.0000000  0 11G28G16G06G11G03G19G08G07G10G13G23
 124076851.854 6  96683436.03843  23611059.984                    23611068.543
 130554817.958 6 101731047.66342  24843761.844                    24843771.613
 126638056.416 6  98679034.07143  24098424.469                    24098433.703
 124052485.887 6  96664357.05043  23606397.484                    23606408.336
 116344681.573 7  90658224.06044  22139658.617                    22139667.105
 110363425.642 7  85997505.82646  21001458.742                    21001464.598
 120414755.109 7  93829756.93044  22914166.797                    22914176.008
 111490210.106 8  86875525.481 7  21215879.063                    21215885.934
 128543197.036 6 100163559.22442  24460964.430                    24460975.969
 107168704.113 8  83508110.00446  20393528.117                    20393535.281
 114428128.625 7  89164791.98445  21774954.914                    21774961.641
 11  8  1 18 12  0.0000000  0 11G28G16G06G11G03G19G08G07G10G13G23
 124020759.506 6  96639727.83943  23600385.336                    23600394.645
 130641716.423 6 101798760.72742  24860299.836                    24860307.492
 126731874.055 6  98752138.69443  24116278.055                    24116286.773
 123973652.878 6  96602928.93943  23591395.547                    23591406.824
 116429809.709 7  90724557.65044  22155857.945                    22155866.055
 110383842.588 7  86013415.12646  21005344.406                    21005349.781
 120342327.463 7  93773319.84544  22900384.867                    22900393.703
 111441690.466 8  86837717.986 7  21206645.797                    21206652.883
 128591907.698 6 100201515.45843  24470233.320                    24470244.930
 107216251.645 8  83545160.00546  20402576.180                    20402583.406
 114522978.972 7  89238701.25045  21793004.273                    21793011.207
 11  8  1 18 12 30.0000000  0 11G28G16G06G11G03G19G08G07G10G13G23
 123964882.436 6  96596187.37543  23589752.109                    23589761.824
 130728520.794 6 101866400.48642  24876817.484                    24876825.887
 126825924.492 6  98825424.72443  24134175.008                    24134184.082
 123894880.278 7  96541547.89943  23576405.875                    23576417.078
 116515325.551 7  90791193.32544  22172131.234                    22172139.715
 110404870.166 7  86029800.24646  21009345.586                    21009351.297
 120269879.003 7  93716866.51844  22886598.258                    22886607.059
 111393312.393 8  86800020.812 7  21197439.758                    21197447.445
 128640868.498 6 100239666.64643  24479550.102                    24479562.297
 107264359.357 8  83582646.50846  20411730.961                    20411738.289
 114618167.138 7  89312873.76645  21811118.102                    21811124.707
 11  8  1 18 13  0.0000000  0 10G28G06G11G03G19G08G07G10G13G23
 123909219.944 6  96552814.09543  23579160.719                    23579169.219
 126920204.965 6  98898889.99343  24152114.844                    24152125.082
 123816170.750 6  96480216.02343  23561427.125                    23561438.547
 116601226.009 7  90858128.71644  22188477.789                    22188485.637
 110426507.315 7  86046660.36246  21013463.047                    21013468.629
 120197410.411 7  93660397.52744  22872808.039                    22872817.086
 111345077.528 8  86762435.210 7  21188261.156                    21188268.566
 128690076.545 6 100278010.47642  24488915.297                    24488926.531
 107313025.316 8  83620568.00346  20420991.711                    20420999.289
 114713690.382 7  89387307.37345  21829295.516                    21829302.836
 11  8  1 18 13 30.0000000  0 10G28G06G11G03G19G08G07G10G13G23
 123853772.429 6  96509608.32943  23568608.492                    23568617.793
 127014713.483 6  98972532.97543  24170100.539                    24170109.363
 123737527.796 7  96418936.00443  23546462.023                    23546473.406
 116687508.865 7  90925362.06044  22204896.484                    22204905.383
 110448753.727 7  86063995.23046  21017696.242                    21017701.953
 120124923.391 7  93603914.15944  22859013.828                    22859023.008
 111296987.970 8  86724962.843 7  21179110.055                    21179117.617
 128739529.529 6 100316545.21943  24498326.375                    24498336.363
 107362248.815 8  83658923.94746  20430358.117                    20430366.281
 114809546.612 7  89462000.45645  21847536.180                    21847543.586
 11  8  1 18 14  0.0000000  0 10G28G06G11G03G19G08G07G10G13G23
 123798538.482 6  96466568.96343  23558097.844                    23558106.922
 127109446.487 6  99046350.86343  24188127.773                    24188136.793
 123658953.318 6  96357709.34343  23531509.891                    23531520.785
 116774170.225 7  90992890.38544  22221388.141                    22221396.051
 110471607.308 7  86081803.22646  21022045.078                    21022051.094
 120052418.138 7  93547416.59544  22845217.016                    22845225.871
 111249044.145 8  86687604.038 7  21169986.070                    21169994.039
 128789223.789 6 100355267.93242  24507782.164                    24507793.051
 107412027.523 7  83697712.52646  20439830.875                    20439838.586
 114905731.778 7  89536949.83245  21865839.898                    21865847.016
 11  8  1 18 14 30.0000000  0 10G28G06G11G03G19G08G07G10G13G23
 123743518.456 6  96423696.33243  23547628.141                    23547637.039
 127204402.357 6  99120342.39843  24206195.977                    24206206.082
 123580451.218 6  96296539.06943  23516571.648                    23516582.109
 116861207.715 7  91060711.76144  22237950.367                    22237959.445
 110495068.180 7  86100084.43546  21026509.609                    21026515.754
 119979895.637 7  93490905.61344  22831416.328                    22831425.043
 111201248.087 8  86650360.372 7  21160890.953                    21160898.512
 128839157.194 6 100394176.99443  24517284.102                    24517295.098
 107462360.868 7  83736933.28646  20449409.648                    20449416.871
 115002244.305 7  89612154.31545  21884205.922                    21884212.883
 11  8  1 18 15  0.0000000  0 10G28G06G11G03G19G08G07G10G13G23
 123688711.880 7  96380990.00343  23537198.141                    23537207.418
 127299578.191 6  99194505.36643  24224308.383                    24224317.426
 123502023.884 6  96235427.05343  23501646.813                    23501657.727
 116948618.632 7  91128824.13144  22254583.711                    22254592.621
 110519135.068 7  86118837.87146  21031089.117                    21031095.152
 119907357.050 7  93434382.06744  22817612.602                    22817620.680
 111153601.513 8  86613233.182 7  21151824.031                    21151831.707
 128889327.208 6 100433270.37543  24526831.055                    24526842.426
 107513247.255 8  83776584.99246  20459092.414                    20459099.980
 115099081.262 7  89687611.57245  21902633.242                    21902640.258
 11  8  1 18 15 30.0000000  0 10G28G06G11G03G19G08G07G10G13G23
 123634118.098 6  96338449.49043  23526809.922                    23526818.840
 127394971.338 6  99268837.61643  24242460.352                    24242470.871
 123423674.233 6  96174375.56343  23486737.141                    23486748.188
 117036399.985 7  91197225.14744  22271288.977                    22271297.156
 110543806.700 7  86138062.53946  21035784.188                    21035790.082
 119834803.116 7  93377846.55944  22803806.227                    22803814.695
 111106105.328 8  86576223.193 7  21142786.000                    21142793.871
 128939730.532 6 100472545.57943  24536422.336                    24536434.125
 107564684.625 8  83816666.02946  20468880.648                    20468888.477
 115196239.483 7  89763319.17145  21921121.813                    21921129.246
 11  8  1 18 16  0.0000000  0 10G28G06G11G03G19G08G07G10G13G23
 123579737.055 6  96296074.77443  23516460.781                    23516470.160
 127490579.350 6  99343337.31043  24260655.625                    24260664.313
 123345405.521 6  96113387.10943  23471842.898                    23471853.699
 117124548.955 7  91265912.63844  22288062.531                    22288071.152
 110569082.688 7  86157758.13246  21040593.875                    21040599.922
 119762235.314 7  93321300.24744  22789996.898                    22790005.477
 111058761.915 8  86539332.224 7  21133776.969                    21133784.496
 128990364.765 6 100512000.73642  24546058.484                    24546069.359
 107616671.993 7  83857175.64246  20478773.813                    20478781.629
 115293716.762 7  89839275.39145  21939671.352                    21939678.422
 11  8  1 18 16 30.0000000  0 10G28G06G11G03G19G08G07G10G13G23
 123525568.140 6  96253865.34043  23506152.953                    23506162.152
 127586399.507 6  99418002.31643  24278888.961                    24278898.082
 123267220.447 6  96052463.85243  23456965.844                    23456975.727
 117213062.371 7  91334884.10444  22304906.633                    22304914.852
 110594961.681 7  86177923.60646  21045518.555                    21045524.289
 119689654.052 7  93264743.47844  22776184.813                    22776193.277
 111011572.326 8  86502561.132 7  21124796.781                    21124804.184
 129041227.195 6 100551633.65643  24555737.719                    24555748.781
 107669207.511 8  83898112.38246  20488770.633                    20488778.434
 115391509.794 7  89915477.64645  21958281.023                    21958288.047
 11  8  1 18 17  0.0000000  0 10G28G06G11G03G19G08G07G10G13G23
 123471611.726 7  96211821.48243  23495885.031                    23495894.855
 127682429.836 6  99492831.04843  24297162.266                    24297172.105
 123189122.330 7  95991608.31343  23442102.977                    23442113.809
 117301937.686 7  91404137.56944  22321818.758                    22321826.879
 110621443.391 7  86198558.72646  21050557.875                    21050563.980
 119617060.922 7  93208177.43944  22762370.852                    22762378.898
 110964538.587 8  86465911.481 7  21115847.047                    21115854.238
 129092315.174 5 100591442.39542  24565458.305                    24565471.063
 107722290.049 8  83939475.37346  20498872.344                    20498880.258
 115489616.664 7  89991924.45045  21976950.125                    21976957.055
 11  8  1 18 17 30.0000000  0 10G28G06G11G03G19G08G07G10G13G23
 123417866.693 6  96169942.34543  23485657.430                    23485667.008
 127778667.345 6  99567821.21342  24315476.406                    24315485.758
 123111114.042 6  95930822.80443  23427258.969                    23427269.371
 117391172.114 6  91473670.87244  22338799.352                    22338807.750
 110648526.050 7  86219662.11646  21055711.539                    21055717.281
 119544456.652 7  93151602.69644  22748554.953                    22748563.012
 110917662.042 8  86429384.312 7  21106926.398                    21106933.695
 129143625.759 6 100631424.58242  24575223.156                    24575235.469
 107775918.079 8  83981263.41746  20509077.133                    20509085.203
 115588033.888 7  90068613.09645  21995678.219                    21995685.570
 11  8  1 18 18  0.0000000  0 10G28G06G11G03G19G08G07G10G13G23
 123364332.511 6  96128227.50943  23475470.273                    23475479.828
 127875109.469 6  99642970.86443  24333829.023                    24333838.117
 123033198.478 6  95870109.48543  23412431.828                    23412442.367
 117480762.662 7  91543481.68444  22355848.445                    22355856.414
 110676208.423 7  86241232.81046  21060979.547                    21060984.969
 119471841.934 7  93095019.85144  22734736.438                    22734744.879
 110870944.198 8  86392980.810 7  21098036.477                    21098043.738
 129195156.040 6 100671577.93243  24585028.695                    24585041.066
 107830089.599 8  84023474.96946  20519385.875                    20519393.332
 115686758.921 7  90145541.57845  22014465.055                    22014472.465
 11  8  1 18 18 30.0000000  0 10G28G06G11G03G19G08G07G10G13G23
 123311009.009 7  96086676.86243  23465322.984                    23465332.566
 127971753.771 6  99718278.10343  24352219.422                    24352228.355
 122955378.317 6  95809470.55243  23397622.789                    23397633.531
 117570706.582 6  91613567.83344  22372963.352                    22372972.336
 110704489.458 7  86263269.98846  21066360.953                    21066366.578
 119399217.966 7  93038429.78344  22720916.539                    22720924.941
 110824386.524 7  86356702.115 7  21089176.836                    21089184.102
 129246903.393 6 100711900.41543  24594876.516                    24594889.027
 107884803.059 8  84066108.80146  20529797.742                    20529804.926
 115785788.919 7  90222707.70045  22033309.539                    22033316.785
 11  8  1 18 19  0.0000000  0 10G28G06G11G03G19G08G07G10G13G23
 123257895.891 7  96045290.10943  23455215.867                    23455225.902
 128068597.547 6  99793740.71043  24370648.820                    24370657.473
 122877656.678 6  95748908.37643  23382833.133                    23382843.477
 117661000.825 7  91683926.95444  22390146.367                    22390154.773
 110733368.234 7  86285772.92746  21071856.461                    21071862.281
 119326585.805 7  92981833.34144  22707095.047                    22707103.105
 110777990.845 8  86320549.644 7  21080347.773                    21080355.668
 129298865.123 6 100752389.99943  24604764.586                    24604777.527
 107940056.855 7  84109163.68446  20540311.734                    20540319.328
 115885120.955 7  90300109.17244  22052212.625                    22052219.383
 11  8  1 18 19 30.0000000  0 10G28G06G11G03G19G08G07G10G13G23
 123204992.725 7  96004066.97644  23445149.180                    23445158.531
 128165638.709 6  99869357.14043  24389114.000                    24389124.285
 122800036.960 6  95688425.62943  23368061.961                    23368072.730
 117751642.580 6  91754556.87144  22407394.938                    22407402.984
 110762843.895 7  86308740.96546  21077465.602                    21077471.477
 119253946.924 7  92925231.64044  22693272.570                    22693280.500
 110731758.746 8  86284524.641 7  21071550.336                    21071557.387
 129351038.658 6 100793044.56643  24614692.914                    24614705.215
 107995849.436 8  84152638.39546  20550928.961                    20550936.379
 115984752.687 7  90377744.18444  22071172.031                    22071179.273
 11  8  1 18 20  0.0000000  0 10G28G06G11G03G19G08G07G10G13G23
 123152298.583 6  95963006.70144  23435121.648                    23435131.313
 128262874.143 6  99945125.01643  24407618.195                    24407628.066
 122722521.746 6  95628024.32743  23353311.227                    23353322.121
 117842628.570 7  91825455.03744  22424708.461                    22424717.020
 110792914.541 7  86332172.62046  21083187.734                    21083193.570
 119181301.957 7  92868625.20144  22679448.219                    22679457.453
 110685691.586 8  86248628.174 7  21062784.117                    21062791.164
 129403420.576 5 100833861.51243  24624661.484                    24624672.984
 108052178.813 8  84196531.38746  20561648.117                    20561655.676
 116084680.670 7  90455610.03944  22090187.516                    22090194.516
 11  8  1 18 20 30.0000000  0 10G28G06G11G03G19G08G07G10G13G23
 123099813.275 6  95922109.18944  23425133.656                    23425143.277
 128360301.544 6 100021042.44243  24426157.578                    24426167.633
 122645113.857 6  95567706.63543  23338581.563                    23338591.582
 117933956.477 7  91896619.59744  22442088.070                    22442096.742
 110823579.360 7  86356067.25346  21089022.961                    21089028.773
 119108651.744 7  92812014.69644  22665623.031                    22665631.832
 110639790.979 8  86212861.478 7  21054049.148                    21054056.340
 129456008.581 6 100874839.09543  24634668.523                    24634680.688
 108109043.343 8  84240841.37746  20572469.070                    20572477.020
 116184902.441 7  90533704.81345  22109258.922                    22109266.473
 11  8  1 18 21  0.0000000  0 10G28G06G11G03G19G08G07G10G13G23
 123047536.576 7  95881374.16844  23415185.594                    23415195.301
 128457918.408 6 100097107.53143  24444733.266                    24444743.266
 122567816.629 6  95507475.18943  23323871.883                    23323882.340
 118025623.100 7  91968048.11444  22459531.383                    22459540.367
 110854837.221 7  86380424.00546  21094971.492                    21094977.121
 119035998.066 7  92755401.48244  22651798.039                    22651806.473
 110594059.015 8  86177226.186 7  21045346.711                    21045354.234
 129508799.924 6 100915975.07443  24644714.328                    24644727.496
 108166441.416 8  84285567.12246  20583391.742                    20583399.313
 116285415.249 7  90612026.37945  22128386.250                    22128393.836
 11  8  1 18 21 30.0000000  0 10G28G06G11G03G19G08G07G10G13G23
 122995468.041 7  95840801.37244  23405277.945                    23405286.863
 128555722.232 6 100173318.27443  24463345.078                    24463354.039
 122490633.154 6  95447332.39143  23309184.102                    23309194.238
 118117625.561 7  92039738.32444  22477039.070                    22477047.227
 110886686.766 7  86405241.83346  21101032.102                    21101038.195
 118963341.497 7  92698785.99644  22637972.461                    22637979.871
 110548497.085 8  86141723.406 7  21036676.398                    21036684.000
 129561791.774 6 100957267.29543  24654798.945                    24654810.555
 108224371.329 8  84330707.28646  20594415.609                    20594423.145
 116386216.450 7  90690572.64344  22147568.828                    22147575.758
 11  8  1 18 22  0.0000000  0 10G28G06G11G03G19G08G07G10G13G23
 122943607.319 7  95800390.51944  23395408.273                    23395417.527
 128653710.994 6 100249673.11343  24481991.969                    24482000.797
 122413566.534 7  95387280.65444  23294518.719                    23294529.621
 118209961.518 6  92111688.39044  22494610.273                    22494618.477
 110919127.051 7  86430519.97846  21107205.211                    21107211.133
 118890683.223 7  92642169.21544  22624145.172                    22624153.949
 110503107.200 8  86106354.690 7  21028038.953                    21028046.184
 129614981.519 6 100998713.74743  24664920.086                    24664932.332
 108282831.894 7  84376260.94246  20605539.516                    20605547.391
 116487303.202 7  90769341.43944  22166804.766                    22166811.543
 11  8  1 18 22 30.0000000  0 10G28G06G11G03G19G08G07G10G13G23
 122891953.575 7  95760140.94544  23385579.000                    23385587.984
 128751881.301 6 100326169.43843  24500672.672                    24500682.730
 122336619.429 6  95327322.03543  23279876.602                    23279886.527
 118302627.450 6  92183895.58444  22512244.414                    22512252.129
 110952156.310 7  86456257.04846  21113490.578                    21113496.480
 118818024.430 7  92585552.00744  22610319.391                    22610326.930
 110457890.241 7  86071120.693 7  21019434.680                    21019441.875
 129668366.060 6 101040312.00043  24675078.813                    24675091.211
 108341820.354 8  84422225.94946  20616764.883                    20616772.844
 116588672.484 7  90848330.37245  22186094.117                    22186101.926
 11  8  1 18 23  0.0000000  0 10G28G06G11G03G19G08G07G10G13G23
 122840506.167 6  95720052.13144  23375788.664                    23375798.203
 128850230.911 6 100402805.44543  24519388.203                    24519398.027
 122259794.504 6  95267458.61843  23265256.773                    23265266.531
 118395620.345 6  92256357.54644  22529940.172                    22529948.316
 110985773.078 7  86482451.93246  21119887.578                    21119893.477
 118745366.093 7  92528935.16444  22596492.133                    22596501.004
 110412848.029 8  86036022.877 7  21010863.266                    21010870.738
 129721942.539 6 101082059.78343  24685274.969                    24685286.156
 108401334.941 7  84468600.92246  20628090.594                    20628097.945
 116690321.115 7  90927536.97144  22205437.695                    22205445.102
 11  8  1 18 23 30.0000000  0 10G28G06G11G03G19G08G07G10G13G23
 122789265.023 7  95680124.07643  23366038.258                    23366047.383
 128948757.294 6 100479579.23643  24538136.516                    24538146.887
 122183095.284 6  95207693.13343  23250661.258                    23250671.281
 118488937.623 7  92329072.27044  22547697.422                    22547705.512
 111019976.169 7  86509103.69646  21126395.977                    21126402.125
 118672709.879 7  92472319.95744  22582666.484                    22582675.094
 110367982.753 8  86001062.936 7  21002326.148                    21002333.043
 129775708.728 6 101123955.39943  24695505.852                    24695518.176
 108461374.184 7  84515384.71846  20639515.461                    20639523.262
 116792246.569 7  91006959.27544  22224833.117                    22224840.941
 11  8  1 18 24  0.0000000  0 10G28G06G11G03G19G08G07G10G13G23
 122738229.781 6  95640356.42543  23356326.023                    23356335.020
 129047458.397 6 100556489.14443  24556920.141                    24556928.758
 122106524.874 6  95148028.05943  23236090.391                    23236099.574
 118582576.703 6  92402037.76044  22565515.406                    22565525.344
 111054764.731 7  86536211.67346  21133016.344                    21133022.320
 118600056.602 7  92415707.05944  22568840.648                    22568849.398
 110323296.183 8  85966242.237 7  20993822.164                    20993829.367
 129829661.594 6 101165996.49543  24705772.273                    24705784.805
 108521936.491 8  84562576.08346  20651040.008                    20651047.867
 116894446.395 7  91086595.38345  22244281.531                    22244289.180
 11  8  1 18 24 30.0000000  0 10G28G06G11G03G19G08G07G10G13G23
 122687399.345 6  95600748.38043  23346653.000                    23346662.574
 129146331.162 6 100633532.80643  24575734.242                    24575743.504
 122030085.980 6  95088465.46543  23221544.602                    23221554.039
 118676534.172 6  92475251.32644  22583396.211                    22583404.734
 111090136.711 7  86563774.27146  21139747.672                    21139753.379
 118527406.713 7  92359096.78544  22555016.063                    22555024.742
 110278789.091 8  85931561.404 7  20985353.086                    20985360.016
 129883797.948 6 101208180.54342  24716074.344                    24716086.414
 108583019.287 8  84610173.05146  20662663.797                    20662671.629
 116996917.045 7  91166442.51644  22263781.242                    22263788.605
 11  8  1 18 25  0.0000000  0 10G28G06G11G03G19G08G07G10G13G23
 122636773.468 6  95561299.77743  23337019.219                    23337028.563
 129245373.428 6 100710708.57643  24594581.477                    24594590.758
 121953781.811 6  95029007.82644  23207023.758                    23207033.496
 118770807.481 6  92548711.02644  22601335.602                    22601344.730
 111126090.842 8  86591790.48646  21146588.805                    21146594.996
 118454762.695 7  92302491.09044  22541191.977                    22541200.422
 110234463.585 7  85897022.054 7  20976918.242                    20976925.324
 129938115.034 6 101250505.43143  24726411.320                    24726423.156
 108644620.869 8  84658174.24646  20674386.328                    20674393.973
 117099656.193 7  91246498.84944  22283332.070                    22283339.539
 11  8  1 18 25 30.0000000  0 10G28G06G11G03G19G08G07G10G13G23
 122586351.645 6  95522010.11643  23327424.344                    23327433.555
 129344582.412 6 100788014.21842  24613461.336                    24613469.645
 121877615.132 6  94969657.31543  23192530.063                    23192539.137
 118865393.658 6  92622414.51044  22619334.938                    22619343.379
 111162625.948 7  86620259.41446  21153541.266                    21153547.582
 118382125.169 7  92245890.45844  22527369.750                    22527378.527
 110190321.624 8  85862625.730 7  20968518.008                    20968525.063
 129992610.506 6 101292969.33342  24736781.531                    24736792.953
 108706739.603 8  84706578.42845  20686206.969                    20686214.762
 117202660.947 7  91326762.17244  22302933.234                    22302940.590
 11  8  1 18 26  0.0000000  0 10G28G06G11G03G19G08G07G10G13G23
 122536133.607 6  95482879.25943  23317868.125                    23317877.281
 129443955.967 6 100865448.08642  24632369.766                    24632379.906
 121801589.544 6  94910416.78343  23178062.727                    23178072.348
 118960290.269 6  92696359.87344  22637393.344                    22637401.980
 111199740.611 7  86649179.95246  21160604.430                    21160610.102
 118309495.655 7  92189296.07444  22513548.875                    22513557.500
 110146365.181 8  85828373.966 7  20960153.492                    20960160.984
 130047281.489 6 101335569.96742  24747184.977                    24747197.238
 108769373.960 8  84755384.38346  20698125.805                    20698133.570
 117305928.525 7  91407230.28344  22322585.031                    22322592.234
 11  8  1 18 26 30.0000000  0 10G28G06G11G03G19G08G07G10G13G23
 122486118.351 6  95443906.41744  23308350.695                    23308359.645
 129543491.163 5 100943007.88443  24651310.859                    24651321.660
 121725707.399 6  94851288.00044  23163622.047                    23163631.820
 119055493.100 6  92770543.86543  22655509.852                    22655518.297
 111237432.734 7  86678550.45546  21167776.234                    21167782.738
 118236874.793 7  92132708.42144  22499729.664                    22499738.008
 110102595.095 8  85794267.421 7  20951824.125                    20951831.605
 130102125.000 6 101378305.10442  24757621.695                    24757633.453
 108832521.029 8  84804589.87046  20710142.523                    20710150.195
 117409455.729 7  91487900.69844  22342285.344                    22342292.773
 11  8  1 18 27  0.0000000  0 10G28G06G11G03G19G08G07G10G13G23
 122436305.860 7  95405091.61343  23298871.766                    23298880.762
 129643185.981 5 101020692.11842  24670282.438                    24670292.609
 121649972.229 7  94792273.72144  23149209.750                    23149220.082
 119151000.160 6  92844964.93043  22673684.172                    22673692.426
 111275701.344 7  86708370.17246  21175058.664                    21175064.949
 118164263.951 7  92076128.56644  22485912.219                    22485920.430
 110059013.605 8  85760307.830 7  20943531.000                    20943538.203
 130157138.686 6 101421172.74642  24768089.508                    24768101.949
 108896179.382 8  84854193.74446  20722256.391                    20722264.133
 117513240.123 7  91568771.53744  22362034.695                    22362041.992
 11  8  1 18 27 30.0000000  0 10G28G06G11G03G19G08G07G10G13G23
 122386694.988 7  95366433.87343  23289430.914                    23289439.262
 129743037.461 6 101098498.38542  24689283.883                    24689293.664
 121574386.571 6  94733375.95544  23134826.281                    23134836.660
 119246808.350 6  92919620.62543  22691915.906                    22691924.469
 111314544.473 7  86738637.55546  21182450.609                    21182456.215
 118091663.930 7  92019557.17344  22472096.742                    22472105.758
 110015622.101 8  85726496.277 7  20935274.148                    20935281.164
 130212318.981 6 101464170.26642  24778590.883                    24778602.637
 108960346.723 8  84904194.23746  20734467.016                    20734474.488
 117617278.223 7  91649840.05144  22381832.133                    22381840.504
 11  8  1 18 28  0.0000000  0 10G28G06G11G03G19G08G07G10G13G23
 122337285.836 7  95327933.31744  23280029.047                    23280037.359
 129843043.487 6 101176425.15342  24708314.625                    24708324.480
 121498953.865 7  94674597.35044  23120472.727                    23120482.297
 119342914.764 6  92994508.72243  22710204.898                    22710212.586
 111353960.823 7  86769351.60546  21189951.391                    21189957.160
 118019076.879 7  91962995.85744  22458283.953                    22458292.094
 109972422.766 8  85692834.465 7  20927053.609                    20927060.875
 130267663.673 6 101507295.87042  24789121.031                    24789134.941
 109025021.466 8  84954590.10246  20746773.898                    20746782.250
 117721567.756 7  91731104.49644  22401678.180                    22401685.980
 11  8  1 18 28 30.0000000  0 10G28G06G11G03G19G08G07G10G13G23
 122288077.332 7  95289589.11244  23270664.891                    23270672.867
 129943201.317 6 101254470.13242  24727374.445                    24727383.965
 121423676.862 7  94615940.07843  23106147.711                    23106157.520
 119439316.674 7  93069627.06743  22728548.727                    22728557.734
 111393948.615 8  86800510.91846  21197560.648                    21197565.992
 117946503.813 7  91906445.44344  22444473.773                    22444481.770
 109929416.584 8  85659323.162 7  20918869.539                    20918876.645
 130323169.415 6 101550546.98943  24799684.727                    24799697.664
 109090201.065 8  85005379.36545  20759177.570                    20759185.160
 117826105.250 7  91812562.14844  22421570.938                    22421578.398
 11  8  1 18 29  0.0000000  0 10G28G06G11G03G19G08G07G10G13G23
 122239068.987 7  95251400.90644  23261338.000                    23261347.051
 130043508.561 6 101332631.60642  24746461.492                    24746471.387
 121348558.754 6  94557406.61343  23091852.609                    23091862.074
 119536010.962 6  93144973.22043  22746949.289                    22746957.715
 111434505.911 7  86832114.01745  21205278.609                    21205284.195
 117873945.851 7  91849906.80744  22430666.258                    22430674.984
 109886605.792 8  85625964.106 7  20910723.016                    20910730.109
 130378833.395 6 101593921.46442  24810277.445                    24810290.449
 109155883.486 8  85056560.44046  20771676.531                    20771684.055
 117930888.172 7  91894211.03844  22441510.750                    22441518.566
 11  8  1 18 29 30.0000000  0 10G28G06G11G03G19G08G07G10G13G23
 122190260.301 7  95213368.26444  23252050.898                    23252059.441
 130143962.788 6 101410907.56542  24765578.117                    24765586.789
 121273602.421 6  94498999.17844  23077589.625                    23077598.430
 119632994.564 6  93220544.83743  22765404.773                    22765413.238
 111475631.941 7  86864160.27246  21213104.875                    21213110.145
 117801404.147 7  91793380.83444  22416862.203                    22416871.191
 109843992.134 8  85592758.675 7  20902613.781                    20902621.344
 130434653.394 5 101637417.48142  24820900.219                    24820912.785
 109222067.182 8  85108132.12746  20784270.570                    20784278.723
 118035913.638 7  91976048.92044  22461496.086                    22461504.617
 11  8  1 18 30  0.0000000  0 10G28G06G11G03G19G08G07G10G13G23
 122141650.635 7  95175490.67044  23242799.945                    23242808.961
 130244561.391 6 101489296.01342  24784720.469                    24784730.098
 121198810.988 7  94440720.23944  23063356.453                    23063366.160
 119730264.981 7  93296339.92543  22783914.914                    22783923.566
 111517324.508 8  86896647.98346  21221038.156                    21221044.098
 117728880.131 7  91736868.65744  22403061.078                    22403069.668
 109801577.029 8  85559707.958 7  20894542.273                    20894549.414
 130490625.962 5 101681032.32342  24831550.992                    24831564.035
 109288749.533 8  85160092.36645  20796959.922                    20796968.047
 118141178.621 7  92058073.43244  22481527.297                    22481535.836
 11  8  1 18 30 30.0000000  0 10G28G06G11G03G19G08G07G10G13G23
 122093239.770 7  95137768.02444  23233587.820                    23233596.691
 130345302.224 5 101567795.33342  24803891.617                    24803901.043
 121124187.575 7  94382572.21644  23049156.977                    23049165.566
 119827819.275 6  93372356.22043  22802478.430                    22802487.223
 111559582.205 8  86929576.05846  21229079.547                    21229085.410
 117656374.999 7  91680371.17444  22389264.016                    22389272.074
 109759362.719 8  85526813.704 7  20886509.398                    20886516.207
 130546748.442 5 101724763.93142  24842232.078                    24842244.375
 109355928.674 8  85212439.71445  20809743.547                    20809751.402
 118246680.352 7  92140282.42044  22501604.234                    22501612.570
 11  8  1 18 31  0.0000000  0 10G28G06G11G03G19G08G07G10G13G23
 122045026.961 7  95100199.67444  23224413.352                    23224421.516
 130446182.855 5 101646403.55142  24823087.930                    24823098.031
 121049735.349 6  94324557.59144  23034988.305                    23034997.957
 119925654.450 7  93448591.40343  22821096.313                    22821105.266
 111602403.218 7  86962943.07045  21237228.258                    21237234.008
 117583890.378 7  91623889.67944  22375470.492                    22375479.059
 109717350.703 8  85494077.073 7  20878514.602                    20878521.816
 130603018.243 5 101768610.44452  24852938.336                    24852952.508
 109423602.887 8  85265172.83646  20822621.859                    20822629.301
 118352416.129 7  92222673.76944  22521725.813                    22521733.367
 11  8  1 18 31 30.0000000  0 10G28G06G11G03G19G08G07G10G13G23
 121997011.129 7  95062784.84844  23215276.234                    23215284.551
 130547200.227 6 101725118.37642  24842311.523                    24842321.035
 120975456.958 6  94266678.39544  23020853.711                    23020863.090
 120023767.351 6  93525042.99043  22839766.563                    22839775.344
 111645785.369 7  86996747.33945  21245483.523                    21245489.402
 117511427.282 7  91567424.96944  22361681.414                    22361689.387
 109675542.538 8  85461499.298 7  20870559.078                    20870565.855
 130659432.371 5 101812569.43242  24863673.195                    24863687.719
 109491769.005 8  85318289.25645  20835593.813                    20835601.184
 118458382.447 7  92305244.77444  22541890.016                    22541898.258
 11  8  1 18 32  0.0000000  0 10G28G06G11G03G19G08G07G10G13G23
 121949192.479 6  95025523.64643  23206176.578                    23206184.598
 130648352.587 6 101803938.34542  24861559.883                    24861569.984
 120901356.081 6  94208937.56744  23006752.625                    23006761.773
 120122155.439 6  93601708.97243  22858488.813                    22858498.043
 111689727.713 7  87030988.12745  21253845.477                    21253851.285
 117438987.325 7  91510978.28144  22347896.195                    22347904.277
 109633940.278 8  85429081.955 7  20862642.008                    20862649.125
 130715987.978 5 101856638.46942  24874435.977                    24874450.703
 109560425.789 8  85371788.01545  20848658.375                    20848666.262
 118564577.329 7  92387993.87144  22562098.906                    22562105.875
 11  8  1 18 32 30.0000000  0 10G28G06G11G03G19G08G07G10G13G23
 121901569.189 7  94988414.66344  23197113.945                    23197122.914
 130749636.911 5 101882861.15142  24880833.273                    24880843.176
 120827435.039 7  94151336.82844  22992685.984                    22992695.086
 120220815.932 6  93678587.23643  22877264.063                    22877272.418
 111734227.647 7  87065663.40746  21262313.438                    21262319.895
 117366571.639 7  91454550.48844  22334115.992                    22334124.227
 109592545.453 7  85396826.256 7  20854764.805                    20854772.406
 130772682.215 5 101900815.68342  24885224.773                    24885239.121
 109629570.328 8  85425666.84845  20861815.594                    20861824.297
 118670997.226 7  92470918.30444  22582349.781                    22582357.707
 11  8  1 18 33  0.0000000  0  9G28G11G03G19G08G07G10G13G23
 121854141.597 6  94951458.18744  23188088.828                    23188096.805
 120753697.163 7  94093878.82343  22978654.172                    22978663.535
 120319745.717 6  93755675.34944  22896088.805                    22896097.824
 111779283.865 7  87100772.15145  21270887.688                    21270893.215
 117294181.880 7  91398142.92445  22320340.625                    22320349.035
 109551360.048 7  85364733.758 7  20846927.609                    20846934.738
 130829512.44615 101945098.78952  24896038.719                    24896053.262
 109699200.859 8  85479924.36645  20875066.836                    20875074.055
 118777639.007 7  92554015.64744  22602642.984                    22602651.141
 11  8  1 18 33 30.0000000  0  9G28G11G03G19G08G07G10G13G23
 121806909.185 7  94914653.79644  23179100.461                    23179109.156
 120680145.914 7  94036566.25344  22964657.648                    22964666.461
 120418941.963 6  93832971.09443  22914966.055                    22914974.625
 111824894.997 7  87136313.29645  21279566.781                    21279572.629
 117221819.525 7  91341756.72944  22306570.563                    22306579.164
 109510386.053 8  85332805.979 7  20839130.789                    20839137.750
 130886475.970 5 101989485.79042  24906879.188                    24906893.375
 109769315.424 8  85534559.05645  20888408.898                    20888416.977
 118884500.580 7  92637284.24844  22622978.320                    22622986.625
 11  8  1 18 34  0.0000000  0  9G28G11G03G19G08G07G10G13G23
 121759871.002 6  94878000.75044  23170149.508                    23170157.910
 120606783.898 7  93979401.14244  22950697.063                    22950706.570
 120518401.486 6  93910471.96543  22933892.234                    22933901.031
 111871058.902 7  87172285.18245  21288351.914                    21288357.531
 117149485.498 7  91285392.56944  22292805.719                    22292813.141
 109469624.891 7  85301044.046 7  20831374.086                    20831381.242
 130943569.893 5 102033974.45452  24917744.141                    24917758.215
 109839911.653 8  85589569.06545  20901843.125                    20901850.586
 118991578.607 7  92720721.48744  22643354.859                    22643363.020
 11  8  1 18 34 30.0000000  0  8G28G11G03G19G08G07G13G23
 121713027.021 7  94841499.03144  23161235.242                    23161244.020
 120533614.991 6  93922386.50344  22936774.203                    22936783.035
 120618122.095 6  93988176.29943  22952868.281                    22952877.195
 111917774.231 7  87208686.74745  21297240.969                    21297247.004
 117077181.633 7  91229051.92845  22279047.242                    22279055.492
 109429079.011 7  85269449.864 7  20823658.008                    20823665.719
 109910987.615 8  85644952.90645  20915368.141                    20915376.016
 119098870.814 7  92804325.63744  22663771.602                    22663780.059
 11  8  1 18 35  0.0000000  0  8G28G11G03G19G08G07G13G23
 121666375.926 6  94805147.61444  23152357.578                    23152366.344
 120460641.475 7  93865524.12744  22922887.016                    22922896.813
 120718100.511 6  94066081.52043  22971893.336                    22971903.082
 111965038.152 7  87245515.78545  21306234.992                    21306240.770
 117004908.916 7  91172735.56444  22265293.906                    22265301.996
 109388749.624 7  85238024.383 7  20815983.938                    20815991.090
 109982540.497 8  85700708.35945  20928984.750                    20928992.555
 119206373.588 7  92888093.88244  22684228.781                    22684236.883
 11  8  1 18 35 30.0000000  0  8G28G11G03G19G08G07G13G23
 121619917.214 7  94768946.09044  23143517.242                    23143525.348
 120387866.231 7  93808816.26844  22909038.133                    22909048.031
 120818333.788 6  94144185.33443  22990968.078                    22990976.031
 112012848.914 7  87282770.93845  21315334.008                    21315339.238
 116932669.084 7  91116444.81545  22251547.273                    22251554.992
 109348638.251 7  85206768.777 7  20808350.875                    20808358.066
 110054568.013 8  85756833.65845  20942690.969                    20942698.770
 119314084.079 7  92972023.97444  22704725.375                    22704733.750
 11  8  1 18 36  0.0000000  0  8G28G11G03G19G08G07G13G23
 121573649.879 7  94732893.69744  23134712.273                    23134720.641
 120315292.488 6  93752265.39244  22895227.992                    22895236.910
 120918818.688 6  94222485.20543  23010089.375                    23010097.945
 112061204.799 7  87320450.87045  21324535.680                    21324541.250
 116860463.184 7  91060180.51644  22237806.922                    22237814.434
 109308746.647 7  85175684.432 7  20800759.625                    20800766.813
 110127067.641 8  85813326.83345  20956487.344                    20956494.676
 119421999.001 7  93056113.34843  22725261.422                    22725269.281
 11  8  1 18 36 30.0000000  0  8G28G11G03G19G08G07G13G23
 121527573.591 7  94696990.15544  23125944.672                    23125952.840
 120242923.172 7  93695873.82844  22881456.594                    22881465.594
 121019552.882 6  94300979.30043  23029258.258                    23029267.309
 112110104.019 7  87358554.17245  21333840.320                    21333846.195
 116788292.940 7  91003943.99045  22224073.234                    22224081.559
 109269077.052 7  85144773.075 7  20793210.773                    20793217.922
 110200037.478 8  85870186.40445  20970372.750                    20970380.730
 119530115.954 7  93140360.13444  22745835.203                    22745843.613
 11  8  1 18 37  0.0000000  0  8G28G11G03G19G08G07G13G23
 121481687.650 7  94661234.95444  23117212.617                    23117221.043
 120170761.666 7  93639644.18244  22867725.016                    22867733.941
 121120533.501 6  94379665.48043  23048474.266                    23048483.207
 112159544.738 7  87397079.42045  21343248.891                    21343254.723
 116716159.555 7  90947736.18245  22210346.539                    22210354.305
 109229631.411 8  85114036.229 7  20785704.617                    20785712.039
 110273474.971 8  85927410.39445  20984347.516                    20984355.191
 119638432.160 7  93224762.19743  22766447.445                    22766456.270
 11  8  1 18 37 30.0000000  0  8G28G11G03G19G08G07G13G23
 121435991.118 7  94625627.35644  23108516.773                    23108525.375
 120098810.410 7  93583578.39144  22854032.336                    22854042.117
 121221757.119 6  94458540.97843  23067736.813                    23067745.508
 112209524.316 7  87436024.55845  21352759.719                    21352765.273
 116644064.275 7  90891558.05845  22196627.289                    22196634.879
 109190410.604 7  85083474.569 7  20778241.297                    20778248.449
 110347377.428 8  85984996.67545  20998410.938                    20998418.523
 119746943.873 6  93309316.58744  22787096.578                    22787105.133
 11  8  1 18 38  0.0000000  0  9G28G24G11G03G19G08G07G13G23
 121390483.254 7  94590166.74044  23099857.195                    23099864.777
 128166584.98816  99870171.59152  24389301.539                    24389316.508
 120027072.522 7  93527678.83244  22840380.836                    22840390.367
 121323220.846 6  94537603.56943  23087044.188                    23087053.359
 112260040.840 7  87475388.09945  21362372.398                    21362378.172
 116572008.805 7  90835410.97845  22182915.867                    22182924.141
 109151416.859 8  85053089.846 7  20770820.516                    20770827.980
 110421742.472 8  86042943.42345  21012561.852                    21012569.648
 119855648.400 7  93394021.23844  22807783.023                    22807790.902
 11  8  1 18 38 30.0000000  0  9G28G24G11G03G19G08G07G13G23
 121345163.237 7  94554852.50944  23091232.594                    23091240.438
 128092398.204 6  99812364.04842  24375183.625                    24375199.270
 119955550.927 7  93471947.83744  22826771.141                    22826780.102
 121424921.676 6  94616850.94343  23106397.469                    23106405.969
 112311092.092 7  87515168.30745  21372087.078                    21372092.871
 116499994.124 7  90779295.66045  22169211.648                    22169219.504
 109112651.311 8  85022882.943 7  20763444.047                    20763450.938
 110496567.604 8  86101248.68545  21026800.633                    21026808.871
 119964542.464 7  93478873.55344  22828504.750                    22828512.863
 11  8  1 18 39  0.0000000  0  9G28G24G11G03G19G08G07G13G23
 121300029.844 7  94519683.70144  23082644.555                    23082652.387
 128018142.541 6  99754502.85042  24361053.180                    24361068.715
 119884248.105 6  93416387.29944  22813202.594                    22813211.668
 121526856.493 6  94696280.66143  23125795.438                    23125803.477
 112362675.670 7  87555363.30445  21381903.367                    21381908.906
 116428021.609 7  90723213.21145  22155515.336                    22155523.871
 109074115.958 8  84992855.408 7  20756110.891                    20756117.809
 110571849.938 7  86159910.20445  21041126.586                    21041134.652
 120073623.024 7  93563871.20244  22849262.422                    22849270.625
 11  8  1 18 39 30.0000000  0  9G28G24G11G03G19G08G07G13G23
 121255083.395 7  94484660.56444  23074090.742                    23074099.336
 127943821.578 6  99696590.77842  24346909.961                    24346926.266
 119813168.200 7  93361000.44044  22799675.797                    22799685.117
 121629023.115 6  94775890.97743  23145237.109                    23145245.340
 112414790.584 7  87595972.33845  21391820.039                    21391825.992
 116356093.578 7  90667165.41945  22141828.320                    22141836.531
 109035813.550 7  84963009.398 7  20748821.875                    20748829.113
 110647588.117 8  86218926.92145  21055539.125                    21055547.039
 120182888.005 7  93649012.54644  22870054.906                    22870063.258
 11  8  1 18 40  0.0000000  0  9G28G24G11G03G19G08G07G13G23
 121210323.441 7  94449782.74444  23065573.477                    23065581.121
 127869438.193 6  99638630.11842  24332754.813                    24332771.277
 119742314.394 7  93305789.77744  22786193.406                    22786202.441
 121731419.188 6  94855680.10843  23164722.055                    23164730.328
 112467434.840 7  87636993.83945  21401838.359                    21401843.926
 116284211.812 7  90611153.70345  22128149.000                    22128157.488
 108997745.718 7  84933346.168 7  20741577.984                    20741585.016
 110723779.836 8  86278297.04445  21070037.898                    21070045.973
 120292334.681 7  93734295.46444  22890882.313                    22890891.184
 11  8  1 18 40 30.0000000  0  9G28G24G11G03G19G08G07G13G23
 121165749.008 7  94415049.47844  23057091.672                    23057099.020
 127794994.893 6  99580622.77242  24318588.430                    24318604.953
 119671689.731 7  93250757.64844  22772754.031                    22772762.480
 121834041.404 6  94935645.43843  23184250.695                    23184258.785
 112520606.317 7  87678426.15645  21411957.008                    21411962.348
 116212377.624 7  90555179.03545  22114479.914                    22114487.953
 108959914.332 8  84903867.175 7  20734379.125                    20734385.977
 110800422.318 8  86338018.41745  21084622.609                    21084630.484
 120401959.813 6  93819717.44343  22911743.422                    22911751.965
 11  8  1 18 41  0.0000000  0  9G28G24G11G03G19G08G07G13G23
 121121359.802 7  94380460.54944  23048644.227                    23048652.402
 127720494.794 6  99522571.03043  24304411.563                    24304427.875
 119601297.107 7  93195906.33044  22759358.836                    22759367.430
 121936887.230 6  95015785.02043  23203821.133                    23203830.273
 112574303.001 7  87720267.71945  21422174.531                    21422180.559
 116140592.823 7  90499242.86945  22100819.734                    22100828.000
 108922321.551 8  84874574.116 7  20727225.734                    20727232.645
 110877513.738 8  86398089.61045  21099292.375                    21099300.668
 120511760.784 6  93905276.43544  22932637.633                    22932647.102
 11  8  1 18 41 30.0000000  0  9G28G24G11G03G19G08G07G13G23
 121077154.888 7  94346015.26344  23040231.945                    23040240.383
 127645940.354 6  99464477.04342  24290223.797                    24290239.805
 119531139.337 7  93141238.04144  22746007.758                    22746016.508
 122039953.666 6  95096096.45343  23223434.109                    23223443.516
 112628522.712 7  87762516.83445  21432492.148                    21432498.031
 116068858.906 7  90443346.34045  22087168.875                    22087176.867
 108884968.726 8  84845468.031 7  20720117.008                    20720124.207
 110955051.125 7  86458508.30145  21114047.516                    21114055.609
 120621734.665 6  93990970.14544  22953565.219                    22953574.004
 11  8  1 18 42  0.0000000  0  9G28G24G11G03G19G08G07G13G23
 121033132.963 7  94311712.53144  23031854.406                    23031862.758
 127571333.892 6  99406342.45843  24276026.164                    24276042.055
 119461219.456 6  93086755.09444  22732702.477                    22732711.207
 122143237.637 6  95176577.44943  23243088.633                    23243097.934
 112683262.815 7  87805171.45645  21442909.031                    21442914.902
 115997177.013 7  90387490.35945  22073528.867                    22073536.629
 108847857.463 8  84816550.181 7  20713055.070                    20713062.215
 111033031.476 8  86519272.16045  21128886.719                    21128894.934
 120731877.953 6  94076795.89144  22974525.148                    22974533.590
 11  8  1 18 42 30.0000000  0  9G28G24G11G03G19G08G07G13G23
 120989294.179 7  94277552.50444  23023513.070                    23023520.539
 127496678.913 6  99348170.10443  24261820.313                    24261835.781
 119391541.077 7  93032460.34944  22719443.180                    22719451.789
 122246736.780 6  95257226.08143  23262783.563                    23262793.285
 112738521.996 7  87848230.55445  21453424.563                    21453430.469
 115925549.064 7  90331676.41645  22059897.680                    22059906.063
 108810990.391 8  84787822.607 7  20706039.680                    20706046.891
 111111453.228 7  86580379.96945  21143809.875                    21143818.047
 120842188.474 6  94162751.92443  22995516.367                    22995525.516
 11  8  1 18 43  0.0000000  0  9G28G24G11G03G19G08G07G13G23
 120945637.414 7  94243534.31844  23015204.758                    23015214.133
 127421978.007 6  99289961.91543  24247605.078                    24247620.289
 119322107.043 7  92978356.00544  22706230.023                    22706238.891
 122350448.174 6  95338040.12043  23282520.008                    23282529.066
 112794297.910 7  87891692.29745  21464038.602                    21464044.113
 115853976.652 7  90275905.73345  22046278.844                    22046287.008
 108774368.870 7  84759286.362 7  20699070.883                    20699077.941
 111190313.640 7  86641829.60045  21158816.094                    21158824.594
 120952663.307 6  94248835.99444  23016538.906                    23016548.328
 11  8  1 18 43 30.0000000  0  9G28G24G11G03G19G08G07G13G23
 120902161.612 7  94209657.11944  23006931.898                    23006940.383
 127347233.665 6  99231719.86343  24233380.641                    24233396.445
 119252919.897 7  92924444.04844  22693064.055                    22693073.301
 122454368.617 6  95419017.02543  23302295.180                    23302304.012
 112850588.067 7  87935554.74545  21474749.914                    21474755.375
 115782461.384 7  90220179.57144  22032669.266                    22032677.754
 108737994.836 7  84730942.978 7  20692149.383                    20692156.230
 111269609.892 7  86703618.83945  21173906.172                    21173913.895
 121063298.895 6  94335045.33143  23037592.758                    23037601.410
 11  8  1 18 44  0.0000000  0  9G28G24G11G03G19G08G07G13G23
 120858866.303 7  94175920.58744  22998692.898                    22998701.563
 127272448.842 6  99173446.25343  24219149.664                    24219165.375
 119183983.041 7  92870727.11744  22679946.352                    22679954.828
 122558495.382 6  95500154.74043  23322109.734                    23322117.844
 112907390.324 7  87979816.25045  21485558.570                    21485564.785
 115711004.791 7  90164499.14745  22019071.375                    22019080.000
 108701869.927 7  84702793.716 7  20685274.680                    20685281.594
 111349339.467 7  86765745.72745  21189078.359                    21189086.406
 121174092.549 6  94421377.83744  23058675.836                    23058685.520
 11  8  1 18 44 30.0000000  0  9G28G24G11G03G19G08G07G13G23
 120815750.885 7  94142324.20544  22990488.078                    22990497.039
 127197626.346 6  99115143.30243  24204911.156                    24204926.805
 119115299.606 7  92817207.68244  22666875.758                    22666884.531
 122662825.699 6  95581451.02443  23341963.508                    23341972.328
 112964702.544 7  88024475.11945  21496465.000                    21496471.238
 115639608.600 7  90108865.77645  22005485.578                    22005493.559
 108665996.074 7  84674840.073 7  20678448.250                    20678455.328
 111429500.039 7  86828208.47045  21204332.211                    21204340.633
 121285041.207 6  94507831.09344  23079788.758                    23079798.301
 11  8  1 18 45  0.0000000  0  9G28G24G11G03G19G08G07G13G23
 120772814.573 7  94108867.41244  22982317.508                    22982326.066
 127122769.128 6  99056813.22743  24190665.758                    24190681.984
 119046872.404 7  92763887.91744  22653853.813                    22653863.398
 122767356.807 6  95662903.80743  23361855.156                    23361863.910
 113022522.511 7  88069529.62745  21507467.797                    21507473.902
 115568274.282 7  90053280.61845  21991910.813                    21991919.336
 108630375.064 8  84647083.460 7  20671669.586                    20671676.594
 111510089.024 7  86891005.03345  21219667.859                    21219675.906
 121396142.386 6  94594403.25143  23100931.461                    23100940.445
 11  8  1 18 45 30.0000000  0  9G28G24G11G03G19G08G07G13G23
 120730056.526 7  94075549.51944  22974180.547                    22974189.410
 127047880.104 6  98998458.34443  24176414.883                    24176430.523
 118978704.395 7  92710770.11844  22640883.086                    22640890.566
 122872086.171 6  95744511.02643  23381784.266                    23381792.992
 113080847.773 7  88114977.88645  21518566.969                    21518572.883
 115497003.680 7  89997745.11345  21978348.461                    21978356.664
 108595009.487 7  84619525.877 7  20664939.914                    20664947.219
 111591103.826 7  86954133.39545  21235084.609                    21235092.563
 121507393.022 7  94681091.83243  23122101.469                    23122110.820
 11  8  1 18 46  0.0000000  0  9G28G24G11G03G19G08G07G13G23
 120687475.848 7  94042369.84844  22966078.148                    22966086.695
 126972961.786 6  98940080.70143  24162158.695                    24162173.055
 118910798.376 7  92657856.46444  22627960.164                    22627968.973
 122977010.434 6  95826270.13943  23401750.570                    23401760.039
 113139676.062 7  88160818.10545  21529761.438                    21529767.531
 115425798.076 7  89942260.25945  21964798.406                    21964806.703
 108559900.214 7  84592167.994 7  20658258.672                    20658265.867
 111672541.298 8  87017591.12645  21250581.852                    21250589.926
 121618789.616 7  94767894.16043  23143299.445                    23143309.078
 11  8  1 18 46 30.0000000  0  9G28G24G11G03G19G08G07G13G23
 120645071.993 7  94009327.94444  22958008.906                    22958017.266
 126898017.190 6  98881682.45843  24147896.883                    24147911.758
 118843157.686 7  92605149.52944  22615088.500                    22615097.477
 123082126.804 6  95908178.91743  23421753.734                    23421762.656
 113199005.564 7  88207048.89245  21541051.469                    21541057.098
 115354659.358 7  89886827.52345  21951261.227                    21951269.316
 108525049.467 8  84565011.579 7  20651626.844                    20651633.934
 111754399.302 8  87081376.53845  21266158.734                    21266166.758
 121730329.912 6  94854808.43943  23164525.422                    23164534.793
 11  8  1 18 47  0.0000000  0  9G28G24G11G03G19G08G07G13G23
 120602843.838 7  93976422.96444  22949973.547                    22949981.414
 126823048.740 6  98823265.69343  24133631.078                    24133645.813
 118775784.880 7  92552651.36444  22602268.000                    22602276.809
 123187432.525 6  95990235.26043  23441793.297                    23441801.891
 113258833.177 7  88253667.80945  21552436.289                    21552442.254
 115283588.645 7  89831447.76945  21937737.102                    21937745.227
 108490458.678 8  84538057.724 7  20645044.359                    20645051.699
 111836674.668 7  87145487.16145  21281815.352                    21281823.406
 121842010.400 6  94941831.95744  23185777.250                    23185787.344
 11  8  1 18 47 30.0000000  0  9G28G24G11G03G19G08G07G13G23
 120560790.724 7  93943654.37444  22941970.375                    22941978.977
 126748059.607 6  98764832.78543  24119360.617                    24119375.086
 118708683.148 7  92500364.41344  22589498.625                    22589506.863
 123292925.137 6  96072437.27643  23461868.164                    23461876.387
 113319157.122 7  88300673.47945  21563915.594                    21563921.418
 115212588.444 7  89776122.95645  21924226.102                    21924233.418
 108456130.107 7  84511308.202 7  20638511.891                    20638518.594
 111919365.232 7  87209921.32045  21297551.289                    21297558.789
 121953828.443 6  95028962.64944  23207056.219                    23207066.023
 11  8  1 18 48  0.0000000  0  9G28G24G11G03G19G08G07G13G23
 120518912.102 7  93911021.73644  22934000.922                    22934009.605
 126673052.705 6  98706386.10543  24105086.820                    24105101.438
 118641855.943 7  92448291.37544  22576781.352                    22576790.586
 123398601.944 6  96154782.76343  23481977.805                    23481985.773
 113379975.115 7  88348064.11445  21575489.180                    21575494.785
 115141660.296 7  89720854.29445  21910728.727                    21910736.934
 108422065.655 7  84484764.476 7  20632029.609                    20632036.684
 112002468.171 7  87274676.80845  21313364.789                    21313372.555
 122065781.295 6  95116198.37044  23228360.359                    23228370.141
 11  8  1 18 48 30.0000000  0  9G28G24G11G03G19G08G07G13G23
 120477207.101 7  93878524.41844  22926064.766                    22926073.816
 126598030.785 6  98647927.67743  24090810.148                    24090825.012
 118575305.697 7  92396434.13544  22564117.703                    22564126.066
 123504459.897 6  96237269.43943  23502121.258                    23502130.148
 113441284.757 7  88395837.86345  21587155.922                    21587161.629
 115070805.571 7  89665642.83845  21897246.047                    21897253.211
 108388267.263 7  84458428.101 7  20625598.039                    20625605.047
 112085980.986 7  87339751.68245  21329256.680                    21329265.164
 122177865.981 6  95203536.84843  23249689.773                    23249699.180
 11  8  1 18 49  0.0000000  0  9G28G24G11G03G19G08G07G13G23
 120435674.750 7  93846161.60544  22918161.742                    22918169.781
 126522996.810 6  98589459.91343  24076532.727                    24076546.922
 118509035.675 7  92344795.23844  22551506.805                    22551515.410
 123610495.835 6  96319894.79143  23522299.148                    23522308.285
 113503083.377 7  88443992.61645  21598915.180                    21598921.594
 115000025.841 7  89610489.82645  21883776.648                    21883784.773
 108354736.287 8  84432300.074 7  20619217.109                    20619224.453
 112169900.761 7  87405143.66245  21345226.016                    21345234.363
 122290079.393 6  95290975.60443  23271043.836                    23271053.277
 11  8  1 18 49 30.0000000  0  9G28G24G11G03G19G08G07G13G23
 120394314.311 7  93813932.75744  22910290.898                    22910298.770
 126447953.499 6  98530984.86643  24062250.945                    24062266.277
 118443048.421 7  92293376.69544  22538949.688                    22538958.398
 123716707.037 6  96402656.69543  23542511.070                    23542519.582
 113565368.794 7  88492526.71345  21610767.930                    21610774.109
 114929323.097 7  89555396.81545  21870322.758                    21870330.094
 108321474.598 7  84406381.889 7  20612887.820                    20612894.871
 112254224.693 7  87470850.57345  21361272.391                    21361280.754
 122402418.540 6  95378512.35443  23292420.742                    23292430.574
 11  8  1 18 50  0.0000000  0  9G28G24G11G03G19G08G07G13G23
 120353125.277 7  93781837.46244  22902453.242                    22902461.488
 126372904.152 6  98472505.15243  24047969.586                    24047984.234
 118377347.544 7  92242181.27344  22526447.625                    22526455.516
 123823091.767 6  96485553.84143  23562755.188                    23562764.203
 113628138.963 7  88541438.51345  21622713.117                    21622718.953
 114858699.326 7  89500365.33145  21856883.008                    21856890.918
 108288484.688 8  84380675.469 7  20606609.688                    20606617.055
 112338950.603 7  87536870.70945  21377395.578                    21377403.418
 122514880.924 6  95466145.12043  23313822.039                    23313832.320
 11  8  1 18 50 30.0000000  0  9G28G24G11G03G19G08G07G13G23
 120312106.520 7  93749874.84444  22894646.844                    22894655.719
 126297851.181 6  98414022.65643  24033687.688                    24033701.605
 118311935.724 7  92191211.12144  22513999.453                    22514008.184
 123929646.537 5  96568583.47742  23583032.023                    23583041.074
 113691390.852 7  88590725.69345  21634749.102                    21634755.254
 114788155.995 7  89445396.52745  21843459.211                    21843467.176
 108255767.961 7  84355181.923 7  20600384.352                    20600391.547
 112424075.267 7  87603201.56845  21393594.148                    21393602.223
 122627463.078 7  95553871.22644  23335245.516                    23335255.418
 11  8  1 18 51  0.0000000  0  9G28G24G11G03G19G08G07G13G23
 120271257.374 7  93718044.39644  22886874.063                    22886881.609
 126222797.654 6  98355539.70943  24019404.906                    24019419.355
 118246816.044 7  92140468.59344  22501607.461                    22501616.430
 124036368.580 6  96651743.45443  23603340.375                    23603349.719
 113755122.704 7  88640386.86645  21646877.336                    21646883.258
 114717695.157 7  89390492.01345  21830050.813                    21830059.125
 108223326.662 7  84329902.986 7  20594210.633                    20594217.789
 112509596.403 7  87669841.36345  21409868.695                    21409876.523
 122740162.567 6  95641688.70843  23356691.969                    23356702.145
 11  8  1 18 51 30.0000000  0  9G28G24G11G03G19G08G07G13G23
 120230577.538 7  93686345.87944  22879132.914                    22879140.699
 126147746.676 6  98297058.77443  24005123.820                    24005137.699
 118181991.601 7  92089956.12844  22489271.773                    22489280.473
 124143255.330 6  96735031.79543  23623680.133                    23623689.102
 113819331.815 7  88690419.93545  21659095.688                    21659101.484
 114647318.544 7  89335653.12945  21816658.852                    21816666.727
 108191162.566 7  84304840.059 7  20588090.523                    20588097.398
 112595511.319 7  87736787.98945  21426217.305                    21426225.543
 122852976.535 6  95729595.44543  23378159.945                    23378169.676
 11  8  1 18 52  0.0000000  0  9G28G24G11G03G19G08G07G13G23
 120190065.736 7  93654778.29444  22871423.516                    22871431.457
 126072700.929 6  98238581.89243  23990842.047                    23990856.707
 118117465.195 7  92039675.90244  22476992.703                    22477001.492
 124250303.899 6  96818446.22243  23644050.242                    23644060.133
 113884015.989 7  88740823.17745  21671404.570                    21671410.613
 114577027.824 7  89280881.16445  21803282.266                    21803290.961
 108159277.473 7  84279994.537 7  20582022.641                    20582030.242
 112681817.017 7  87804039.13645  21442640.938                    21442648.805
 122965901.886 7  95817589.00643  23399648.922                    23399659.043
 11  8  1 18 52 30.0000000  0  9G28G24G11G03G19G08G07G13G23
 120149721.110 7  93623340.99144  22863746.016                    22863754.234
 125997663.248 6  98180111.35343  23976562.422                    23976577.355
 118053239.525 7  91989630.00644  22464771.523                    22464779.793
 124357511.792 6  96901984.81243  23664452.758                    23664460.699
 113949172.515 7  88791594.48645  21683803.563                    21683809.316
 114506825.129 7  89226177.78345  21789923.461                    21789931.180
 108127673.225 7  84255367.854 7  20576008.563                    20576015.637
 112768510.732 7  87871592.64145  21459137.883                    21459146.129
 123078935.734 7  95905667.04743  23421159.539                    23421169.254
 11  8  1 18 53  0.0000000  0  9G28G24G11G03G19G08G07G13G23
 120109542.856 7  93592033.31144  22856100.844                    22856108.723
 125922636.767 6  98121649.48643  23962285.633                    23962299.789
 117989318.029 7  91939821.14344  22452607.102                    22452615.340
 124464876.020 6  96985645.21743  23684883.367                    23684892.102
 114014799.011 7  88842732.00145  21696292.023                    21696297.766
 114436711.960 7  89171544.16945  21776580.906                    21776589.234
 108096351.817 8  84230961.552 7  20570048.164                    20570055.082
 112855589.624 7  87939446.26445  21475708.609                    21475716.625
 123192075.233 6  95993827.43043  23442688.922                    23442699.242
 11  8  1 18 53 30.0000000  0  9G28G24G11G03G19G08G07G13G23
 120069530.078 7  93560854.56844  22848486.414                    22848494.398
 125847624.132 6  98063198.42343  23948010.734                    23948025.039
 117925703.262 7  91890251.28744  22440501.984                    22440510.723
 124572394.124 6  97069425.53743  23705342.711                    23705352.227
 114080892.976 7  88894233.78345  21708868.984                    21708874.898
 114366689.836 7  89116981.51445  21763256.602                    21763264.914
 108065314.734 7  84206776.819 7  20564142.047                    20564149.285
 112943050.920 7  88007597.87145  21492352.125                    21492360.086
 123305317.225 6  96082067.66443  23464238.008                    23464248.906
 11  8  1 18 54  0.0000000  0  9G28G24G11G03G19G08G07G13G23
 120029682.443 7  93529804.50844  22840903.438                    22840911.547
 125772628.935 6  98004760.91943  23933738.977                    23933752.996
 117862398.600 7  91840923.07844  22428454.758                    22428463.637
 124680063.590 6  97153323.75743  23725831.672                    23725840.148
 114147452.211 7  88946098.11545  21721534.844                    21721541.105
 114296761.313 7  89062491.76745  21749949.805                    21749957.387
 108034564.451 7  84182815.561 7  20558290.344                    20558297.770
 113030892.233 7  88076045.59245  21509067.922                    21509076.199
 123418659.601 6  96170386.11443  23485807.414                    23485817.383
 11  8  1 18 54 30.0000000  0  9G28G24G11G03G19G08G07G13G23
 119989998.738 7  93498882.20944  22833351.891                    22833359.852
 125697653.431 6  97946338.70643  23919471.406                    23919484.910
 117799406.444 7  91791838.38144  22416467.508                    22416476.180
 124787880.844 6  97237337.17843  23746348.789                    23746357.578
 114214473.567 7  88998322.54145  21734288.734                    21734294.523
 114226927.363 7  89008075.72545  21736660.422                    21736668.281
 108004102.105 7  84159078.688 7  20552493.883                    20552500.777
 113119110.269 7  88144786.85745  21525855.313                    21525863.020
 123532098.401 6  96258779.66243  23507393.570                    23507404.313
 11  8  1 18 55  0.0000000  0  9G28G24G11G03G19G08G07G13G23
 119950477.814 7  93468086.73044  22825831.383                    22825838.883
 125622700.768 6  97887934.34643  23905208.625                    23905221.906
 117736729.618 7  91742999.38444  22404540.898                    22404549.367
 124895843.625 6  97321463.97143  23766892.906                    23766901.789
 114281954.732 7  89050905.24645  21747129.641                    21747135.691
 114157190.392 7  88953735.26645  21723390.461                    21723398.434
 107973929.697 8  84135567.723 7  20546752.211                    20546759.730
 113207702.284 7  88213819.55045  21542713.805                    21542721.867
 123645631.075 6  96347246.38643  23528998.648                    23529009.090
 11  8  1 18 55 30.0000000  0  9G28G24G11G03G19G08G07G13G23
 119911119.611 7  93437418.05644  22818341.648                    22818349.332
 125547773.995 6  97829550.13643  23890950.445                    23890963.867
 117674371.586 7  91694408.77844  22392674.234                    22392682.953
 125003949.422 6  97405702.22243  23787465.805                    23787474.098
 114349893.863 7  89103844.81245  21760058.523                    21760064.344
 114087552.274 7  88899471.82045  21710138.547                    21710146.730
 107944049.548 7  84112284.493 7  20541066.242                    20541073.535
 113296665.859 7  88283141.76445  21559642.922                    21559651.324
 123759255.120 6  96435784.28543  23550621.219                    23550631.383
 11  8  1 18 56  0.0000000  0  9G28G24G11G03G19G08G07G13G23
 119871923.206 7  93406875.45644  22810882.680                    22810890.449
 125472876.216 6  97771188.45843  23876697.359                    23876711.047
 117612335.315 7  91646068.92844  22380869.328                    22380877.512
 125112195.900 6  97490050.08243  23808064.109                    23808072.746
 114418288.198 7  89157139.08745  21773073.023                    21773079.102
 114018015.220 7  88845287.13045  21696905.945                    21696914.125
 107914463.832 7  84089230.705 7  20535436.023                    20535443.406
 113385998.186 7  88352751.31645  21576642.406                    21576650.883
 123872967.560 6  96524391.08443  23572260.273                    23572270.488
 11  8  1 18 56 30.0000000  0  9G28G24G11G03G19G08G07G13G23
 119832887.029 7  93376457.70144  22803454.406                    22803462.367
 125398009.901 6  97712851.28343  23862450.203                    23862464.242
 117550623.079 7  91597981.54644  22369125.828                    22369134.164
 125220579.912 6  97574505.06143  23828688.813                    23828697.434
 114487134.812 7  89210785.78345  21786174.523                    21786180.387
 113948580.359 7  88791182.06045  21683692.922                    21683700.730
 107885173.528 8  84066407.107 7  20529862.445                    20529869.543
 113475695.806 7  88422645.49445  21593711.563                    21593719.816
 123986765.400 6  96613064.39543  23593914.383                    23593925.504
 11  8  1 18 57  0.0000000  0  9G28G24G11G03G19G08G07G13G23
 119794010.772 7  93346164.57844  22796057.109                    22796064.184
 125323178.365 6  97654541.22943  23848210.188                    23848224.254
 117489238.518 7  91550149.49944  22357444.805                    22357452.633
 125329098.937 6  97659065.29043  23849340.617                    23849348.270
 114556431.028 7  89264782.84545  21799361.164                    21799367.152
 113879249.994 7  88737158.43145  21670500.055                    21670508.051
 107856180.893 7  84043815.448 7  20524344.961                    20524352.617
 113565756.266 7  88492822.42745  21610849.680                    21610857.793
 124100645.676 6  96701801.95343  23615585.992                    23615596.680
 11  8  1 18 57 30.0000000  0  9G28G24G11G03G19G08G07G13G23
 119755293.346 7  93315995.21844  22788688.172                    22788696.344
 125248384.379 6  97596260.37443  23833977.047                    23833991.387
 117428183.760 7  91502574.42744  22345826.125                    22345834.535
 125437749.767 6  97743728.19742  23870015.055                    23870023.504
 114626174.327 7  89319128.27345  21812633.359                    21812638.531
 113810025.650 7  88683217.38645  21657327.266                    21657334.699
 107827487.307 8  84021456.814 7  20518884.570                    20518891.727
 113656176.389 7  88563279.60945  21628055.883                    21628064.137
 124214605.437 6  96790601.40543  23637272.039                    23637282.730
 11  8  1 18 58  0.0000000  0  9G28G24G11G03G19G08G07G13G23
 119716734.469 7  93285949.39444  22781351.281                    22781358.730
 125173631.218 6  97538011.35243  23819752.773                    23819765.738
 117367462.183 7  91455258.97444  22334271.297                    22334279.504
 125546530.362 6  97828492.19642  23890715.195                    23890724.883
 114696362.857 7  89373820.63945  21825989.281                    21825995.191
 113740909.648 7  88629360.78645  21644174.852                    21644182.426
 107799095.390 8  83999333.249 7  20513482.359                    20513489.297
 113746954.017 7  88634015.35145  21645330.414                    21645338.730
 124328642.035 6  96879460.77543  23658973.266                    23658983.336
 11  8  1 18 58 30.0000000  0  9G28G24G11G03G19G08G07G13G23
 119678332.484 7  93256025.83044  22774043.828                    22774051.363
 125098921.703 6  97479796.37643  23805534.688                    23805548.871
 117307076.327 7  91408205.12244  22322780.156                    22322788.469
 125655437.779 6  97913355.06242  23911439.086                    23911448.813
 114766993.334 7  89428857.37945  21839430.273                    21839435.828
 113671903.566 7  88575589.82445  21631043.047                    21631051.418
 107771006.429 8  83977445.758 7  20508137.344                    20508144.535
 113838085.438 7  88705026.79145  21662672.219                    21662680.824
 124442752.296 6  96968377.52843  23680687.578                    23680698.172
 11  8  1 18 59  0.0000000  0  9G28G24G11G03G19G08G07G13G23
 119640087.178 7  93226224.35744  22766765.664                    22766773.500
 125024259.069 6  97421617.93543  23791327.336                    23791340.457
 117247029.477 7  91361415.43544  22311353.617                    22311362.254
 125764469.527 5  97998314.80042  23932186.398                    23932196.863
 114838063.420 7  89484236.67245  21852954.023                    21852959.625
 113603009.617 7  88521906.25345  21617932.914                    21617940.438
 107743222.508 8  83955795.957 7  20502850.273                    20502857.156
 113929568.310 7  88776312.08445  21680081.078                    21680088.957
 124556933.636 6  97057349.66943  23702415.852                    23702426.398
 11  8  1 18 59 30.0000000  0  9G28G24G11G03G19G08G07G13G23
 119601997.576 7  93196544.19044  22759517.000                    22759525.609
 124949646.235 6  97363478.27243  23777128.766                    23777142.059
 117187324.189 7  91314891.88944  22299991.844                    22299999.992
 125873622.894 6  98083369.26442  23952959.180                    23952967.996
 114909570.517 7  89539956.48545  21866561.273                    21866567.262
 113534229.651 7  88468311.48745  21604844.852                    21604852.352
 107715745.629 7  83934385.399 7  20497621.344                    20497628.547
 114021399.346 7  88847868.66445  21697555.711                    21697564.195
 124671183.079 6  97146374.86543  23724156.688                    23724167.895
 11  8  1 19  0  0.0000000  0  9G28G24G11G03G19G08G07G13G23
 119564062.773 7  93166984.64844  22752298.430                    22752306.094
 124875085.795 6  97305379.44943  23762939.672                    23762953.438
 117127963.486 7  91268636.85344  22288695.844                    22288704.457
 125982895.478 6  98168516.66542  23973753.391                    23973761.770
 114981511.988 7  89596014.77745  21880251.883                    21880256.828
 113465565.481 8  88414806.96945  21591778.234                    21591786.027
 107688577.399 7  83913215.362 7  20492451.266                    20492458.191
 114113576.018 7  88919694.58645  21715096.188                    21715104.508
 124785497.832 6  97235450.92543  23745910.766                    23745921.336
 11  8  1 19  0 30.0000000  0  9G28G24G11G03G19G08G07G13G23
 119526282.188 7  93137545.29344  22745108.898                    22745117.027
 124800581.309 6  97247324.21943  23748762.781                    23748775.867
 117068950.393 7  91222652.68944  22277466.555                    22277474.395
 126092284.779 6  98253755.03543  23994568.992                    23994577.668
 115053885.461 7  89652409.67245  21894023.539                    21894029.238
 113397019.585 7  88361394.60645  21578734.789                    21578742.098
 107661720.302 7  83892287.759 7  20487340.602                    20487347.598
 114206095.802 7  88991787.86045  21732702.313                    21732710.406
 124899875.422 6  97324575.96543  23767676.031                    23767686.980
 11  8  1 19  1  0.0000000  0  9G28G24G11G03G19G08G07G13G23
 119488654.489 7  93108225.06244  22737948.344                    22737956.941
 124726135.087 6  97189314.41743  23734595.617                    23734608.816
 117010287.387 7  91176941.33344  22266302.828                    22266311.457
 126201787.773 6  98339081.98043  24015406.984                    24015415.941
 115126687.816 7  89709138.78445  21907877.625                    21907882.977
 113328593.729 7  88308075.77845  21565713.094                    21565721.180
 107635175.809 8  83871603.752 7  20482289.336                    20482296.238
 114298955.272 7  89064145.83045  21750372.773                    21750381.008
 125014312.753 6  97413747.53843  23789452.984                    23789464.367
 11  8  1 19  1 30.0000000  0  9G28G24G11G03G19G08G07G13G23
 119451178.985 7  93079023.41044  22730817.898                    22730825.008
 124651750.583 6  97131352.65543  23720440.539                    23720454.098
 116951977.484 7  91131505.11244  22255206.539                    22255214.969
 126311402.283 6  98424495.79543  24036265.797                    24036275.352
 115199916.544 7  89766200.11745  21921812.391                    21921818.305
 113260289.449 7  88254851.67645  21552715.477                    21552723.285
 107608945.488 8  83851164.543 7  20477297.930                    20477304.949
 114392151.226 7  89136765.99145  21768106.844                    21768115.723
 125128806.533 6  97502963.08843  23811240.656                    23811252.008
 11  8  1 19  2  0.0000000  0  9G28G24G11G03G19G08G07G13G23
 119413854.677 7  93049939.59244  22723714.922                    22723722.988
 124577430.707 6  97073441.29643  23706297.328                    23706310.938
 116894022.992 7  91086345.84144  22244178.727                    22244186.809
 126421125.021 6  98509993.97443  24057145.148                    24057155.191
 115273568.901 7  89823591.54745  21935827.625                    21935833.910
 113192109.106 7  88201724.16845  21539741.109                    21539748.852
 107583030.763 8  83830971.255 7  20472366.492                    20472373.723
 114485680.935 7  89209646.22245  21785905.500                    21785914.098
 125243353.881 6  97592220.38743  23833038.984                    23833049.906
 11  8  1 19  2 30.0000000  0  9G28G24G11G03G19G08G07G13G23
 119376681.045 7  93020973.18144  22716640.625                    22716648.734
 124503178.829 6  97015582.93643  23692167.930                    23692180.773
 116836427.241 7  91041466.11944  22233218.469                    22233226.578
 126530954.020 6  98595574.95343  24078045.406                    24078054.715
 115347642.693 7  89881311.36145  21949923.445                    21949929.719
 113124054.721 8  88148694.79645  21526790.766                    21526798.520
 107557434.272 8  83811025.941 7  20467495.648                    20467502.996
 114579541.866 7  89282784.53845  21803766.688                    21803775.254
 125357952.592 6  97681517.69443  23854846.547                    23854858.086
 11  8  1 19  3  0.0000000  0  9G28G24G11G03G19G08G07G13G23
 119339656.887 7  92992123.24144  22709595.531                    22709602.891
 124428997.616 6  96957779.61443  23678051.195                    23678064.383
 116779193.009 7  90996868.08444  22222327.055                    22222334.973
 126640886.505 6  98681236.55542  24098964.422                    24098974.898
 115422134.834 7  89939357.17545  21964099.125                    21964104.941
 113056128.179 8  88095765.05045  21513864.813                    21513872.750
 107532157.740 8  83791329.950 7  20462685.859                    20462692.367
 114673730.636 7  89356178.31545  21821691.047                    21821698.566
 125472599.343 6  97770852.41043  23876663.625                    23876675.047
 11  8  1 19  3 30.0000000  0  9G28G24G11G03G19G08G07G13G23
 119302781.771 7  92963389.43144  22702577.836                    22702585.773
 124354890.607 6  96900034.10443  23663949.008                    23663962.277
 116722323.222 7  90952554.04044  22211505.063                    22211512.629
 126750920.462 6  98766977.27343  24119904.047                    24119913.094
 115497043.230 7  89997727.34645  21978353.672                    21978359.113
 112988331.823 7  88042936.74945  21500963.563                    21500971.383
 107507203.248 8  83771884.892 7  20457936.758                    20457944.234
 114768244.808 7  89429825.65145  21839675.969                    21839684.242
 125587291.874 6  97860222.81143  23898488.359                    23898501.121
 11  8  1 19  4  0.0000000  0  9G28G24G11G03G19G08G07G13G23
 119266054.054 7  92934770.48444  22695588.852                    22695596.941
 124280859.924 6  96842348.09343  23649861.281                    23649873.992
 116665820.055 7  90908525.66344  22200752.633                    22200761.070
 126861052.342 6  98852794.23543  24140860.727                    24140870.699
 115572364.059 7  90056418.88145  21992686.273                    21992692.652
 112920667.123 7  87990211.02345  21488087.109                    21488095.094
 107482571.686 7  83752691.466 7  20453249.922                    20453256.988
 114863080.620 7  89503723.62545  21857722.492                    21857731.246
 125702026.507 6  97949626.02643  23920323.000                    23920334.906
 11  8  1 19  4 30.0000000  0  9G28G24G11G03G19G08G07G13G23
 119229473.734 7  92906266.37944  22688627.805                    22688635.621
 124206909.683 6  96784724.74943  23635789.188                    23635801.957
 116609687.012 7  90864785.68344  22190070.563                    22190078.801
 126971280.481 6  98938686.24143  24161836.930                    24161846.352
 115648095.777 7  90115430.59245  22007098.055                    22007104.063
 112853136.555 7  87937589.83845  21475236.430                    21475244.297
 107458266.072 8  83733752.024 7  20448624.594                    20448631.438
 114958236.262 7  89577870.80545  21875830.648                    21875838.996
 125816801.399 6  98039060.62043  23942163.516                    23942175.801
 11  8  1 19  5  0.0000000  0  8G28G24G11G19G08G07G13G23
 119193039.328 7  92877875.98144  22681694.945                    22681702.844
 124133041.919 6  96727165.65943  23621732.813                    23621745.500
 116553925.940 7  90821335.56844  22179459.773                    22179467.422
 115724234.898 7  90174759.76945  22021586.945                    22021592.934
 112785741.397 7  87885074.15145  21462411.969                    21462419.125
 107434287.028 8  83715067.055 7  20444061.344                    20444068.402
 115053707.319 7  89652263.77144  21893998.031                    21894006.133
 125931612.634 6  98128523.50743  23964012.086                    23964024.270
 11  8  1 19  5 30.0000000  0  8G28G24G11G19G08G07G13G23
 119156750.641 7  92849599.12744  22674788.883                    22674797.098
 124059260.350 6  96669673.75143  23607692.172                    23607704.695
 116498540.527 7  90778178.15944  22168920.172                    22168928.047
 115800779.546 7  90234404.93545  22036153.133                    22036158.719
 112718484.693 7  87832666.35145  21449613.844                    21449621.031
 107410637.402 8  83696638.779 7  20439561.148                    20439567.820
 115149492.054 7  89726901.16145  21912225.086                    21912233.781
 126046458.411 6  98218013.28743  23985867.086                    23985879.262
 11  8  1 19  6  0.0000000  0  8G28G24G11G19G08G07G13G23
 119120605.903 7  92821434.44744  22667910.750                    22667918.324
 123985567.362 6  96612250.88043  23593668.117                    23593681.309
 116443532.817 7  90735315.06244  22158452.445                    22158460.422
 115877726.121 7  90294363.29345  22050795.297                    22050801.203
 112651367.977 7  87780367.62745  21436841.492                    21436848.887
 107387318.171 8  83678467.953 7  20435123.805                    20435130.426
 115245586.522 7  89801779.90145  21930510.883                    21930519.844
 126161335.201 6  98307527.25143  24007726.719                    24007739.898
 11  8  1 19  6 30.0000000  0  8G28G24G11G19G08G07G13G23
 119084605.038 7  92793381.86444  22661059.891                    22661067.742
 123911966.822 6  96554900.00043  23579662.703                    23579675.547
 116388906.164 7  90692748.89644  22148057.453                    22148065.484
 115955072.745 7  90354633.38145  22065514.055                    22065519.855
 112584393.621 8  87728179.83845  21424096.711                    21424104.574
 107364332.011 8  83660556.658 7  20430749.172                    20430756.441
 115341988.593 7  89876898.31544  21948856.289                    21948864.320
 126276240.794 6  98397063.67643  24029593.594                    24029605.699
 11  8  1 19  7  0.0000000  0  8G28G24G11G19G08G07G13G23
 119048747.065 7  92765440.63844  22654236.703                    22654244.313
 123838461.851 6  96497623.60143  23565674.813                    23565687.270
 116334663.152 7  90650481.66844  22137735.250                    22137743.113
 116032816.355 7  90415212.79245  22080308.094                    22080313.617
 112517563.865 7  87676104.71445  21411379.063                    21411386.734
 107341680.616 8  83642906.235 7  20426439.109                    20426446.180
 115438695.033 7  89952253.91545  21967258.820                    21967267.324
 126391172.311 6  98486620.24743  24051464.406                    24051477.234
 11  8  1 19  7 30.0000000  0  8G28G24G11G19G08G07G13G23
 119013031.199 7  92737610.13344  22647439.945                    22647447.555
 123765055.300 6  96440423.89243  23551706.242                    23551718.906
 116280806.406 7  90608515.44444  22127486.445                    22127494.484
 116110954.317 7  90476099.50045  22095176.594                    22095182.742
 112450880.631 7  87624143.76045  21398689.750                    21398697.828
 107319366.000 8  83625518.224 7  20422192.914                    20422199.453
 115535702.841 7  90027844.33945  21985718.648                    21985727.523
 126506127.042 6  98576194.93143  24073340.039                    24073352.648
 11  8  1 19  8  0.0000000  0  8G28G24G11G19G08G07G13G23
 118977455.589 7  92709888.91444  22640670.727                    22640677.949
 123691749.669 6  96383302.85843  23537756.484                    23537768.711
 116227338.401 7  90566852.11944  22117312.086                    22117319.996
 116189483.491 7  90537291.05545  22110120.633                    22110127.121
 112384345.823 8  87572298.47545  21386028.672                    21386036.773
 107297388.712 8  83608393.061 7  20418010.719                    20418017.680
 115633008.714 7  90103667.02144  22004235.563                    22004244.141
 126621101.704 6  98665785.15243  24095218.820                    24095232.289
 11  8  1 19  8 30.0000000  0  8G28G24G11G19G08G07G13G23
 118942020.863 7  92682277.49245  22633927.539                    22633935.090
 123618548.826 6  96326263.45643  23523827.078                    23523839.047
 116174262.608 7  90525494.42644  22107211.844                    22107219.699
 116268401.641 7  90598785.70145  22125138.148                    22125144.270
 112317962.532 7  87520571.24445  21373396.297                    21373404.813
 107275752.102 8  83591533.380 7  20413893.273                    20413900.125
 115730610.746 7  90179720.48944  22022808.242                    22022817.203
 126736094.187 6  98755389.24343  24117100.953                    24117114.535
 11  8  1 19  9  0.0000000  0  8G28G24G11G19G08G07G13G23
 118906725.665 7  92654774.77244  22627210.398                    22627218.375
 123545455.364 6  96269307.70643  23509917.570                    23509929.113
 116121580.876 7  90484443.79744  22097186.781                    22097194.965
 116347705.831 7  90660581.15145  22140229.375                    22140235.594
 112251731.798 8  87468962.90045  21360792.945                    21360800.852
 107254457.222 8  83574939.971 7  20409841.125                    20409848.027
 115828504.938 7  90256001.59244  22041437.016                    22041445.637
 126851101.085 6  98845004.54743  24138986.516                    24139000.125
 11  8  1 19  9 30.0000000  0  9G28G24G17G11G19G08G07G13G23
 118871568.321 7  92627379.47944  22620520.617                    22620528.215
 123472472.287 6  96212438.00143  23496028.867                    23496040.258
 129512661.84416 100918990.44716  24645440.266                    24645454.094
 116069295.785 7  90443702.22745  22087237.688                    22087244.879
 116427393.228 7  90722675.19845  22155393.031                    22155399.613
 112185655.564 7  87417474.94445  21348218.984                    21348226.965
 107233505.511 8  83558613.969 7  20405853.961                    20405861.230
 115926688.125 7  90332507.91344  22060120.688                    22060129.527
 126966119.652 6  98934628.99543  24160874.117                    24160887.500
 11  8  1 19 10  0.0000000  0  9G28G24G17G11G19G08G07G13G23
 118836548.151 7  92600091.06944  22613856.172                    22613864.207
 123399602.398 6  96155656.50043  23482162.164                    23482174.395
 129407682.501 6 100837188.793 6  24625462.961                    24625478.246
 116017409.967 7  90403271.78444  22077363.727                    22077371.027
 116507460.577 7  90785065.32145  22170629.945                    22170636.160
 112119736.056 7  87366109.09745  21335674.867                    21335682.801
 107212898.929 8  83542556.898 7  20401932.242                    20401939.629
 116025157.130 7  90409236.92644  22078858.797                    22078867.840
 127081146.798 6  99024260.03642  24182762.633                    24182777.156
 11  8  1 19 10 30.0000000  0  9G28G24G17G11G19G08G07G13G23
 118801664.453 7  92572909.00844  22607218.359                    22607225.707
 123326848.955 6  96098965.75743  23468316.828                    23468329.418
 129302801.781 5 100755463.983 6  24605504.500                    24605519.598
 115965926.304 7  90363154.70044  22067566.766                    22067574.215
 116587905.600 7  90847749.74245  22185938.219                    22185943.773
 112053975.709 8  87314867.29145  21323161.117                    21323169.086
 107192639.112 8  83526770.032 7  20398077.211                    20398084.152
 116123909.073 7  90486186.43945  22097651.430                    22097659.383
 127196180.203 6  99113896.04342  24204655.297                    24204667.582
 11  8  1 19 11  0.0000000  0  9G28G24G17G11G19G08G07G13G23
 118766916.402 7  92545832.63644  22600605.711                    22600613.535
 123254215.237 6  96042368.29643  23454494.461                    23454507.656
 129198021.855 6 100673817.683 6  24585564.680                    24585579.809
 115914847.420 7  90323353.04944  22057846.492                    22057854.539
 116668725.471 7  90910726.23045  22201317.008                    22201323.586
 111988376.526 8  87263751.05245  21310678.336                    21310686.086
 107172728.252 8  83511255.078 7  20394288.336                    20394295.309
 116222941.145 7  90563354.21144  22116496.141                    22116505.086
 127311217.265 6  99203534.83243  24226545.672                    24226559.273
 11  8  1 19 11 30.0000000  0  9G28G24G17G11G19G08G07G13G23
 118732303.942 7  92518861.93445  22594019.320                    22594026.984
 123181705.016 6  95985867.06343  23440697.484                    23440708.883
 129093346.013 6 100592252.507 6  24565644.992                    24565659.246
 115864176.574 7  90283869.32744  22048203.820                    22048212.375
 116749918.106 7  90973993.19945  22216767.430                    22216774.195
 111922941.670 8  87212762.87445  21298226.359                    21298234.441
 107153168.900 8  83496014.030 7  20390566.258                    20390573.563
 116322251.094 7  90640738.50844  22135394.734                    22135403.430
 127426255.828 6  99293174.85443  24248437.867                    24248450.520
 11  8  1 19 12  0.0000000  0  9G28G24G17G11G19G08G07G13G23
 118697825.482 7  92491995.65745  22587458.539                    22587466.387
 123109320.634 6  95929463.90343  23426922.406                    23426934.316
 128988775.524 6 100510769.430 6  24545746.391                    24545760.727
 115813915.837 7  90244705.16344  22038640.102                    22038647.461
 116831480.316 7  91037548.14045  22232289.203                    22232294.680
 111857672.435 8  87161903.74945  21285805.930                    21285813.883
 107133962.101 8  83481047.698 8  20386911.438                    20386918.355
 116421835.390 7  90718336.59444  22154344.648                    22154353.344
 127541292.605 6  99382813.46143  24270328.602                    24270341.793
 11  8  1 19 12 30.0000000  0  9G28G24G17G11G19G08G07G13G23
 118663480.376 7  92465233.27645  22580922.664                    22580929.965
 123037065.719 6  95873161.60643  23413172.727                    23413184.363
 128884312.511 6 100429370.050 6  24525867.219                    24525881.059
 115764068.117 7  90205862.83845  22029154.109                    22029161.543
 116913409.305 7  91101388.89145  22247879.789                    22247885.402
 111792571.378 8  87111175.66845  21273417.742                    21273425.336
 107115109.865 8  83466357.675 7  20383323.734                    20383330.996
 116521691.055 7  90796146.12944  22173346.469                    22173355.574
 127656324.778 6  99472448.46343  24292219.234                    24292232.586
 11  8  1 19 13  0.0000000  0  9G28G24G17G11G19G08G07G13G23
 118629267.436 7  92438573.90044  22574411.969                    22574419.949
 122964943.019 7  95816962.31444  23399447.648                    23399459.793
 128779958.813 6 100348055.834 6  24506009.133                    24506023.953
 115714635.688 7  90167344.10644  22019747.445                    22019755.078
 116995702.246 7  91165513.23345  22263539.664                    22263545.324
 111727640.662 8  87060580.32345  21261061.773                    21261069.410
 107096613.538 8  83451944.918 7  20379804.266                    20379811.633
 116621814.803 7  90874164.57444  22192399.484                    22192408.406
 127771349.665 6  99562077.77643  24314107.523                    24314121.629
 11  8  1 19 13 30.0000000  0  9G28G24G17G11G19G08G07G13G23
 118595185.862 7  92412016.86445  22567926.148                    22567934.055
 122892955.537 7  95760868.41743  23385749.609                    23385760.938
 128675716.452 6 100266828.349 6  24486172.469                    24486185.879
 115665621.143 7  90129151.01144  22010420.461                    22010427.668
 117078356.208 7  91229918.90045  22279267.758                    22279273.953
 111662882.190 7  87010119.19745  21248738.602                    21248746.012
 107078474.967 8  83437810.990 7  20376352.695                    20376359.563
 116722203.461 7  90952389.42544  22211503.008                    22211511.695
 127886364.458 6  99651699.23643  24335995.281                    24336008.852
 11  8  1 19 14  0.0000000  0  9G28G24G17G11G19G08G07G13G23
 118561234.872 7  92385561.59145  22561466.172                    22561472.965
 122821106.527 7  95704882.40343  23372076.664                    23372087.930
 128571587.640 6 100185689.350 6  24466356.969                    24466370.703
 115617026.759 7  90091285.31044  22001172.875                    22001181.098
 117161368.736 7  91294603.96445  22295064.773                    22295071.031
 111598298.123 8  86959793.98245  21236448.484                    21236456.527
 107060695.950 8  83423957.221 7  20372969.313                    20372976.496
 116822854.153 7  91030818.46344  22230655.758                    22230665.172
 128001366.453 6  99741310.72543  24357877.602                    24357893.234
 11  8  1 19 14 30.0000000  0  9G28G24G17G11G19G08G07G13G23
 118527412.934 7  92359206.87745  22555029.484                    22555037.363
 122749398.607 7  95649006.31843  23358430.531                    23358442.191
 128467574.013 6 100104640.108 6  24446562.813                    24446576.984
 115568854.952 7  90053748.88444  21992006.383                    21992014.176
 117244736.274 7  91359565.66645  22310928.852                    22310934.996
 111533890.329 8  86909606.11245  21224192.344                    21224200.105
 107043277.743 8  83410384.584 7  20369655.070                    20369662.031
 116923763.424 7  91109448.99144  22249858.750                    22249867.902
 128116352.626 6  99830909.87943  24379760.406                    24379775.328
 11  8  1 19 15  0.0000000  0  9G28G24G17G11G19G08G07G13G23
 118493720.334 7  92332952.93545  22548618.031                    22548625.699
 122677835.808 6  95593243.31143  23344812.125                    23344823.871
 128363678.487 6 100023682.934 6  24426792.898                    24426805.898
 115521109.052 7  90016544.33344  21982920.109                    21982927.816
 117328456.698 7  91424802.33445  22326860.703                    22326866.570
 111469662.031 8  86859558.11745  21211970.148                    21211977.590
 107026223.043 8  83397095.210 7  20366409.648                    20366416.770
 117024928.892 7  91188279.14944  22269110.539                    22269118.727
 128231320.943 6  99920495.12443  24401639.148                    24401653.012
 11  8  1 19 15 30.0000000  0  9G28G24G17G11G19G08G07G13G23
 118460155.352 7  92306798.45645  22542230.680                    22542238.613
 122606420.168 6  95537595.00243  23331222.109                    23331233.891
 128259902.429 5  99942818.831 6  24407043.523                    24407057.352
 115473790.749 7  89979672.98845  21973915.805                    21973923.793
 117412526.604 7  91490311.32945  22342858.484                    22342864.559
 111405614.643 8  86809651.08345  21199782.313                    21199789.723
 107009532.618 8  83384089.685 7  20363233.328                    20363240.492
 117126346.938 7  91267306.12944  22288409.352                    22288418.152
 128346268.064 6 100010063.87042  24423512.891                    24423527.320
 11  8  1 19 16  0.0000000  0  9G28G24G17G11G19G08G07G13G23
 118426717.920 7  92280743.36945  22535867.648                    22535875.988
 122535155.807 6  95482064.51743  23317660.930                    23317672.574
 128156248.764 6  99862050.104 6  24387319.180                    24387332.324
 115426903.636 7  89943137.61245  21964993.648                    21965000.836
 117496944.398 7  91556091.41845  22358922.805                    22358929.102
 111341751.384 8  86759887.53245  21187629.398                    21187636.836
 106993209.472 8  83371370.325 7  20360127.297                    20360134.129
 117228015.353 7  91346528.19644  22307756.477                    22307765.059
 128461192.270 6 100099614.69042  24445382.031                    24445396.980
 11  8  1 19 16 30.0000000  0  8G28G24G17G11G19G08G07G13
 118393407.755 7  92254787.43845  22529528.852                    22529536.484
 122464046.521 6  95426654.87243  23304129.461                    23304140.832
 128052720.033 6  99781378.729 6  24367618.195                    24367631.305
 115380450.578 7  89906940.48145  21956153.961                    21956161.531
 117581707.536 7  91622140.58645  22375052.422                    22375058.453
 111278074.771 8  86710269.40945  21175512.000                    21175519.469
 106977255.700 8  83358938.799 7  20357090.961                    20357097.770
 117329931.691 7  91425943.44144  22327149.992                    22327159.113
 11  8  1 19 17  0.0000000  0  8G28G24G17G11G19G08G07G13
 118360222.562 7  92228928.89844  22523214.023                    22523222.082
 122393094.350 6  95371367.67143  23290627.055                    23290638.348
 127949317.013 6  99700805.309 6  24347940.844                    24347954.359
 115334432.658 7  89871082.41645  21947396.844                    21947404.496
 117666812.016 7  91688455.74145  22391247.242                    22391252.879
 111214586.239 7  86660797.86145  21163430.570                    21163438.277
 106961671.939 8  83346795.605 7  20354125.758                    20354132.699
 117432091.824 7  91505548.66044  22346590.453                    22346599.691
 11  8  1 19 17 30.0000000  0  8G28G24G17G11G19G08G07G13
 118327161.544 7  92203167.10144  22516922.953                    22516929.832
 122322301.568 6  95316204.64143  23277156.203                    23277167.352
 127846041.797 6  99620331.483 6  24328287.813                    24328301.867
 115288852.277 7  89835565.29044  21938723.203                    21938730.688
 117752254.734 7  91755034.47145  22407506.508                    22407512.547
 111151287.157 8  86611473.92445  21151385.172                    21151392.578
 106946459.095 8  83334941.449 7  20351230.766                    20351237.836
 117534491.946 7  91585340.88644  22366077.008                    22366085.473
 11  8  1 19 18  0.0000000  0  8G28G24G17G11G19G08G07G13
 118294223.903 7  92177501.44644  22510654.844                    22510662.891
 122251671.941 6  95261168.76743  23263714.992                    23263726.605
 127742896.637 6  99539958.995 6  24308659.180                    24308673.254
 115243712.291 7  89800391.32844  21930133.406                    21930140.820
 117838033.538 7  91821875.06845  22423829.844                    22423835.223
 111088180.689 7  86562300.06745  21139376.094                    21139384.215
 106931619.609 8  83323378.226 7  20348407.242                    20348413.559
 117637129.461 7  91665318.09244  22385607.906                    22385617.023
 11  8  1 19 18 30.0000000  0  8G28G24G17G11G19G08G07G13
 118261408.941 7  92151931.38645  22504410.547                    22504418.152
 122181208.437 6  95206262.30843  23250306.242                    23250317.855
 127639883.439 6  99459689.291 6  24289057.844                    24289070.262
 115199014.805 7  89765562.18145  21921627.461                    21921635.355
 117924145.226 7  91888975.06045  22440216.023                    22440222.086
 111025269.051 8  86513278.02646  21127404.734                    21127412.109
 106917155.254 8  83312107.308 7  20345654.227                    20345661.453
 117740001.352 7  91745477.92944  22405184.484                    22405192.828
 11  8  1 19 19  0.0000000  0  8G28G24G17G11G19G08G07G13
 118228715.044 7  92126455.65945  22498189.438                    22498196.504
 122110913.956 6  95151487.54943  23236929.422                    23236941.352
 127537003.916 6  99379523.812 6  24269479.445                    24269492.531
 115154761.927 7  89731079.49445  21913206.617                    21913214.078
 118010586.397 7  91956331.79145  22456665.336                    22456671.344
 110962553.699 8  86464408.94045  21115470.578                    21115478.199
 106903066.795 8  83301129.301 7  20342973.438                    20342980.332
 117843103.875 7  91825817.46944  22424804.023                    22424812.941
 11  8  1 19 19 30.0000000  0  8G28G24G17G11G19G08G07G13
 118196142.186 7  92101074.26345  22491990.617                    22491997.922
 122040792.182 6  95096847.31443  23223585.945                    23223597.281
 127434260.683 6  99299464.516 6  24249928.164                    24249941.102
 115110956.468 7  89696945.42245  21904870.586                    21904878.254
 118097354.686 7  92023943.41745  22473177.547                    22473183.453
 110900037.740 8  86415695.22345  21103573.961                    21103581.332
 106889356.709 8  83290446.117 7  20340364.602                    20340371.824
 117946434.880 7  91906335.06244  22444467.328                    22444476.066
 11  8  1 19 20  0.0000000  0  9G28G24G17G11G26G19G08G07G13
 118163689.617 7  92075786.58744  22485815.211                    22485822.555
 121970846.584 6  95042344.39143  23210274.805                    23210286.914
 127331655.942 6  99219513.147 6  24230401.992                    24230415.820
 115067601.342 7  89663162.28545  21896620.313                    21896628.055
 127449637.77016  99311429.34453  24252856.203                    24252865.469
 118184448.392 7  92091808.61545  22489750.266                    22489756.672
 110837723.686 8  86367138.83146  21091715.820                    21091723.875
 106876027.353 8  83280059.612 7  20337827.773                    20337834.992
 118049991.736 7  91987028.64944  22464173.492                    22464182.379
 11  8  1 19 20 30.0000000  0  9G28G24G17G11G26G19G08G07G13
 118131356.334 7  92050591.86044  22479662.055                    22479669.219
 121901079.677 6  94987980.68343  23196998.828                    23197010.973
 127229191.747 6  99139671.285 6  24210903.453                    24210916.637
 115024698.789 7  89629731.78745  21888456.008                    21888464.008
 127360493.889 5  99241966.55142  24235892.508                    24235903.250
 118271863.776 7  92159924.48145  22506385.148                    22506391.355
 110775613.891 8  86318741.60345  21079896.695                    21079904.426
 106863079.874 8  83269970.682 7  20335364.164                    20335371.488
 118153770.767 7  92067895.33744  22483922.180                    22483930.590
 11  8  1 19 21  0.0000000  0  9G28G24G17G11G26G19G08G07G13
 118099141.714 7  92025489.60344  22473532.195                    22473539.066
 121831494.906 6  94933758.88543  23183757.578                    23183769.039
 127126870.289 6  99059940.671 6  24191431.234                    24191445.332
 114982251.426 7  89596655.99245  21880378.516                    21880386.137
 127271725.526 5  99172796.49042  24218999.625                    24219011.012
 118359598.652 7  92228289.29245  22523080.023                    22523086.387
 110713711.163 7  86270505.72245  21068117.328                    21068124.426
 106850516.231 8  83260180.834 7  20332973.828                    20332980.641
 118257769.670 7  92148933.35044  22503711.961                    22503721.613
 11  8  1 19 21 30.0000000  0  9G28G24G17G11G26G19G08G07G13
 118067044.313 7  92000478.67644  22467424.203                    22467431.164
 121762095.055 6  94879681.18043  23170551.195                    23170562.480
 127024692.763 6  98980322.165 6  24171988.227                    24172000.656
 114940260.941 7  89563936.19145  21872387.555                    21872395.461
 127183334.920 5  99103920.69742  24202180.227                    24202191.012
 118447649.593 7  92296900.39645  22539836.195                    22539842.148
 110652016.840 8  86222432.24045  21056376.703                    21056384.539
 106838337.644 8  83250691.034 8  20330656.047                    20330663.105
 118361984.578 7  92230139.68844  22523543.773                    22523552.684
 11  8  1 19 22  0.0000000  0  9G28G24G17G11G26G19G08G07G13
 118035063.481 7  91975558.57044  22461337.945                    22461344.965
 121692883.287 6  94825750.04443  23157380.508                    23157391.305
 126922661.612 6  98900817.756 6  24152571.891                    24152584.922
 114898729.461 7  89531574.05745  21864484.750                    21864492.109
 127095324.62215                  24185432.703
 118536013.257 7  92365755.16844  22556651.414                    22556657.414
 110590533.158 8  86174522.89645  21044677.063                    21044684.746
 106826545.481 8  83241502.351 7  20328411.891                    20328418.996
 118466411.726 7  92311511.39844  22543416.133                    22543424.883
 11  8  1 19 22 30.0000000  0  9G28G24G17G11G26G19G08G07G13
 118003197.899 7  91950728.28745  22455274.633                    22455281.781
 121623862.029 6  94771967.35543  23144245.828                    23144256.785
 126820778.162 6  98821428.423 6  24133184.039                    24133196.195
 114857658.890 7  89499571.06345  21856669.766                    21856676.883
 127007697.409 6                  24168757.758
 118624686.951 7  92434851.54045  22573525.148                    22573531.297
 110529262.058 8  86126779.19545  21033017.828                    21033025.477
 106815141.104 8  83232615.826 7  20326241.742                    20326248.402
 118571048.390 7  92393046.37744  22563327.609                    22563336.977
 11  8  1 19 23  0.0000000  0  9G28G24G17G11G26G19G08G07G13
 117971447.341 7  91925987.63444  22449232.422                    22449238.883
 121555035.318 6  94718336.25143  23131148.867                    23131159.504
 126719045.765 6  98742156.762 6  24113825.336                    24113837.313
 114817052.326 7  89467929.62645  21848942.180                    21848949.535
 126920456.492 6  98899062.58752  24152156.703                    24152164.328
 118713668.601 7  92504187.87345  22590457.977                    22590464.168
 110468206.960 7  86079203.80946  21021398.719                    21021406.926
 106804127.101 8  83224033.495 8  20324145.766                    20324152.914
 118675891.811 7  92474742.44144  22583278.602                    22583288.230
 11  8  1 19 23 30.0000000  0  9G28G24G17G11G26G19G08G07G13
 117939810.368 7  91901335.47345  22443212.211                    22443218.484
 121486405.618 6  94664858.69144  23118089.109                    23118100.117
 126617465.074 6  98663003.329 6  24094493.906                    24094506.902
 114776911.543 7  89436651.13045  21841303.570                    21841311.348
 126833604.200 6  98831385.56043  24135629.289                    24135638.383
 118802954.776 7  92573761.48345  22607448.523                    22607454.555
 110407369.175 8  86031797.76945  21009822.016                    21009829.785
 106793504.223 8  83215755.932 7  20322124.414                    20322131.477
 118780938.478 7  92556596.88844  22603269.078                    22603277.871
 11  8  1 19 24  0.0000000  0  9G28G24G17G11G26G19G08G07G13
 117908285.870 7  91876770.95844  22437213.227                    22437220.152
 121417976.083 6  94611537.07543  23105068.086                    23105078.727
 126516038.472 6  98583969.929 6  24075193.383                    24075205.547
 114737238.849 7  89405737.39445  21833754.031                    21833761.219
 126747143.337 6  98764013.53243  24119176.125                    24119185.883
 118892542.371 7  92643569.97645  22624496.453                    22624502.238
 110346751.366 8  85984563.13245  20998287.039                    20998295.070
 106783274.011 8  83207784.373 7  20320177.820                    20320184.281
 118886185.542 7  92638607.47044  22623296.070                    22623305.539
 11  8  1 19 24 30.0000000  0  9G28G24G17G11G26G19G08G07G13
 117876873.544 7  91852293.85244  22431235.766                    22431242.215
 121349749.992 6  94558374.01443  23092084.094                    23092094.762
 126414768.275 6  98505058.414 6  24055922.648                    24055933.984
 114698036.548 7  89375190.17345  21826294.484                    21826301.613
 126661076.699 6  98696948.69143  24102797.523                    24102807.957
 118982428.868 7  92713611.35944  22641601.727                    22641607.480
 110286355.706 8  85937501.59446  20986793.914                    20986801.828
 106773438.313 8  83200120.200 7  20318306.102                    20318312.938
 118991629.766 7  92720771.69744  22643361.992                    22643371.172
 11  8  1 19 25  0.0000000  0  9G28G24G17G11G26G19G08G07G13
 117845572.847 7  91827903.72845  22425279.055                    22425285.938
 121281730.937 6  94505372.28343  23079140.180                    23079151.703
 126313656.606 6  98426270.399 6  24036681.023                    24036693.090
 114659307.240 7  89345011.54545  21818923.820                    21818931.582
 126575407.648 6  98630193.66343  24086495.930                    24086505.078
 119072611.617 7  92783883.60144  22658762.820                    22658768.074
 110226185.294 8  85890615.57546  20975343.852                    20975351.641
 106763999.108 8  83192764.984 8  20316509.750                    20316516.785
 119097268.747 7  92803087.68644  22663464.086                    22663473.488
 11  8  1 19 25 30.0000000  0  9G28G24G17G11G26G19G08G07G13
 117814382.116 7  91803599.29645  22419343.977                    22419350.594
 121213921.305 6  94452533.74643  23066236.336                    23066247.320
 126212704.766 6  98347606.936 6  24017470.641                    24017482.059
 114621052.289 7  89315202.52545  21811643.852                    21811651.477
 126490138.203 6  98563750.03943  24070269.297                    24070278.410
 119163087.572 7  92854384.31044  22675979.352                    22675985.738
 110166241.770 8  85843906.35946  20963937.180                    20963944.289
 106754957.434 8  83185719.530 8  20314789.266                    20314796.164
 119203098.866 7  92885552.61044  22683602.977                    22683612.391
 11  8  1 19 26  0.0000000  0  9G28G24G17G11G26G19G08G07G13
 117783301.272 7  91779380.49344  22413429.203                    22413436.020
 121146324.646 6  94399861.18343  23053373.461                    23053383.895
 126111915.474 6  98269070.105 6  23998290.398                    23998302.277
 114583274.732 7  89285765.51545  21804455.422                    21804463.164
 126405271.833 6  98497620.39643  24054119.727                    24054128.336
 119253854.149 7  92925111.49644  22693252.211                    22693257.781
 110106528.213 8  85797376.33546  20952573.523                    20952581.066
 106746315.594 8  83178985.637 8  20313144.625                    20313151.754
 119309117.108 7  92968164.11844  22703778.523                    22703787.148
 11  8  1 19 26 30.0000000  0  9G28G24G17G11G26G19G08G07G13
 117752329.434 7  91755246.63045  22407535.172                    22407542.285
 121078944.010 6  94347356.94943  23040550.875                    23040561.426
 126011290.464 6  98190661.292 6  23979141.617                    23979154.094
 114545976.529 7  89256702.01945  21797357.617                    21797365.207
 126320811.003 6  98431806.86743  24038047.492                    24038056.531
 119344908.526 7  92996062.94845  22710578.852                    22710584.641
 110047046.651 8  85751027.09746  20941255.039                    20941262.809
 106738074.785 8  83172564.237 7  20311576.766                    20311583.422
 119415320.701 7  93050920.04544  22723988.063                    22723997.059
 11  8  1 19 27  0.0000000  0  9G28G24G17G11G26G19G08G07G13
 117721464.922 7  91731196.40545  22401662.078                    22401669.387
 121011781.795 7  94295022.92943  23027770.180                    23027780.844
 125910831.272 6  98112381.674 6  23960024.875                    23960036.758
 114509159.234 7  89228013.24645  21790351.727                    21790359.113
 126236758.012 6  98366311.08743  24022052.188                    24022061.902
 119436247.492 7  93067236.14244  22727960.859                    22727966.313
 109987799.060 8  85704860.17045  20929980.406                    20929987.629
 106730235.967 8  83166456.072 7  20310084.938                    20310091.645
 119521705.993 7  93133817.56544  22744232.141                    22744241.680
 11  8  1 19 27 30.0000000  0  9G28G24G17G11G26G19G08G07G13
 117690707.772 7  91707229.82745  22395809.453                    22395816.383
 120944841.874 7  94242862.11744  23015032.117                    23015042.457
 125810540.611 6  98034233.405 6  23940940.078                    23940951.996
 114472825.904 7  89199701.58645  21783437.984                    21783445.180
 126153116.250 6  98301135.72943  24006136.250                    24006146.180
 119527868.585 7  93138629.20244  22745395.031                    22745400.988
 109928788.600 8  85658878.01746  20918751.070                    20918758.617
 106722801.452 8  83160662.943 7  20308670.016                    20308677.184
 119628270.782 7  93216854.95643  22764510.680                    22764520.211
 11  8  1 19 28  0.0000000  0  9G28G24G17G11G26G19G08G07G13
 117660056.859 7  91683346.02845  22389976.273                    22389982.910
 120878127.210 7  94190876.82144  23002336.523                    23002347.148
 125710420.331 6  97956217.862 6  23921886.914                    23921899.324
 114436978.106 7  89171768.27145  21776616.148                    21776623.086
 126069888.252 6  98236282.80543  23990297.711                    23990308.824
 119619768.923 7  93210239.83844  22762883.273                    22762888.926
 109870017.215 8  85613082.14846  20907567.203                    20907574.633
 106715772.805 8  83155186.093 7  20307332.555                    20307339.758
 119735011.175 7  93300029.17343  22784823.141                    22784832.543
 11  8  1 19 28 30.0000000  0  9G28G24G17G11G26G19G08G07G13
 117629511.347 7  91659544.36945  22384164.172                    22384170.969
 120811641.015 7  94139069.55343  22989684.492                    22989695.168
 125610472.392 6  97878336.591 6  23902867.703                    23902879.723
 114401618.052 7  89144214.99545  21769887.148                    21769894.734
 125987076.683 6  98171754.34742  23974539.375                    23974550.320
 119711946.071 7  93282066.16044  22780424.305                    22780430.469
 109811487.597 8  85567474.68446  20896429.695                    20896437.125
 106709151.499 8  83150026.631 7  20306072.578                    20306079.703
 119841924.295 7  93383337.95144  22805167.789                    22805177.289
 11  8  1 19 29  0.0000000  0  9G28G24G17G11G26G19G08G07G13
 117599070.238 7  91635824.06345  22378370.641                    22378378.262
 120745386.284 7  94087442.62944  22977076.555                    22977087.398
 125510698.338 6  97800590.828 6  23883881.133                    23883892.820
 114366747.734 7  89117043.34945  21763251.336                    21763258.715
 125904683.699 6  98107552.07743  23958860.672                    23958871.500
 119804396.551 7  93354105.48744  22798016.703                    22798023.113
 109753201.623 8  85522057.06646  20885337.953                    20885345.105
 106702938.912 8  83145185.666 7  20304890.227                    20304897.305
 119949006.898 7  93466778.82043  22825545.414                    22825554.336
 11  8  1 19 29 30.0000000  0  9G28G24G17G11G26G19G08G07G13
 117568732.915 7  91612184.62345  22372597.883                    22372605.234
 120679366.070 7  94035998.45444  22964513.289                    22964523.867
 125411100.485 7  97722982.337 6  23864928.953                    23864940.141
 114332369.278 7  89090254.97045  21756709.617                    21756717.246
 125822712.883 5  98043678.82142  23943261.844                    23943272.199
 119897117.991 7  93426355.93944  22815660.656                    22815667.113
 109695162.259 7  85476831.60846  20874293.445                    20874300.613
 106697136.408 8  83140664.240 8  20303785.992                    20303793.047
 120056256.399 7  93550349.72344  22845954.195                    22845963.820
 11  8  1 19 30  0.0000000  0  9G28G24G17G11G26G19G08G07G13
 117538498.079 7  91588625.05245  22366844.586                    22366851.652
 120613582.842 7  93984738.92743  22951994.984                    22952005.430
 125311680.484 6  97645512.436 6  23846009.414                    23846020.609
 114298484.403 7  89063851.19445  21750261.438                    21750268.992
 125741165.855 6  97980135.78042  23927743.875                    23927754.262
 119990106.828 7  93498814.74144  22833356.359                    22833362.430
 109637371.129 7  85431799.57846  20863295.914                    20863303.805
 106691744.838 8  83136463.026 7  20302760.602                    20302766.879
 120163669.008 7  93634047.73144  22866394.195                    22866404.340
 11  8  1 19 30 30.0000000  0  9G28G24G17G11G26G19G08G07G13
 117508365.625 7  91565145.24545  22361110.531                    22361117.781
 120548040.442 6  93933667.04444  22939522.078                    22939532.715
 125212440.653 6  97568182.904 6  23827124.898                    23827135.129
 114265095.504 7  89037833.88245  21743908.047                    21743914.984
 125660046.253 6  97916925.70543  23912307.789                    23912318.148
 120083360.821 7  93571480.16644  22851101.594                    22851108.004
 109579831.660 8  85386963.64746  20852346.727                    20852354.785
 106686766.484 7  83132583.791 7  20301812.945                    20301819.770
 120271242.389 7  93717870.98944  22886865.148                    22886874.859
 11  8  1 19 31  0.0000000  0  9G28G24G17G11G26G19G08G07G13
 117478333.819 7  91541743.86045  22355395.781                    22355402.770
 120482741.136 6  93882784.58343  22927096.438                    22927106.738
 125113382.070 6  97490994.593 6  23808274.602                    23808285.090
 114232203.942 7  89012204.11745  21737649.078                    21737656.344
 125579355.734 6  97854050.02542  23896953.039                    23896962.285
 120176876.820 7  93644349.76044  22868897.133                    22868903.363
 109522545.128 8  85342324.80646  20841445.563                    20841453.570
 106682202.220 7  83129027.219 7  20300944.633                    20300951.316
 120378972.661 7  93801816.50044  22907365.672                    22907375.508
 11  8  1 19 31 30.0000000  0  9G28G24G17G11G26G19G08G07G13
 117448402.265 7  91518420.60245  22349699.719                    22349707.094
 120417688.462 6  93832094.28644  22914717.227                    22914727.543
 125014507.571 6  97413949.721 6  23789459.563                    23789469.066
 114199812.152 7  88986963.79845  21731484.773                    21731491.926
 125499097.492 6  97791511.21142  23881680.492                    23881688.648
 120270652.253 7  93717421.49844  22886742.391                    22886748.434
 109465514.337 8  85297885.25246  20830592.531                    20830600.066
 106678053.965 7  83125794.827 7  20300154.633                    20300161.500
 120486856.938 7  93885882.02944  22927895.359                    22927905.238
 11  8  1 19 32  0.0000000  0  9G28G24G17G11G26G19G08G07G13
 117418570.804 7  91495175.34345  22344023.047                    22344030.387
 120352886.034 6  93781599.02044  22902385.500                    22902395.727
 124915819.161 6  97337049.855 6  23770678.508                    23770689.691
 114167922.704 7  88962114.89845  21725416.391                    21725424.125
 125419274.498 6  97729311.52942  23866490.500                    23866498.484
 120364684.630 7  93790693.43244  22904635.992                    22904642.176
 109408742.707 8  85253647.63446  20819789.977                    20819797.398
 106674323.668 7  83122888.111 7  20299444.875                    20299452.004
 120594893.047 7  93970065.86744  22948454.336                    22948463.637
 11  8  1 19 32 30.0000000  0  9G28G24G17G11G26G19G08G07G13
 117388838.010 7  91472006.95645  22338365.117                    22338372.410
 120288336.406 6  93731300.72644  22890102.000                    22890112.359
 124817318.568 6  97260296.367 6  23751934.055                    23751945.156
 114136537.233 7  88937658.72745  21719444.164                    21719451.102
 125339889.366 6  97667452.97143  23851383.438                    23851392.086
 120458970.755 7  93864163.11644  22922577.938                    22922583.988
 109352232.124 8  85209613.42446  20809035.695                    20809043.430
 106671012.627 8  83120308.086 7  20298814.906                    20298821.914
 120703077.408 7  94054365.21943  22969041.445                    22969050.883
 11  8  1 19 33  0.0000000  0  9G28G24G17G11G26G19G08G07G13
 117359203.100 7  91448914.84945  22332725.945                    22332732.598
 120224042.802 6  93681201.90644  22877867.211                    22877877.508
 124719007.772 6  97183690.731 6  23733226.125                    23733237.441
 114105657.516 7  88913596.64545  21713567.773                    21713574.828
 125260944.539 6  97605937.60343  23836360.883                    23836370.441
 120553507.946 7  93937828.42644  22940568.273                    22940574.074
 109295984.963 8  85165784.48546  20798332.406                    20798340.152
 106668122.017 7  83118055.672 8  20298265.242                    20298271.785
 120811407.004 7  94138777.72644  22989655.852                    22989665.598
 11  8  1 19 33 30.0000000  0  9G28G24G17G11G26G19G08G07G13
 117329664.873 7  91425898.07045  22327104.789                    22327111.719
 120160007.519 6  93631304.37144  22865682.000                    22865691.793
 124620888.177 6  97107234.103 6  23714554.250                    23714565.832
 114075284.538 7  88889929.41845  21707787.820                    21707795.199
 125182441.959 6  97544766.82843  23821422.375                    23821432.215
 120648293.153 7  94011686.98544  22958605.141                    22958610.906
 109240003.379 8  85122162.48346  20787679.797                    20787686.957
 106665652.488 8  83116131.370 8  20297794.977                    20297802.082
 120919878.119 7  94223300.50543  23010297.023                    23010306.855
 11  8  1 19 34  0.0000000  0  9G28G24G17G11G26G19G08G07G13
 117300223.133 7  91402956.48345  22321502.047                    22321509.148
 120096234.392 6  93581611.11744  22853546.414                    22853556.758
 124522962.093 6  97030928.271 6  23695920.063                    23695930.578
 114045421.117 7  88866659.24045  21702105.188                    21702112.375
 125104384.815 6  97483943.15443  23806568.336                    23806578.922
 120743323.978 7  94085736.94744  22976688.828                    22976694.957
 109184289.981 8  85078749.46246  20777077.484                    20777084.762
 106663606.457 8  83114537.069 7  20297405.953                    20297412.434
 121028488.619 7  94307931.89343  23030965.680                    23030974.945
 11  8  1 19 34 30.0000000  0  9G28G24G17G11G26G19G08G07G13
 117270876.462 7  91380088.95445  22315917.742                    22315925.082
 120032725.916 6  93532124.07144  22841460.711                    22841470.848
 124425230.876 7  96954774.280 6  23677322.391                    23677333.461
 114016068.790 7  88843787.33145  21696519.570                    21696526.742
 125026775.160 6  97423468.15543  23791800.031                    23791810.355
 120838596.950 7  94159975.58844  22994818.523                    22994824.637
 109128846.848 8  85035547.03946  20766527.125                    20766534.516
 106661984.537 8  83113273.243 8  20297096.805                    20297103.848
 121137234.501 7  94392668.79843  23051658.648                    23051668.539
 11  8  1 19 35  0.0000000  0  9G28G24G17G11G26G19G08G07G13
 117241624.750 7  91357295.44545  22310351.328                    22310358.148
 119969485.685 7  93482846.06643  22829426.164                    22829437.363
 124327697.224 7  96878774.228 6  23658762.477                    23658773.238
 113987229.392 7  88821315.09745  21691031.797                    21691038.762
 124949616.044 6  97363344.25043  23777116.828                    23777127.426
 120934109.908 7  94234401.23944  23012994.352                    23013000.203
 109073677.019 8  84992557.56846  20756028.266                    20756035.809
 106660788.688 8  83112341.414 7  20296869.313                    20296876.324
 121246113.351 7  94477509.28443  23072377.297                    23072387.309
 11  8  1 19 35 30.0000000  0  9G28G24G17G11G26G19G08G07G13
 117212466.865 7  91334575.04245  22304802.648                    22304809.625
 119906516.749 6  93433779.43644  22817443.914                    22817454.102
 124230362.771 7  96802929.405 6  23640239.766                    23640250.652
 113958905.124 7  88799244.26445  21685641.594                    21685648.512
 124872909.979 6  97303573.37243  23762520.148                    23762529.926
 121029859.976 7  94309011.65844  23031215.578                    23031221.027
 109018782.638 8  84949782.74846  20745582.156                    20745589.508
 106660020.153 7  83111742.562 7  20296723.070                    20296730.133
 121355122.062 7  94562450.98043  23093121.602                    23093131.559
 11  8  1 19 36  0.0000000  0  9G28G24G17G11G26G19G08G07G13
 117183401.401 7  91311926.64845  22299271.516                    22299278.523
 119843821.447 6  93384926.03144  22805512.875                    22805523.145
 124133228.783 7  96727240.767 6  23621755.352                    23621766.137
 113931096.974 7  88777575.60045  21680349.984                    21680357.414
 124796658.642 6  97244156.81443  23748009.352                    23748020.082
 121125843.912 7  94383804.27944  23049479.789                    23049486.293
 108964165.601 8  84907224.03046  20735189.398                    20735196.531
 106659679.620 8  83111477.216 7  20296658.289                    20296665.477
 121464256.857 7  94647490.88943  23113889.547                    23113899.488
 11  8  1 19 36 30.0000000  0  9G28G24G17G11G26G19G08G07G13
 117154428.167 7  91289350.11945  22293758.375                    22293764.672
 119781403.718 7  93336288.94844  22793635.625                    22793645.543
 124036297.858 6  96651710.362 6  23603309.789                    23603320.512
 113903807.382 7  88756311.01045  21675157.148                    21675164.094
 124720865.771 6  97185097.44743  23733586.828                    23733596.637
 121222059.290 7  94458777.26744  23067788.828                    23067795.129
 108909829.410 8  84864884.16446  20724849.070                    20724857.109
 106659769.191 8  83111547.012 7  20296675.508                    20296682.270
 121573515.493 7  94732627.31043  23134681.305                    23134691.078
 11  8  1 19 37  0.0000000  0  9G28G24G17G11G26G19G08G07G13
 117125546.747 7  91266845.14745  22288261.984                    22288269.336
 119719266.501 6  93287870.43344  22781810.773                    22781821.570
 123939571.798 6  96576339.605 6  23584903.602                    23584914.563
 113877038.458 7  88735452.14345  21670062.688                    21670070.359
 124645533.536 6  97126397.09543  23719252.477                    23719261.727
 121318503.166 7  94533928.30844  23086142.086                    23086148.395
 108855776.408 8  84822764.94946  20714563.477                    20714571.160
 106660290.256 8  83111953.041 7  20296774.641                    20296781.582
 121682894.924 7  94817857.84344  23155495.055                    23155505.328
 11  8  1 19 37 30.0000000  0  9G28G24G17G11G26G19G08G07G13
 117096755.878 7  91244410.72045  22282783.336                    22282790.418
 119657412.369 6  93239672.50644  22770041.164                    22770051.297
 123843052.175 6  96501129.690 6  23566536.281                    23566546.793
 113850790.858 7  88714999.50245  21665067.891                    21665075.316
 124570664.057 6  97068057.31843  23705004.531                    23705014.520
 121415173.200 7  94609255.58444  23104537.656                    23104543.461
 108802008.573 8  84780867.95946  20704331.461                    20704339.539
 106661244.150 8  83112696.330 7  20296955.922                    20296962.789
 121792391.794 7  94903179.89544  23176331.648                    23176342.191
 11  8  1 19 38  0.0000000  0  9G28G24G17G11G26G19G08G07G13
 117068054.480 7  91222046.02845  22277321.492                    22277328.590
 119595843.984 6  93191697.23044  22758324.484                    22758334.266
 123746740.673 6  96426081.955 6  23548208.695                    23548218.949
 113825066.594 7  88694954.66245  21660172.813                    21660179.805
 124496259.795 6  97010080.04243  23690845.703                    23690855.590
 121512066.039 7  94684756.46944  23122975.781                    23122981.941
 108748527.885 8  84739194.70346  20694154.664                    20694162.391
 106662631.423 8  83113777.310 8  20297220.148                    20297226.930
 121902002.823 7  94988590.88444  23197190.664                    23197200.629
 11  8  1 19 38 30.0000000  0  9G28G24G17G11G26G19G08G07G13
 117039442.021 7  91199750.64045  22271876.656                    22271884.176
 119534564.505 6  93143947.06544  22746663.375                    22746674.223
 123650639.645 6  96351198.248 6  23529920.602                    23529931.188
 113799867.616 7  88675319.13145  21655377.094                    21655384.789
 124422322.940 6  96952466.94043  23676775.813                    23676786.090
 121609178.814 7  94760428.74444  23141455.656                    23141462.066
 108695337.557 8  84697747.70846  20684032.906                    20684040.473
 106664453.580 8  83115197.179 8  20297567.023                    20297573.941
 122011725.199 7  95074088.64143  23218069.273                    23218080.148
 11  8  1 19 39  0.0000000  0  9G28G24G17G11G26G19G08G07G13
 117010917.704 7  91177523.91745  22266449.148                    22266455.730
 119473577.220 7  93096424.59744  22735057.688                    22735067.859
 123554750.545 7  96276479.681 6  23511673.320                    23511684.355
 113775195.411 7  88656094.08845  21650682.477                    21650689.789
 124348856.361 6  96895220.35243  23662794.680                    23662805.555
 121706509.299 7  94836270.65244  23159977.273                    23159983.070
 108642439.893 8  84656528.77346  20673966.945                    20673974.207
 106666712.057 8  83116957.025 8  20297996.586                    20298003.402
 122121555.853 7  95159670.73743  23238969.539                    23238980.711
 11  8  1 19 39 30.0000000  0  9G28G24G17G11G26G19G08G07G13
 116982480.845 7  91155365.35145  22261037.203                    22261044.797
 119412884.985 7  93049132.04644  22723508.648                    22723518.543
 123459075.215 7  96201927.654 6  23493467.758                    23493477.688
 113751051.997 7  88637281.08445  21646088.133                    21646095.676
 124275862.490 6  96838342.06543  23648905.484                    23648914.973
 121804054.472 7  94912279.86144  23178539.641                    23178545.492
 108589837.524 8  84615539.92746  20663956.719                    20663963.910
 106669408.298 7  83119057.989 7  20298509.336                    20298516.465
 122231491.983 7  95245335.04843  23259889.984                    23259901.387
 11  8  1 19 40  0.0000000  0  9G28G24G17G11G26G19G08G07G13
 116954130.652 7  91133274.33445  22255642.820                    22255649.816
 119352490.624 7  93002071.58744  22712015.180                    22712025.816
 123363615.833 7  96127543.906 6  23475302.055                    23475312.172
 113727438.606 7  88618881.08245  21641594.617                    21641601.637
 124203343.341 6  96781833.69443  23635105.289                    23635114.883
 121901811.573 7  94988454.19944  23197141.617                    23197148.348
 108537532.505 8  84574782.79446  20654003.945                    20654010.918
 106672543.525 8  83121501.015 7  20299105.992                    20299113.063
 122341530.221 6  95331078.89943  23280830.563                    23280840.418
 11  8  1 19 40 30.0000000  0  9G28G24G17G11G26G19G08G07G13
 116925866.698 7  91111250.50145  22250264.250                    22250271.246
 119292397.845 7  92955246.13144  22700579.500                    22700590.371
 123268374.203 7  96053329.841 6  23457177.859                    23457188.086
 113704357.157 7  88600895.57045  21637202.063                    21637209.164
 124131302.228 6  96725697.81343  23621396.727                    23621405.598
 121999778.197 7  95064791.77544  23215784.125                    23215790.918
 108485527.968 8  84534259.79246  20644106.953                    20644114.641
 106676119.097 8  83124287.167 8  20299786.727                    20299793.559
 122451668.022 7  95416900.34243  23301788.633                    23301799.336
 11  8  1 19 41  0.0000000  0  9G28G24G17G11G26G19G08G07G13
 116897687.726 7  91089292.87145  22244901.766                    22244908.969
 119232609.075 7  92908657.57844  22689203.008                    22689213.262
 123173351.717 7  95979286.519 6  23439095.672                    23439105.605
 113681808.822 7  88583325.47145  21632911.305                    21632918.793
 124059740.857 6  96669935.73643  23607779.023                    23607788.297
 122097950.932 7  95141289.99444  23234466.047                    23234472.137
 108433825.875 8  84493972.45546  20634268.961                    20634276.477
 106680135.828 7  83127417.085 7  20300551.281                    20300557.961
 122561901.767 6  95502796.53143  23322765.953                    23322776.547
 11  8  1 19 41 30.0000000  0  9G28G24G17G11G26G19G08G07G13
 116869593.061 7  91067400.95745  22239555.617                    22239562.566
 119173127.334 7  92862308.25744  22677883.289                    22677893.559
 123078550.505 7  95905415.650 6  23421055.664                    23421066.063
 113659795.411 7  88566172.20145  21628722.320                    21628729.152
 123988661.648 6  96614549.38243  23594252.391                    23594261.648
 122196327.286 7  95217946.83544  23253186.430                    23253192.574
 108382428.858 8  84453922.85546  20624488.438                    20624496.070
 106684595.363 8  83130892.042 7  20301399.844                    20301406.660
 122672228.993 6  95588765.57343  23343760.578                    23343770.887
 11  8  1 19 42  0.0000000  0  9G28G24G17G11G26G19G08G07G13
 116841582.135 7  91045574.29345  22234224.945                    22234232.043
 119113955.483 7  92816200.40844  22666623.242                    22666633.402
 122983972.395 7  95831718.616 6  23403057.594                    23403068.242
 113638318.368 7  88549436.87745  21624635.555                    21624642.766
 123918067.160 6  96559540.69443  23580819.258                    23580827.492
 122294904.732 6  95294760.40244  23271945.141                    23271951.250
 108331339.259 8  84414112.78946  20614766.094                    20614773.605
 106689498.609 8  83134712.743 8  20302332.758                    20302339.570
 122782646.549 7  95674805.00343  23364772.555                    23364782.742
 11  8  1 19 42 30.0000000  0  9G28G24G17G11G26G19G08G07G13
 116813653.897 7  91023812.05845  22228910.406                    22228917.879
 119055096.388 6  92770336.26344  22655422.969                    22655433.117
 122889618.754 6  95758196.495 7  23385102.578                    23385113.063
 113617378.897 7  88533120.43845  21620650.594                    21620658.141
 123847959.234 6  96504911.19043  23567477.695                    23567486.707
 122393680.315 6  95371728.32844  23290741.727                    23290748.375
 108280559.325 8  84374544.02146  20605103.508                    20605110.867
 106694846.623 7  83138880.025 7  20303350.352                    20303357.609
 122893151.231 7  95760912.33943  23385801.102                    23385810.992
 11  8  1 19 43  0.0000000  0  9G28G24G17G11G26G19G08G07G13
 116785807.790 7  91002113.80745  22223611.867                    22223618.594
 118996553.307 6  92724718.38044  22644281.688                    22644292.395
 122795491.675 6  95684850.902 6  23367190.656                    23367200.781
 113596978.916 7  88517224.37945  21616769.219                    21616775.836
 123778340.601 6  96450662.93643  23554230.211                    23554238.832
 122492651.378 6  95448848.59644  23309575.055                    23309581.563
 108230091.855 8  84335218.73746  20595499.555                    20595506.723
 106700640.863 7  83143395.015 7  20304453.078                    20304459.805
 123003740.027 7  95847085.19743  23406845.977                    23406855.551
 11  8  1 19 43 30.0000000  0  9G28G24G17G11G26G19G08G07G13
 116758043.476 7  90980479.30645  22218328.016                    22218334.957
 118938329.383 7  92679349.16444  22633202.063                    22633212.359
 122701593.422 6  95611683.606 6  23349322.414                    23349332.047
 113577120.077 7  88501750.00345  21612989.820                    21612997.137
 123709213.831 6  96396797.97243  23541075.898                    23541085.590
 122591815.257 6  95526119.10844  23328445.359                    23328451.426
 108179939.904 8  84296139.30846  20585955.852                    20585963.457
 106706882.743 8  83148258.815 8  20305640.719                    20305647.891
 123114410.172 7  95933321.44043  23427906.023                    23427916.004
 11  8  1 19 44  0.0000000  0  9G28G24G17G11G26G19G08G07G13
 116730359.565 7  90958907.45245  22213060.102                    22213067.195
 118880427.170 6  92634230.61444  22622184.086                    22622193.980
 122607924.958 6  95538695.336 6  23331497.250                    23331507.871
 113557803.377 7  88486698.06145  21609314.469                    21609321.238
 123640580.605 6  96343317.62343  23528015.430                    23528024.891
 122691169.362 6  95603537.85844  23347351.633                    23347358.191
 108130105.106 8  84257307.00446  20576472.430                    20576479.883
 106713572.875 7  83153471.909 7  20306913.992                    20306921.145
 123225158.403 7  96019618.54043  23448980.836                    23448991.023
 11  8  1 19 44 30.0000000  0  9G28G24G17G11G26G19G08G07G13
 116702754.915 7  90937397.35645  22207807.398                    22207813.973
 118822848.792 7  92589364.41144  22611227.086                    22611236.922
 122514487.769 7  95465887.297 6  23313716.883                    23313726.746
 113539029.494 7  88472069.09745  21605741.336                    21605748.723
 123572442.706 6  96290223.28043  23515048.977                    23515058.688
 122790709.987 6  95681101.96044  23366294.258                    23366300.461
 108080589.137 8  84218723.14646  20567050.047                    20567057.629
 106720711.535 8  83159034.499 7  20308272.539                    20308279.297
 123335981.087 7  96105973.63543  23470070.031                    23470080.293
 11  8  1 19 45  0.0000000  0  9G28G24G17G11G26G19G08G07G13
 116675229.748 7  90915949.18645  22202569.594                    22202576.402
 118765598.218 7  92544753.63744  22600333.102                    22600342.660
 122421284.496 7  95393261.467 6  23295981.070                    23295990.285
 113520801.004 7  88457865.12345  21602272.875                    21602279.871
 123504803.276 6  96237517.30243  23502176.352                    23502187.082
 122890435.612 6  95758810.20144  23385271.141                    23385277.336
 108031396.011 8  84180390.84846  20557688.820                    20557696.328
 106728301.167 7  83164948.496 7  20309716.414                    20309723.641
 123446876.387 6  96192385.30643  23491172.156                    23491183.121
 11  8  1 19 45 30.0000000  0  9G28G24G17G11G26G19G08G07G13
 116647783.229 7  90894562.31745  22197346.492                    22197353.555
 118708678.236 7  92500400.47444  22589500.906                    22589510.688
 122328316.613 7  95320819.094 6  23278289.852                    23278299.012
 113503118.940 7  88444086.92145  21598907.555                    21598915.289
 123437664.603 6  96185201.51843  23489400.609                    23489410.992
 122990343.171 6  95836660.19944  23404283.734                    23404289.121
 107982527.789 8  84142311.72946  20548389.422                    20548396.484
 106736342.750 8  83171214.667 7  20311246.602                    20311253.816
 123557841.038 6  96278851.00243  23512288.414                    23512299.555
 11  8  1 19 46  0.0000000  0  9G28G24G17G11G26G19G08G07G13
 116620414.389 7  90873235.97945  22192138.320                    22192145.422
 118652091.478 7  92456306.93844  22578733.570                    22578742.520
 122235585.739 7  95248561.396 6  23260643.547                    23260652.570
 113485984.688 7  88430735.59345  21595646.938                    21595654.371
 123371028.662 6  96133277.47143  23476720.938                    23476730.918
 123090429.858 6  95914649.79044  23423328.875                    23423335.320
 107933987.175 8  84104487.88246  20539152.633                    20539159.957
 106744837.118 8  83177833.667 7  20312863.383                    20312870.059
 123668871.801 6  96365368.21943  23533416.461                    23533428.375
 11  8  1 19 46 30.0000000  0  9G28G24G17G11G26G19G08G07G13
 116593122.380 7  90851969.48445  22186944.734                    22186951.699
 118595840.696 7  92412475.23644  22568028.891                    22568038.590
 122143093.748 6  95176489.850 6  23243042.586                    23243052.266
 113469399.273 7  88417811.93545  21592491.250                    21592498.363
 123304897.594 6  96081746.78943  23464136.305                    23464145.676
 123190693.049 6  95992776.90244  23442408.070                    23442415.051
 107885776.071 8  84066920.78946  20529978.086                    20529985.609
 106753785.339 8  83184806.303 7  20314566.000                    20314572.996
 123779965.654 6  96451934.58543  23554558.000                    23554568.754
 11  8  1 19 47  0.0000000  0  9G28G24G17G11G26G19G08G07G13
 116565906.632 7  90830762.42545  22181765.922                    22181773.156
 118539928.793 7  92368907.54944  22557389.188                    22557398.680
 122050841.955 7  95104605.471 6  23225487.820                    23225497.586
 113453364.067 7  88405316.99745  21589439.523                    21589446.887
 123239273.381 6  96030611.09943  23451648.180                    23451658.199
 123291129.700 6  96071039.17444  23461521.094                    23461527.059
 107837896.676 8  84029612.18246  20520867.234                    20520874.535
 106763188.304 8  83192133.304 7  20316355.195                    20316362.250
 123891119.442 6  96538547.65443  23575709.813                    23575720.926
